[[{"header":{"parameterUnit":"m.s-1","parameterCategory":1,"la1":30.6,"la2":28.766,"lo1":-90.7593,"lo2":-88.6598,"dy":0.0162,"dx":0.0183,"nx":116,"ny":114,"refTime":"2023-03-31T12:00:00:Z","depth":0,"parameterNumber":2,"parameterNumberName":"U-component_of_WINDS"},"data":[0.0,0.0,0.0,0.0,0.0,0.0,0.0,0.0,0.0,0.0,0.0,0.0,0.0,0.0,0.0,0.0,0.0,0.0,0.0,0.0,0.0,0.0,0.0,0.0,0.0,0.0,0.0,0.0,0.0,0.0,0.0,0.0,0.0,0.0,0.0,0.0,0.0,0.0,0.0,0.0,0.0,0.0,0.0,0.0,0.0,0.0,0.0,0.0,0.0,0.0,0.0,0.0,0.0,0.0,0.0,0.0,0.0,0.0,0.0,0.0,0.0,0.0,0.0,0.0,0.0,0.0,0.0,0.0,0.0,0.0,0.0,0.0,0.0,0.0,0.0,0.0,0.0,0.0,0.0,0.0,0.0,0.0,0.0,0.0,0.0,0.0,0.0,0.0,0.0,0.0,0.0,0.0,0.0,0.0,0.0,0.0,0.0,0.0,0.0,0.0,0.0,0.0,0.0,0.0,0.0,0.0,0.0,0.0,0.0,0.0,0.0,0.0,0.0,0.0,0.0,0.0,0.0,0.0,0.0,0.0,0.0,0.0,0.0,0.0,0.0,0.0,0.0,0.0,0.0,0.0,0.0,0.0,0.0,0.0,0.0,0.0,0.0,0.0,0.0,0.0,0.0,0.0,0.0,0.0,0.0,0.0,0.0,0.0,0.0,0.0,0.0,0.0,0.0,0.0,0.0,0.0,0.0,0.0,0.0,0.0,0.0,0.0,0.0,0.0,0.0,0.0,0.0,0.0,0.0,0.0,0.0,0.0,0.0,0.0,0.0,0.0,0.0,0.0,0.0,0.0,0.0,0.0,0.0,0.0,0.0,0.0,0.0,0.0,0.0,0.0,0.0,0.0,0.0,0.0,0.0,0.0,0.0,0.0,0.0,0.0,0.0,0.0,0.0,0.0,0.0,0.0,0.0,0.0,0.0,0.0,0.0,0.0,0.0,0.0,0.0,0.0,0.0,0.0,0.0,0.0,0.0,0.0,0.0,0.0,0.0,0.0,0.0,0.0,0.0,0.0,0.0,0.0,0.0,0.0,0.0,0.0,0.0,0.0,0.0,0.0,0.0,0.0,0.0,0.0,0.0,0.0,0.0,0.0,0.0,0.0,0.0,0.0,0.0,0.0,0.0,0.0,0.0,0.0,0.0,0.0,0.0,0.0,0.0,0.0,0.0,0.0,0.0,0.0,0.0,0.0,0.0,0.0,0.0,0.0,0.0,0.0,0.0,0.0,0.0,0.0,0.0,0.0,0.0,0.0,0.0,0.0,0.0,0.0,0.0,0.0,0.0,0.0,0.0,0.0,0.0,0.0,0.0,0.0,0.0,0.0,0.0,0.0,0.0,0.0,0.0,0.0,0.0,0.0,0.0,0.0,0.0,0.0,0.0,0.0,0.0,0.0,0.0,0.0,0.0,0.0,0.0,0.0,0.0,0.0,0.0,0.0,0.0,0.0,0.0,0.0,0.0,0.0,0.0,0.0,0.0,0.0,0.0,0.0,0.0,0.0,0.0,0.0,0.0,0.0,0.0,0.0,0.0,0.0,0.0,0.0,0.0,0.0,0.0,0.0,0.0,0.0,0.0,0.0,0.0,0.0,0.0,0.0,0.0,0.0,0.0,0.0,0.0,0.0,0.0,0.0,0.0,0.0,0.0,0.0,0.0,0.0,0.0,0.0,0.0,0.0,0.0,0.0,0.0,0.0,0.0,0.0,0.0,0.0,0.0,0.0,0.0,0.0,0.0,0.0,0.0,0.0,0.0,0.0,0.0,0.0,0.0,0.0,0.0,0.0,0.0,0.0,0.0,0.0,0.0,0.0,0.0,0.0,0.0,0.0,0.0,0.0,0.0,0.0,0.0,0.0,0.0,0.0,0.0,0.0,0.0,0.0,0.0,0.0,0.0,0.0,0.0,0.0,0.0,0.0,0.0,0.0,0.0,0.0,0.0,0.0,0.0,0.0,0.0,0.0,0.0,0.0,0.0,0.0,0.0,0.0,0.0,0.0,0.0,0.0,0.0,0.0,0.0,0.0,0.0,0.0,0.0,0.0,0.0,0.0,0.0,0.0,0.0,0.0,0.0,0.0,0.0,0.0,0.0,0.0,0.0,0.0,0.0,0.0,0.0,0.0,0.0,0.0,0.0,0.0,0.0,0.0,0.0,0.0,0.0,0.0,0.0,0.0,0.0,0.0,0.0,0.0,0.0,0.0,0.0,0.0,0.0,0.0,0.0,0.0,0.0,0.0,0.0,0.0,0.0,0.0,0.0,0.0,0.0,0.0,0.0,0.0,0.0,0.0,0.0,0.0,0.0,0.0,0.0,0.0,0.0,0.0,0.0,0.0,0.0,0.0,0.0,0.0,0.0,0.0,0.0,0.0,0.0,0.0,0.0,0.0,0.0,0.0,0.0,0.0,0.0,0.0,0.0,0.0,0.0,0.0,0.0,0.0,0.0,0.0,0.0,0.0,0.0,0.0,0.0,0.0,0.0,0.0,0.0,0.0,0.0,0.0,0.0,0.0,0.0,0.0,0.0,0.0,0.0,0.0,0.0,0.0,0.0,0.0,0.0,0.0,0.0,0.0,0.0,0.0,0.0,0.0,0.0,0.0,0.0,0.0,0.0,0.0,0.0,0.0,0.0,0.0,0.0,0.0,0.0,0.0,0.0,0.0,0.0,0.0,0.0,0.0,0.0,0.0,0.0,0.0,0.0,0.0,0.0,0.0,0.0,0.0,0.0,0.0,0.0,0.0,0.0,0.0,0.0,0.0,0.0,0.0,0.0,0.0,0.0,0.0,0.0,0.0,0.0,0.0,0.0,0.0,0.0,0.0,0.0,0.0,0.0,0.0,0.0,0.0,0.0,0.0,0.0,0.0,0.0,0.0,0.0,0.0,0.0,0.0,0.0,0.0,0.0,0.0,0.0,0.0,0.0,0.0,0.0,0.0,0.0,0.0,0.0,0.0,0.0,0.0,0.0,0.0,0.0,0.0,0.0,0.0,0.0,0.0,0.0,0.0,0.0,0.0,0.0,0.0,0.0,0.0,0.0,0.0,0.0,0.0,0.0,0.0,0.0,0.0,0.0,0.0,0.0,0.0,0.0,0.0,0.0,0.0,0.0,0.0,0.0,0.0,0.0,0.0,0.0,0.0,0.0,0.0,0.0,0.0,0.0,0.0,0.0,0.0,0.0,0.0,0.0,0.0,0.0,0.0,0.0,0.0,0.0,0.0,0.0,0.0,0.0,0.0,0.0,0.0,0.0,0.0,0.0,0.0,0.0,0.0,0.0,0.0,0.0,0.0,0.0,0.0,0.0,0.0,0.0,0.0,0.0,0.0,0.0,0.0,0.0,0.0,0.0,0.0,0.0,0.0,0.0,0.0,0.0,0.0,0.0,0.0,0.0,0.0,0.0,0.0,0.0,0.0,0.0,0.0,0.0,0.0,0.0,0.0,0.0,0.0,0.0,0.0,0.0,0.0,0.0,0.0,0.0,0.0,0.0,0.0,0.0,0.0,0.0,0.0,0.0,0.0,0.0,0.0,0.0,0.0,0.0,0.0,0.0,0.0,0.0,0.0,0.0,0.0,0.0,0.0,0.0,0.0,0.0,0.0,0.0,0.0,0.0,0.0,0.0,0.0,0.0,0.0,0.0,0.0,0.0,0.0,0.0,0.0,0.0,0.0,0.0,0.0,0.0,0.0,0.0,0.0,0.0,0.0,0.0,0.0,0.0,0.0,0.0,0.0,0.0,0.0,0.0,0.0,0.0,0.0,0.0,0.0,0.0,0.0,0.0,0.0,0.0,0.0,0.0,0.0,0.0,0.0,0.0,0.0,0.0,0.0,0.0,0.0,0.0,0.0,0.0,0.0,0.0,0.0,0.0,0.0,0.0,0.0,0.0,0.0,0.0,0.0,0.0,0.0,0.0,0.0,0.0,0.0,0.0,0.0,0.0,0.0,0.0,0.0,0.0,0.0,0.0,0.0,0.0,0.0,0.0,0.0,0.0,0.0,0.0,0.0,0.0,0.0,0.0,0.0,0.0,0.0,0.0,0.0,0.0,0.0,0.0,0.0,0.0,0.0,0.0,0.0,0.0,0.0,0.0,0.0,0.0,0.0,0.0,0.0,0.0,0.0,0.0,0.0,0.0,0.0,0.0,0.0,0.0,0.0,0.0,0.0,0.0,0.0,0.0,0.0,0.0,0.0,0.0,0.0,0.0,0.0,0.0,0.0,0.0,0.0,0.0,0.0,0.0,0.0,0.0,0.0,0.0,0.0,0.0,0.0,0.0,0.0,0.0,0.0,0.0,0.0,0.0,0.0,0.0,0.0,0.0,0.0,0.0,0.0,0.0,0.0,0.0,0.0,0.0,0.0,0.0,0.0,0.0,0.0,0.0,0.0,0.0,0.0,0.0,0.0,0.0,0.0,0.0,0.0,0.0,0.0,0.0,0.0,0.0,0.0,0.0,0.0,0.0,0.0,0.0,0.0,0.0,0.0,0.0,0.0,0.0,0.0,0.0,0.0,0.0,0.0,0.0,0.0,0.0,0.0,0.0,0.0,0.0,0.0,0.0,0.0,0.0,0.0,0.0,0.0,0.0,0.0,0.0,0.0,0.0,0.0,0.0,0.0,0.0,0.0,0.0,0.0,0.0,0.0,0.0,0.0,0.0,0.0,0.0,0.0,0.0,0.0,0.0,0.0,0.0,0.0,0.0,0.0,0.0,0.0,0.0,0.0,0.0,0.0,0.0,0.0,0.0,0.0,0.0,0.0,0.0,0.0,0.0,0.0,0.0,0.0,0.0,0.0,0.0,0.0,0.0,0.0,0.0,0.0,0.0,0.0,0.0,0.0,0.0,0.0,0.0,0.0,0.0,0.0,0.0,0.0,0.0,0.0,0.0,0.0,0.0,0.0,0.0,0.0,0.0,0.0,0.0,0.0,0.0,0.0,0.0,0.0,0.0,0.0,0.0,0.0,0.0,0.0,0.0,0.0,0.0,0.0,0.0,0.0,0.0,0.0,0.0,0.0,0.0,0.0,0.0,0.0,0.0,0.0,0.0,0.0,0.0,0.0,0.0,0.0,0.0,0.0,0.0,0.0,0.0,0.0,0.0,0.0,0.0,0.0,0.0,0.0,0.0,0.0,0.0,0.0,0.0,0.0,0.0,0.0,0.0,0.0,0.0,0.0,0.0,0.0,0.0,0.0,0.0,0.0,0.0,0.0,0.0,0.0,0.0,0.0,0.0,0.0,0.0,0.0,0.0,0.0,0.0,0.0,0.0,0.0,0.0,0.0,0.0,0.0,0.0,0.0,0.0,0.0,0.0,0.0,0.0,0.0,0.0,0.0,0.0,0.0,0.0,0.0,0.0,0.0,0.0,0.0,0.0,0.0,0.0,0.0,0.0,0.0,0.0,0.0,0.0,0.0,0.0,0.0,0.0,0.0,0.0,0.0,0.0,0.0,0.0,0.0,0.0,0.0,0.0,0.0,0.0,0.0,0.0,0.0,0.0,0.0,0.0,0.0,0.0,0.0,0.0,0.0,0.0,0.0,0.0,0.0,0.0,0.0,0.0,0.0,0.0,0.0,0.0,0.0,0.0,0.0,0.0,0.0,0.0,0.0,0.0,0.0,0.0,0.0,0.0,0.0,0.0,0.0,0.0,0.0,0.0,0.0,0.0,0.0,0.0,0.0,0.0,0.0,0.0,0.0,0.0,0.0,0.0,0.0,0.0,0.0,0.0,0.0,0.0,0.0,0.0,0.0,0.0,0.0,0.0,0.0,0.0,0.0,0.0,0.0,0.0,0.0,0.0,0.0,0.0,0.0,0.0,0.0,0.0,0.0,0.0,0.0,0.0,0.0,0.0,0.0,0.0,0.0,0.0,0.0,0.0,0.0,0.0,0.0,0.0,0.0,0.0,0.0,0.0,0.0,0.0,0.0,0.0,0.0,0.0,0.0,0.0,0.0,0.0,0.0,0.0,0.0,0.0,0.0,0.0,0.0,0.0,0.0,0.0,0.0,0.0,0.0,0.0,0.0,0.0,0.0,0.0,0.0,0.0,0.0,0.0,0.0,0.0,0.0,0.0,0.0,0.0,0.0,0.0,0.0,0.0,0.0,-2.6469,-2.5743,0.0,0.0,0.0,0.0,0.0,0.0,0.0,0.0,0.0,0.0,0.0,0.0,0.0,0.0,0.0,0.0,0.0,0.0,0.0,0.0,0.0,0.0,0.0,0.0,0.0,0.0,0.0,0.0,0.0,0.0,0.0,0.0,0.0,0.0,0.0,0.0,0.0,0.0,-3.4843,-3.5461,-3.6089,-3.637,-3.5864,-3.4674,0.0,0.0,0.0,0.0,0.0,0.0,0.0,0.0,0.0,0.0,0.0,0.0,0.0,0.0,0.0,0.0,0.0,0.0,0.0,0.0,0.0,0.0,0.0,0.0,0.0,0.0,0.0,0.0,0.0,0.0,0.0,0.0,0.0,0.0,0.0,0.0,0.0,0.0,0.0,0.0,0.0,0.0,0.0,0.0,0.0,0.0,0.0,0.0,0.0,0.0,0.0,0.0,0.0,0.0,0.0,0.0,0.0,0.0,0.0,0.0,0.0,0.0,0.0,0.0,0.0,0.0,0.0,0.0,0.0,0.0,-2.8484,-2.7571,0.0,0.0,0.0,0.0,0.0,0.0,0.0,0.0,0.0,0.0,0.0,0.0,0.0,0.0,0.0,0.0,0.0,0.0,0.0,0.0,0.0,0.0,0.0,0.0,-3.5489,-3.5883,-3.642,0.0,0.0,0.0,0.0,0.0,0.0,0.0,0.0,-3.4695,-3.4548,-3.425,-3.5264,-3.6448,-3.7842,-3.8539,-3.809,-3.6609,-3.5855,0.0,0.0,0.0,0.0,0.0,0.0,0.0,0.0,0.0,0.0,0.0,0.0,0.0,0.0,0.0,0.0,0.0,0.0,0.0,0.0,0.0,0.0,0.0,0.0,0.0,0.0,0.0,0.0,0.0,0.0,0.0,0.0,0.0,0.0,0.0,0.0,0.0,0.0,0.0,0.0,0.0,0.0,0.0,0.0,0.0,0.0,0.0,0.0,0.0,0.0,0.0,0.0,0.0,0.0,0.0,0.0,0.0,0.0,0.0,0.0,0.0,0.0,0.0,-3.3363,-3.3363,-3.3254,-3.3254,-3.3309,-3.3309,-3.151,-3.0528,-3.0113,-2.9109,0.0,0.0,0.0,0.0,0.0,0.0,0.0,0.0,0.0,0.0,0.0,0.0,0.0,0.0,0.0,0.0,0.0,0.0,0.0,0.0,0.0,-3.5106,-3.5533,-3.5097,-3.6052,-3.6341,0.0,0.0,0.0,0.0,0.0,0.0,-3.5069,-3.5013,-3.5274,-3.5713,-3.8034,-3.9843,-4.1083,-4.2234,-4.2635,-4.2214,-3.846,-3.6648,-3.6314,0.0,0.0,0.0,0.0,0.0,0.0,0.0,0.0,0.0,0.0,0.0,0.0,0.0,0.0,0.0,0.0,0.0,0.0,0.0,0.0,0.0,0.0,0.0,0.0,0.0,0.0,0.0,0.0,0.0,0.0,0.0,0.0,0.0,0.0,0.0,0.0,0.0,0.0,0.0,0.0,0.0,-2.9647,-3.0582,0.0,0.0,0.0,0.0,0.0,0.0,0.0,0.0,0.0,0.0,0.0,0.0,0.0,-3.4661,-3.5112,-3.707,-3.7841,-3.7482,-3.8007,-3.7979,-3.7482,-3.7482,-3.7758,-3.8173,-3.635,0.0,-3.2746,-3.1785,0.0,0.0,0.0,0.0,0.0,0.0,0.0,0.0,0.0,0.0,0.0,0.0,0.0,0.0,0.0,0.0,0.0,0.0,0.0,0.0,0.0,-3.5631,-3.6706,-3.5748,-3.8214,-3.8803,-3.6332,0.0,0.0,0.0,0.0,-3.5131,-3.3983,-3.4286,-3.5503,-3.7799,-4.0546,-4.252,-4.3754,-4.4601,-4.5211,-4.5426,-4.3183,-4.0962,-3.8878,-3.7765,0.0,0.0,0.0,0.0,0.0,0.0,0.0,0.0,0.0,0.0,0.0,0.0,0.0,0.0,0.0,0.0,0.0,0.0,0.0,0.0,0.0,0.0,0.0,0.0,0.0,0.0,0.0,0.0,0.0,0.0,0.0,0.0,0.0,0.0,0.0,0.0,0.0,0.0,0.0,-3.0774,-3.1483,-3.0188,-3.1644,-3.1811,0.0,0.0,0.0,0.0,0.0,0.0,0.0,0.0,0.0,-3.368,-3.6223,-3.7661,-3.7855,-3.9403,-4.0581,-4.1356,-4.1633,-4.1799,-4.1854,-4.1522,-4.1301,-4.119,-4.0158,-3.8907,-3.7428,-3.4705,-3.2735,-3.1261,0.0,0.0,0.0,0.0,-2.7607,-2.8079,0.0,0.0,0.0,0.0,0.0,0.0,0.0,0.0,0.0,0.0,0.0,0.0,-3.4011,-3.6478,-3.7977,-3.7621,-3.9987,-4.0232,-3.7206,-3.7975,0.0,0.0,0.0,-3.4235,-3.3332,-3.4507,-3.6653,-3.9803,-4.2991,-4.5146,-4.633,-4.7217,-4.7839,-4.8272,-4.7649,-4.5395,-4.192,-4.0206,-3.759,-3.4579,0.0,0.0,0.0,0.0,0.0,0.0,0.0,0.0,0.0,0.0,0.0,0.0,0.0,0.0,0.0,0.0,0.0,0.0,0.0,0.0,0.0,0.0,0.0,0.0,0.0,0.0,0.0,0.0,0.0,0.0,0.0,0.0,0.0,0.0,0.0,0.0,0.0,-3.2234,-3.3058,-3.0336,-3.3114,-3.398,0.0,0.0,0.0,0.0,0.0,0.0,-3.4659,-3.6454,-3.7195,-3.6591,-3.9227,-4.0752,-4.0891,-4.2018,-4.337,-4.4823,-4.4518,-4.4684,-4.524,-4.4462,-4.3879,-4.3407,-4.2813,-4.2199,-4.1352,-3.7613,-3.5068,-3.3476,-3.3107,-3.174,-3.0021,-3.0257,-3.048,-3.0759,0.0,0.0,0.0,0.0,0.0,0.0,0.0,0.0,0.0,0.0,0.0,-3.5543,-3.6605,-3.7597,-3.8993,-4.0968,-4.0118,-3.8807,-3.7284,-3.7373,-3.6346,-3.3823,-3.4411,-3.4516,-3.388,-3.6876,-3.9408,-4.1386,-4.5369,-4.7923,-4.9127,-5.0676,-5.1444,-5.1423,-5.0829,-4.8708,-4.5463,-4.2387,-3.9908,-3.7799,-3.5217,0.0,0.0,0.0,0.0,0.0,0.0,0.0,0.0,0.0,0.0,0.0,0.0,0.0,0.0,0.0,0.0,0.0,0.0,0.0,0.0,0.0,0.0,0.0,0.0,0.0,0.0,0.0,0.0,0.0,0.0,0.0,0.0,0.0,0.0,0.0,0.0,0.0,0.0,-3.1854,-3.5488,0.0,0.0,0.0,0.0,-3.627,-3.6598,-3.741,-3.8824,-3.9187,-4.0022,-4.1467,-4.3612,-4.4988,-4.5574,-4.6441,-4.7213,-4.7859,-4.6708,-4.6483,-4.7016,-4.5809,-4.522,-4.5108,-4.3929,-4.3441,-4.3143,-4.0389,-3.8769,-3.773,-3.5405,-3.452,-3.4418,-3.3338,-3.378,-3.4908,0.0,0.0,0.0,0.0,0.0,0.0,0.0,0.0,0.0,-3.3561,-3.4984,-3.6385,-3.7538,-4.0094,-4.1892,-4.2279,-4.3429,-4.2726,-3.9433,-3.8292,-3.6404,-3.3316,-3.23,-3.2729,-3.4829,-3.8405,-4.1526,-4.4068,-4.7576,-4.9835,-5.0804,-5.1778,-5.2855,-5.3982,-5.2101,-5.1147,-5.0546,-4.5871,-4.2132,-3.9167,-3.7373,-3.4842,0.0,0.0,0.0,0.0,0.0,0.0,0.0,0.0,0.0,0.0,0.0,0.0,0.0,0.0,0.0,0.0,0.0,0.0,0.0,0.0,0.0,0.0,0.0,0.0,0.0,0.0,0.0,0.0,0.0,0.0,0.0,0.0,0.0,0.0,0.0,0.0,0.0,-3.6895,-4.0053,0.0,-3.8991,-3.9397,-3.9662,-3.9229,-4.077,-4.202,-4.2513,-4.378,-4.4732,-4.528,-4.6413,-4.7085,-4.7309,-4.7241,-4.7712,-4.8644,-4.7881,-4.7797,-4.8308,-4.7516,-4.6926,-4.6476,-4.5212,-4.4678,-4.449,-4.2761,-4.1203,-3.9718,-3.8432,-3.7466,-3.6788,-3.634,-3.6518,-3.6922,0.0,0.0,0.0,0.0,0.0,0.0,0.0,0.0,-3.2863,-3.4184,-3.5909,-3.769,-3.9541,-4.2533,-4.4596,-4.5048,-4.5737,-4.436,-4.0219,-3.858,-3.5976,-3.2023,-3.1559,-3.3065,-3.653,-4.0216,-4.359,-4.6501,-4.9463,-5.135,-5.2294,-5.263,-5.3493,-5.4637,-5.277,-5.2332,-5.2689,-4.8615,-4.5002,-4.1865,-3.9755,-3.7232,-3.4612,0.0,0.0,0.0,0.0,0.0,0.0,0.0,0.0,0.0,0.0,0.0,0.0,0.0,0.0,0.0,0.0,0.0,0.0,0.0,0.0,0.0,0.0,0.0,0.0,0.0,0.0,0.0,0.0,0.0,0.0,0.0,0.0,0.0,0.0,-3.6576,-3.983,-4.0659,-4.4003,-4.5549,-4.3694,-4.3891,-4.3947,-4.3554,-4.524,-4.6279,-4.6279,-4.7263,-4.7825,-4.7825,-4.8021,-4.8134,-4.8134,-4.7712,-4.7937,-4.8673,-4.8106,-4.8021,-4.8336,-4.7522,-4.6841,-4.6223,-4.538,-4.4902,-4.4678,-4.4059,-4.3076,-4.184,-4.08,-3.976,-3.8833,-3.8833,-3.8833,-3.8805,0.0,0.0,0.0,0.0,0.0,0.0,0.0,-3.174,-3.2905,-3.4418,-3.6841,-3.9581,-4.261,-4.4762,-4.6948,-4.9368,-4.6637,-4.3205,-3.9474,-3.7975,-3.5035,-3.0122,-3.2614,-3.566,-3.9046,-4.2445,-4.5674,-4.8593,-5.0945,-5.2595,-5.3682,-5.3557,-5.3426,-5.349,-5.2798,-5.2286,-5.1729,-5.0514,-4.8649,-4.6118,-4.237,-3.9978,-3.8331,0.0,0.0,0.0,0.0,0.0,0.0,0.0,0.0,0.0,0.0,0.0,0.0,0.0,0.0,0.0,0.0,0.0,0.0,0.0,0.0,0.0,0.0,0.0,0.0,0.0,0.0,0.0,0.0,0.0,0.0,0.0,0.0,0.0,-3.306,-3.9201,-4.3413,-4.2964,-4.72,-4.945,-4.76,-4.8448,-4.9122,-4.9066,-4.9707,-5.0125,-5.0069,-4.9398,-4.9009,-4.8981,-4.8364,-4.8055,-4.8055,-4.8083,-4.8134,-4.8083,-4.7516,-4.7207,-4.7178,-4.5914,-4.5043,-4.4481,-4.4453,-4.4116,-4.361,-4.4172,-4.4397,-4.42,-4.2402,-4.1306,-4.0772,-4.0772,-4.0716,-4.0603,0.0,0.0,0.0,0.0,0.0,0.0,0.0,-3.1478,-3.2533,-3.4733,-3.7242,-4.0129,-4.3602,-4.6085,-4.79,-4.8877,-4.6559,-4.3514,-3.9736,-3.6862,-3.4357,-3.2067,-3.4669,-3.795,-4.1825,-4.5464,-4.8541,-5.1022,-5.2505,-5.3503,-5.4078,-5.3988,-5.4472,-5.5273,-5.3842,-5.3869,-5.4943,-5.3237,-5.2359,-5.1759,-4.6778,-4.3287,-4.0864,0.0,0.0,0.0,0.0,0.0,0.0,0.0,0.0,0.0,0.0,0.0,0.0,0.0,0.0,0.0,0.0,0.0,0.0,0.0,0.0,0.0,0.0,0.0,0.0,0.0,0.0,0.0,0.0,0.0,0.0,0.0,-3.6321,-3.9175,-3.9858,-4.296,-4.6342,-4.9567,-5.1927,-5.2939,-5.1983,-5.2208,-5.2012,-5.1112,-5.204,-5.2319,-5.1337,-4.9951,-4.8906,-4.8541,-4.7434,-4.7073,-4.7517,-4.7903,-4.8308,-4.8729,-4.7712,-4.7207,-4.7178,-4.6392,-4.5942,-4.5745,-4.5268,-4.4987,-4.479,-4.4537,-4.4144,-4.375,-4.3666,-4.2992,-4.2064,-4.2064,-4.1474,-4.0547,0.0,0.0,0.0,0.0,0.0,0.0,0.0,-3.1371,-3.2489,-3.5217,-3.7797,-4.0635,-4.4022,-4.6509,-4.8047,-4.8468,-4.6193,-4.2938,-3.8726,-3.5372,-3.3974,-3.4926,-3.7874,-4.1203,-4.4888,-4.8317,-5.0887,-5.2699,-5.3503,-5.4143,-5.4576,-5.4314,-5.4564,-5.5274,-5.4223,-5.4414,-5.5491,-5.4591,-5.4494,-5.46,-5.1401,-4.8381,-4.5481,-4.3013,-4.1295,-3.9986,-3.8036,-3.7419,-3.7327,-3.5332,0.0,0.0,0.0,0.0,0.0,0.0,0.0,0.0,0.0,0.0,0.0,0.0,0.0,0.0,0.0,0.0,0.0,0.0,0.0,0.0,0.0,0.0,0.0,0.0,-3.9707,-4.367,-4.6413,-4.7866,-5.0015,-5.3809,-5.5159,-5.5721,-5.5608,-5.5131,-5.44,-5.3416,-5.3782,-5.3501,-5.2236,-5.0731,-4.9403,-4.8332,-4.7767,-4.7434,-4.7312,-4.8355,-4.8808,-4.8588,-4.7937,-4.7178,-4.6392,-4.6055,-4.5605,-4.5127,-4.5268,-4.5043,-4.4565,-4.4734,-4.4425,-4.3891,0.0,0.0,0.0,0.0,-4.1334,-4.0603,0.0,0.0,0.0,0.0,0.0,0.0,0.0,-3.1315,-3.2567,-3.5611,-3.8255,-4.1,-4.3932,-4.613,-4.7563,-4.7893,-4.5173,-4.1551,-3.708,-3.4006,-3.4237,-3.8385,-4.1665,-4.4895,-4.804,-5.0924,-5.2907,-5.3878,-5.4183,-5.4576,-5.5099,-5.455,-5.4314,-5.4314,-5.4314,-5.4484,-5.4741,-5.5248,-5.5616,-5.5823,-5.5679,-5.385,-5.0878,-4.696,-4.5438,-4.5043,-4.232,-4.0566,-3.9355,-3.8562,0.0,0.0,0.0,0.0,0.0,0.0,0.0,0.0,0.0,0.0,0.0,0.0,0.0,0.0,0.0,0.0,0.0,0.0,0.0,0.0,0.0,0.0,0.0,0.0,-4.2719,-4.6758,-5.2156,-5.3099,-5.4065,-5.622,-5.7097,-5.7688,-5.8137,-5.7182,-5.6226,-5.5552,-5.5074,-5.4175,-5.277,-5.162,0.0,0.0,0.0,-4.8443,-4.7422,-4.9022,-4.9286,-4.8331,-4.8134,-4.715,-4.5501,-4.538,-4.4734,-4.375,-4.479,-4.4593,-4.3666,-4.479,-4.4902,-4.434,-4.375,-4.2767,-4.1643,-4.094,-4.0688,-4.0688,0.0,0.0,0.0,0.0,0.0,0.0,0.0,-3.1035,-3.2432,-3.502,-3.7777,-4.0463,-4.2999,-4.4661,-4.5809,-4.6308,-4.2102,-3.8514,-3.6316,-3.4782,-3.6551,-4.2322,-4.5042,-4.7736,-5.0457,-5.3153,-5.464,-5.4809,-5.4875,-5.4994,-5.5099,-5.4994,-5.4942,-5.4942,-5.4942,-5.5564,-5.6601,-5.6736,-5.7414,-5.8376,-5.7349,-5.5401,-5.2966,-5.1066,-4.95,-4.8147,-4.703,-4.5823,-4.4511,-4.2564,-4.1306,-4.035,-3.8956,-3.697,0.0,0.0,0.0,0.0,0.0,0.0,0.0,0.0,0.0,0.0,0.0,0.0,0.0,0.0,0.0,0.0,0.0,0.0,0.0,-4.2167,-4.7646,-5.2256,-5.3896,-5.5856,-5.7148,-5.7206,-5.7744,-5.7969,-5.7603,-5.735,-5.6732,-5.558,-5.5861,-5.5074,-5.2826,-5.2101,-5.0712,-4.8387,-4.8409,-4.8354,-4.8138,-4.8355,-4.8864,-4.9647,-4.8106,0.0,-4.6813,-4.5802,-4.5136,-4.4959,-4.4706,-4.4453,-4.4256,-4.4481,-4.4537,-4.434,-4.375,-4.3048,-4.2261,-4.1109,-4.0688,-4.076,0.0,0.0,0.0,0.0,0.0,0.0,0.0,-3.111,-3.2145,-3.4,-3.608,-3.8367,-4.0924,-4.1487,-4.1975,-4.2881,-3.9383,-3.6983,-3.6745,-3.7882,-4.0765,-4.5795,-4.9183,-5.1573,-5.2915,-5.4998,-5.5721,-5.5099,-5.5099,-5.5099,-5.5099,-5.5099,-5.5456,-5.6053,-5.6053,-5.6822,-5.8126,-5.8427,-5.8787,-5.9142,-5.8487,-5.7349,-5.5773,-5.3862,-5.2403,-5.1236,-4.9939,-4.8294,-4.6556,-4.5072,-4.3646,-4.2285,-4.1425,-3.9946,-3.8184,0.0,0.0,0.0,0.0,0.0,0.0,0.0,0.0,0.0,0.0,0.0,0.0,0.0,0.0,-3.492,-3.5191,0.0,-4.2938,-4.5315,-4.9956,-5.381,-5.5624,-5.7543,-5.8494,-5.7879,-5.839,-5.8643,-5.8334,-5.7744,-5.7126,-5.6507,-5.5861,-5.4962,-5.3726,-5.2268,-5.0597,-4.8802,-4.868,-4.8375,-4.7834,-4.8606,-4.9202,-4.9483,-4.8555,-4.7797,-4.7178,-4.6251,-4.5633,-4.5248,-4.5015,-4.4706,-4.4425,-4.4425,-4.4425,-4.4369,-4.4088,-4.3385,-4.2458,-4.1502,-4.0969,-4.0745,0.0,0.0,0.0,0.0,0.0,0.0,0.0,0.0,-3.2044,-3.3361,-3.4687,-3.6397,-3.8671,-3.8311,-3.8007,-3.8282,-3.6893,-3.6511,-3.7624,-4.1009,-4.4762,-4.8852,-5.2739,-5.4826,-5.494,-5.6371,-5.6585,-5.5432,-5.5498,-5.5472,-5.5472,-5.5603,-5.6226,-5.7184,-5.7317,-5.8073,-5.9303,-5.9662,-5.9662,-5.9367,-5.9162,-5.8704,-5.7879,-5.5718,-5.4416,-5.3445,-5.1815,-4.9342,-4.6813,-4.6701,-4.5001,-4.299,-4.3351,-4.2675,-4.1069,-3.7806,-3.6895,0.0,0.0,0.0,0.0,0.0,0.0,0.0,0.0,-3.2934,-3.3729,-3.526,-3.6645,-3.8004,-3.9311,-4.1712,-4.4652,-4.8059,-5.1273,-5.4129,-5.6424,-5.7958,-5.8587,-5.7856,-5.8531,-5.9036,-5.9036,-5.8025,-5.7238,-5.6873,-5.5664,-5.4681,-5.4091,-5.2377,-5.081,-4.9406,-4.9274,-4.8686,-4.766,-4.8938,-4.9426,-4.8981,-4.8869,-4.8308,-4.7375,-4.6616,-4.5998,-4.5493,-4.522,-4.4874,-4.4397,-4.4583,-4.4676,-4.4676,-4.4879,-4.4095,-4.2754,-4.2068,-4.1334,-4.073,0.0,0.0,0.0,0.0,0.0,0.0,0.0,0.0,0.0,-3.4101,-3.5339,-3.635,-3.7164,-3.7023,-3.5626,-3.2554,-3.475,-3.6933,-3.8378,-4.1746,-4.607,-5.1547,-5.4039,-5.5447,-5.5676,-5.7158,-5.7416,-5.6432,-5.6758,-5.6888,-5.6888,-5.752,-5.7883,-5.803,-5.8545,-5.9187,-5.9883,-5.9413,-5.9523,-5.9928,-5.9388,-5.8525,-5.7407,-5.65,-5.5157,-5.3557,-5.277,-4.9511,-4.5725,-4.7375,-4.5894,-4.3686,-4.5388,-4.4696,-4.2765,-4.036,-3.7907,-3.5181,-3.1663,-2.9865,-2.9336,-3.1145,-3.2071,-3.343,0.0,-3.8318,-3.8919,-3.9599,-4.1481,-4.2918,-4.2605,-4.5762,-4.8725,-4.9663,-5.2875,-5.5072,-5.4856,-5.6396,-5.7154,-5.5973,-5.735,-5.839,-5.839,-5.7772,-5.6704,-5.5018,-5.5721,-5.5018,-5.2264,-5.2911,-5.2321,-4.9964,-4.9904,-4.9567,-4.8845,-4.8476,-4.8504,-4.8981,-4.8448,-4.8111,-4.7993,-4.6813,-4.6251,-4.6139,-4.5015,-4.4481,-4.4443,-4.531,-4.5644,-4.5734,-4.6579,-4.5608,-4.3618,-4.2814,-4.1727,-4.0816,0.0,0.0,0.0,0.0,0.0,0.0,0.0,0.0,0.0,0.0,-3.3876,-3.4602,-3.5921,-3.5106,-3.3348,-3.0658,-3.2572,-3.5377,-3.8782,-4.2985,-4.7606,-5.2568,-5.5872,-5.7181,-5.6314,-5.7612,-5.7874,-5.6888,-5.6823,-5.6888,-5.7082,-5.7418,-5.8102,-5.9177,-5.8871,-5.9687,-6.1082,-5.9912,-5.9687,-6.0048,-5.9064,-5.794,-5.6676,-5.5327,-5.277,-4.9792,-4.8574,-4.607,0.0,0.0,-4.2328,-4.2328,-4.3732,-4.3192,-4.1781,-4.0087,-3.7632,-3.5023,-3.2973,-3.1937,-3.1888,-3.3822,-3.5521,-3.7429,-4.0095,-4.1465,-4.2512,-4.373,-4.512,-4.6286,-4.6502,-4.8444,-5.0238,-5.1148,-5.3767,-5.5634,-5.5325,-5.5982,-5.6129,-5.5102,-5.4392,-5.4469,-5.5528,-5.5712,-5.5154,-5.3633,-5.4004,-5.3866,-5.2939,-5.2349,-5.1731,-5.1056,-4.9988,-4.9314,-4.8981,-4.8392,-4.8195,-4.8448,-4.7881,-4.76,-4.7544,-4.6307,-4.5549,-4.5155,-4.465,-4.4723,-4.5264,-4.5644,-4.6137,-4.6637,-4.6569,-4.5769,-4.4558,-4.3647,-4.2553,-4.1506,0.0,0.0,0.0,0.0,0.0,0.0,0.0,0.0,0.0,0.0,-3.3274,-3.3566,-3.4838,-3.3445,-3.173,-3.0003,-3.1274,-3.4087,-3.8706,-4.3202,-4.787,-5.2882,-5.6269,-5.778,-5.7227,-5.8174,-5.8419,-5.7889,-5.7596,-5.7806,-5.8427,-5.8072,-5.8889,-6.0494,-5.9663,-6.0292,-6.1931,-6.0606,-6.0046,-6.002,-5.8812,-5.7238,-5.5412,-5.322,-4.982,-4.6006,-4.4821,-4.2592,0.0,0.0,-3.8574,-3.9713,-4.0526,-4.0482,-3.9809,-3.8255,-3.5736,-3.3434,-3.3357,-3.3567,-3.4425,-3.6902,-3.9321,-4.1571,-4.3466,-4.4547,-4.5553,-4.7039,-4.7705,-4.8281,-4.9076,-4.9791,-5.0596,-5.1745,-5.3882,-5.5367,-5.5264,-5.5137,-5.455,-5.3275,-5.096,-4.9664,-5.0354,-5.2266,-5.3216,-5.2459,-5.2687,-5.2967,-5.3135,-5.1871,-5.1253,-5.1425,-4.9851,-4.893,-4.8878,-4.8392,-4.8134,-4.8134,-4.7956,-4.7794,-4.7518,-4.6529,-4.5616,-4.4787,-4.4787,-4.5018,-4.5446,-4.5958,-4.6461,-4.6903,-4.6857,-4.6202,-4.515,-4.4501,-4.3448,-4.2316,0.0,0.0,0.0,0.0,0.0,0.0,0.0,0.0,0.0,0.0,0.0,0.0,0.0,-3.2499,-3.1119,-3.0085,-3.1299,-3.3836,-3.7969,-4.1605,-4.6367,-5.2639,-5.4318,-5.6185,-5.8376,-5.8891,-5.9355,-5.9924,-5.9658,-6.0336,-6.1823,-6.058,-6.0705,-6.191,-6.126,-6.136,-6.1987,-6.134,-6.0694,-6.002,-5.8812,-5.6479,-5.3416,-5.0354,-4.6869,-4.3564,-4.3185,0.0,0.0,0.0,-3.5928,-3.5831,-3.6123,-3.6849,-3.7161,-3.4986,-3.182,-2.9528,-3.1974,-3.3456,-3.5385,-3.9961,-4.2954,-4.5315,-4.7582,-4.8114,-4.8315,-4.9212,-4.898,-4.8784,-4.9385,-4.9496,-4.9912,-5.1137,-5.2838,-5.4002,-5.3806,-5.3257,-5.1985,-4.9633,-4.7043,-4.4595,-4.2295,-4.7315,-5.0906,-5.1404,-5.2491,-5.2771,-5.1899,-5.1787,-5.1369,-5.0485,-4.9469,-4.8878,-4.8618,-4.8262,-4.8134,-4.8134,-4.91,-4.9165,-4.8528,-4.819,-4.72,-4.5734,-4.5734,-4.5264,-4.4583,-4.6403,-4.6758,-4.6329,-4.8119,-4.7349,-4.5284,-4.5275,-4.4355,-4.3041,0.0,0.0,0.0,0.0,0.0,0.0,0.0,0.0,0.0,0.0,0.0,0.0,0.0,0.0,0.0,0.0,-3.0139,-3.1521,-3.4609,-3.9162,-4.3226,-4.6717,-5.1719,-5.4807,-5.5469,-5.6723,-5.7799,-5.8696,-5.8348,-5.8579,-5.936,-5.9335,-5.98,-6.0589,-6.0202,-6.0643,-6.1588,-5.9887,-5.8692,-5.7836,-5.5999,-5.3443,-5.029,-4.6245,-4.2873,-3.9787,0.0,0.0,0.0,0.0,-3.1684,-3.2599,-3.3569,-3.3624,-3.3037,-3.1226,-3.1226,-3.2272,-3.4471,-3.7277,-4.0594,-4.4722,-4.7081,-4.8919,-5.0976,-5.1174,-5.0833,-5.047,-4.815,-4.6196,-4.5969,-4.5223,-4.5281,-4.7425,-4.9418,-5.1132,-5.2575,-5.1192,-4.9719,-4.8643,-4.6247,-4.4357,-4.3642,-4.5353,-4.6806,-4.7551,-4.9414,-5.1175,-5.2779,-5.2516,-5.207,-5.1547,-5.0644,-4.9686,-4.8618,-4.8056,-4.8258,-4.91,-4.9186,-4.8932,-4.8326,-4.7732,-4.7225,-4.6681,-4.6237,-4.6469,-4.7203,-4.7346,-4.7814,-4.8388,-4.8146,-4.741,-4.6454,-4.5556,-4.4909,-4.4396,0.0,0.0,0.0,0.0,0.0,0.0,0.0,0.0,0.0,0.0,0.0,0.0,0.0,0.0,0.0,0.0,0.0,-3.0849,-3.3361,-3.6618,-3.9527,-4.199,-4.6992,-4.9795,-5.0022,-5.1991,-5.3378,-5.4156,-5.4649,-5.5329,-5.6064,-5.6343,-5.7045,-5.8016,-5.7445,-5.7909,-5.9015,-5.7024,-5.5594,-5.4456,-5.1957,-4.9085,-4.5934,-4.1819,-3.8779,0.0,0.0,0.0,0.0,0.0,-2.9435,-3.0574,-3.0891,-3.0521,-3.0052,-3.0147,-3.179,-3.4301,-3.7751,-4.1442,-4.5208,-4.9173,-5.1001,-5.2058,-5.2755,-5.2257,-5.1156,-4.9547,-4.6678,-4.4142,-4.3081,-4.1835,-4.1815,-4.4367,-4.624,-4.8381,-5.1376,-5.0216,-4.8896,-4.8586,-4.6192,-4.4413,-4.4153,-4.4192,-4.454,-4.543,-4.7469,-4.964,-5.2001,-5.1952,-5.1823,-5.1937,-5.1539,-5.0526,-4.885,-4.8742,-4.9182,-5.0141,-4.9779,-4.9438,-4.9157,-4.8473,-4.7474,-4.6314,-4.6515,-4.6671,-4.6707,-4.7018,-4.7707,-4.8417,-4.7635,-4.7038,-4.6466,-4.5622,-4.5241,-4.5061,0.0,0.0,0.0,0.0,0.0,0.0,0.0,0.0,0.0,0.0,0.0,0.0,0.0,0.0,0.0,0.0,0.0,0.0,-3.3898,-3.4191,-3.554,-3.8506,-4.0514,-4.1894,-4.2653,-4.5196,-4.6697,-4.7049,-4.8968,-5.0651,-5.2087,-5.166,-5.2457,-5.4147,-5.298,-5.3158,-5.4276,-5.2713,-5.1318,-4.9927,-4.682,-4.3761,-4.0665,-3.7209,0.0,0.0,0.0,0.0,-2.9081,-2.8761,-2.9301,-2.9886,-2.8497,-2.8138,-2.8761,-3.1836,-3.364,-3.5919,-4.1668,-4.5708,-4.9224,-5.324,-5.4639,-5.4627,-5.306,-5.1463,-4.9481,-4.6675,-4.4334,-4.2285,-4.0494,-3.9212,-3.9317,-4.1964,-4.3603,-4.6017,-5.0244,-5.0209,-4.9596,-4.9243,-4.6884,-4.4846,-4.3883,-4.4124,-4.463,-4.5305,-4.694,-4.8638,-5.0177,-5.0497,-5.0995,-5.1718,-5.2113,-5.135,-4.9354,-5.0067,-5.0734,-5.1236,-5.0721,-5.0672,-5.0983,-5.0247,-4.8119,-4.5066,-4.6803,-4.6094,-4.3791,-4.5808,-4.6643,-4.6652,-4.678,-4.6307,-4.5588,-4.5494,-4.5352,-4.5073,0.0,0.0,0.0,0.0,0.0,0.0,0.0,0.0,0.0,0.0,0.0,0.0,0.0,0.0,0.0,0.0,0.0,0.0,-3.0837,-3.3326,-3.4537,-3.3972,-3.8288,-4.0868,-4.113,-4.2789,-4.4165,-4.5242,-4.478,-4.479,-4.5233,-4.5582,-4.5838,-4.5883,-4.6475,-4.6852,-4.698,-4.6177,-4.4908,-4.3333,0.0,-3.9829,-3.7219,0.0,0.0,0.0,0.0,-2.9274,-2.9429,-2.9113,-3.0373,-3.2183,-3.2806,-3.3801,-3.4824,-3.5627,-3.9479,-4.3936,-4.5658,-5.0057,-5.4459,-5.5515,-5.5451,-5.4736,-5.3085,-5.0768,-4.7861,-4.3966,-3.9769,-3.6047,-3.3564,-3.2782,-3.4173,-3.9069,-4.2286,-4.5601,-4.9666,-5.0872,-5.0806,-4.9365,-4.955,-4.9437,-4.8652,-4.9795,-5.004,-4.8628,-4.9204,-5.119,-5.4782,-5.4149,-5.3672,-5.3634,-5.2858,-5.1672,-5.0058,-5.0674,-5.1165,-5.1502,-5.1058,-5.0929,-5.0983,-5.0247,-4.9433,-4.8587,-4.8553,-4.8426,-4.8233,-4.8286,-4.8498,-4.8715,-4.776,-4.7157,-4.6653,-4.5653,-4.5241,-4.5167,0.0,0.0,0.0,0.0,0.0,0.0,0.0,0.0,0.0,0.0,0.0,0.0,0.0,0.0,0.0,0.0,0.0,0.0,0.0,-3.2638,-3.3005,-3.1512,-3.4815,-3.6429,-3.5968,-3.7656,-3.8806,-3.9303,-3.9721,-3.9929,-3.9995,-4.0969,-4.1393,-4.137,-4.1816,-4.211,-4.2146,-4.0937,0.0,0.0,0.0,0.0,0.0,0.0,0.0,0.0,-2.9526,-2.9476,-3.0242,-3.174,-3.3062,-3.454,-3.7299,-3.8853,-4.0157,-4.272,-4.6137,-4.9614,-5.1741,-5.4906,-5.7589,-5.7608,-5.6409,-5.4177,-5.0492,-4.7945,-4.4837,-3.9408,-3.5653,-3.2573,-3.01,-2.951,-3.12,-3.6776,-4.0407,-4.419,-4.8943,-5.1063,-5.1754,-5.0876,-5.1576,-5.2133,-5.2069,-5.303,-5.3391,-5.2829,-5.1578,-5.2079,-5.4986,-5.4622,-5.4283,-5.4296,-5.3989,-5.3131,-5.1666,-5.1796,-5.1772,-5.1666,-5.1142,-5.0736,-5.05,-4.997,-4.9196,-4.8284,-4.8726,-4.8647,-4.8253,-4.8411,-4.8779,-4.9174,-4.7788,-4.7177,-4.6906,-4.5871,-4.5463,-4.5463,0.0,0.0,0.0,0.0,0.0,0.0,0.0,0.0,0.0,0.0,0.0,0.0,0.0,0.0,0.0,0.0,0.0,0.0,0.0,0.0,0.0,-3.0749,-3.1544,-3.1462,-3.027,-3.2172,-3.2955,-3.2495,-3.4638,-3.5707,-3.5738,-3.6901,0.0,0.0,0.0,0.0,0.0,0.0,0.0,0.0,0.0,0.0,0.0,0.0,0.0,0.0,-2.9523,-2.9954,-3.1087,-3.5178,-3.6501,-3.7198,-4.1803,-4.373,-4.5327,-5.0585,-5.2687,-5.4078,-5.7862,-5.9301,-5.9671,-5.9233,-5.7081,-5.3463,-4.7442,-4.4526,-4.1212,-3.4657,-3.2191,-3.0662,-2.8871,-2.8487,-3.0167,-3.5583,-3.8989,-4.2797,-4.8032,-5.0839,-5.2462,-5.2714,-5.312,-5.3781,-5.4797,-5.4877,-5.5454,-5.68,-5.4122,-5.2808,-5.3822,-5.391,-5.4032,-5.4237,-5.4882,-5.467,-5.3452,-5.2887,-5.2282,-5.1758,-5.0932,-5.0331,-4.9892,-4.9693,-4.8493,-4.6708,-4.8341,-4.813,-4.6677,-4.7714,-4.8509,-4.8889,-4.7593,-4.7024,-4.6866,-4.6166,-4.585,-4.5823,0.0,0.0,0.0,0.0,0.0,0.0,0.0,0.0,0.0,0.0,-3.425,-3.4133,0.0,0.0,0.0,0.0,0.0,0.0,0.0,0.0,0.0,0.0,-3.2287,-3.2317,-3.1581,-3.1886,-3.2203,-3.2428,-3.1821,-3.156,-3.1618,-3.1812,-3.166,0.0,0.0,0.0,0.0,0.0,0.0,0.0,0.0,0.0,0.0,0.0,0.0,0.0,-2.9397,-2.9766,-3.0979,-3.6264,-3.9002,-4.0994,-4.5707,-4.9242,-5.1945,-5.3875,-5.6788,-5.9433,-5.9254,-6.0916,-6.2045,-5.936,-5.6774,-5.3553,-4.8577,-4.3762,-3.8946,-3.388,-3.0543,-2.8487,-2.8244,-2.9223,-3.1864,-3.7377,-4.0694,-4.3559,-4.6395,-5.02,-5.2656,-5.2633,-5.405,-5.5748,-5.7669,-5.6966,-5.6853,-5.7965,-5.7479,-5.7213,-5.7398,-5.6333,-5.5176,-5.3947,-5.4003,-5.3997,-5.3746,-5.2491,-5.1894,-5.1935,-5.0479,-4.9859,-4.9892,-4.9693,-4.9456,-4.9276,-4.96,-4.9529,-4.9276,-4.9474,-4.9647,-4.9679,-4.8857,-4.8193,-4.7624,-4.6711,-4.6118,-4.5787,0.0,0.0,0.0,0.0,0.0,0.0,0.0,-3.5081,-3.4906,-3.4939,-3.4667,-3.4423,-3.4126,-3.4101,-3.4101,0.0,0.0,0.0,0.0,0.0,0.0,0.0,0.0,0.0,-3.2841,-3.2667,-3.2698,-3.2877,0.0,-3.1787,-3.1787,-3.1587,-3.1327,-3.1056,-3.1012,-3.1043,-3.1014,-3.0748,-3.0478,-3.0176,-3.0388,-2.9993,0.0,0.0,0.0,0.0,0.0,-3.0375,-3.1245,-3.5598,-3.8602,-4.164,-4.7886,-5.1802,-5.4393,-5.5603,-5.8212,-6.0676,-6.0518,-6.1898,-6.2792,-6.0198,-5.6795,-5.2286,-4.5549,-4.0723,-3.5979,-3.0174,-2.7845,-2.6836,-2.6749,-2.772,-3.0322,-3.5848,-3.9165,-4.245,-4.6624,-5.0057,-5.2473,-5.3256,-5.4635,-5.5876,-5.6617,-5.6409,-5.6277,-5.6435,-5.645,-5.6791,-5.7706,-5.641,-5.5291,-5.4498,-5.4151,-5.3962,-5.3962,-5.2576,-5.1893,-5.1986,-5.0272,-4.9573,-4.9701,-4.9412,-4.9452,-4.9773,-4.9773,-4.9173,-4.8349,-4.9458,-4.9221,-4.8286,-4.8741,-4.8699,-4.832,-4.7511,-4.6855,-4.6292,0.0,0.0,0.0,0.0,0.0,0.0,0.0,-3.5291,-3.5175,-3.5291,-3.5128,-3.4787,-3.4325,-3.4226,-3.4151,0.0,0.0,0.0,0.0,0.0,0.0,0.0,0.0,0.0,0.0,0.0,0.0,-3.3309,-3.3069,0.0,0.0,0.0,0.0,0.0,-3.1908,-3.168,-3.1652,-3.1131,-3.0837,0.0,0.0,-3.045,0.0,0.0,0.0,0.0,0.0,-3.1009,-3.1584,-3.4595,-3.7251,-4.0384,-4.6874,-5.1069,-5.3912,-5.5664,-5.7888,-6.0164,-6.1584,-6.2657,-6.288,-6.088,-5.6607,-5.0859,-4.2901,-3.8033,-3.3466,-2.7399,-2.6019,-2.5959,-2.619,-2.6743,-2.887,-3.4172,-3.6593,-3.9971,-4.6065,-4.8848,-5.1152,-5.3635,-5.487,-5.5648,-5.586,-5.5656,-5.5425,-5.5256,-5.4977,-5.536,-5.6681,-5.567,-5.5007,-5.4881,-5.4387,-5.4103,-5.4103,-5.287,-5.2134,-5.1903,-5.0276,-4.9537,-4.9501,-4.9159,-4.9241,-4.9613,-4.9613,-4.8488,-4.6872,-4.9016,-4.8615,-4.688,-4.8459,-4.9015,-4.8825,-4.825,-4.7618,-4.6987,0.0,0.0,0.0,0.0,0.0,0.0,0.0,-3.536,-3.5291,-3.5291,-3.5268,-3.5152,-3.4859,-3.4594,-3.4374,0.0,0.0,0.0,0.0,0.0,0.0,0.0,0.0,0.0,0.0,0.0,0.0,-3.3309,-3.3282,0.0,0.0,0.0,0.0,0.0,0.0,-3.2299,-3.2299,-3.2244,0.0,0.0,0.0,0.0,0.0,0.0,0.0,0.0,0.0,-3.1073,-3.1839,-3.4334,-3.589,-3.7307,-4.007,-4.488,-5.01,-5.3002,-5.5611,-5.8427,-6.2112,-6.3238,-6.273,-6.0434,-5.5835,-5.0223,-4.4152,-3.7922,-3.2462,-2.903,-2.703,-2.6439,-2.8191,-2.8565,-3.0075,-3.4639,-3.4218,-3.5687,-4.2595,-4.4893,-4.7845,-5.3224,-5.4589,-5.607,-5.8624,-5.6388,-5.5395,-5.6846,-5.5803,-5.5109,-5.526,-5.5165,-5.4786,-5.4198,-5.4134,-5.4103,-5.4103,-5.3376,-5.2597,-5.1696,-5.0694,-4.9883,-4.9331,-4.9118,-4.9241,-4.9613,-4.9613,-4.8488,-4.6872,-4.9016,-4.8615,-4.6911,-4.8993,-4.9457,-4.8889,-4.8631,-4.8198,-4.765,0.0,0.0,0.0,0.0,0.0,0.0,-3.5222,-3.5566,-3.5723,-3.545,-3.5753,-3.5783,-3.5208,-3.4883,-3.4618,-3.4374,0.0,0.0,0.0,0.0,0.0,0.0,0.0,0.0,0.0,0.0,-3.3873,-3.3771,-3.3617,0.0,0.0,0.0,0.0,0.0,0.0,-3.2382,-3.2382,-3.2382,0.0,0.0,0.0,0.0,0.0,0.0,0.0,0.0,0.0,0.0,-3.1686,-3.305,-3.3798,-3.4189,-3.4191,-3.6682,-4.0674,-4.6143,-5.0498,-5.4222,-5.7486,-6.0328,-6.1782,-5.9243,-5.4791,-4.9266,-4.2334,-3.6533,-3.1515,-2.7738,-2.641,-2.6157,-2.6914,-2.7054,-2.8281,-3.2015,-3.1651,-3.3566,-4.1201,-4.3136,-4.6204,-5.2609,-5.4369,-5.5581,-5.698,-5.5658,-5.4808,-5.5005,-5.3819,-5.3634,-5.5039,-5.4735,-5.4387,-5.4103,-5.4103,-5.3913,-5.3502,-5.2681,-5.1905,-5.1089,-4.9998,-4.9367,-4.9118,-4.9037,-4.9128,-4.9452,-4.9573,-4.7743,-4.5035,-4.8482,-4.7839,-4.5135,-4.8545,-4.9742,-4.9521,-4.9442,-4.9,-4.8345,0.0,0.0,0.0,0.0,0.0,-3.503,-3.5381,-3.5671,-3.5842,-3.5786,-3.6001,-3.6001,-3.5427,-3.5105,-3.491,-3.4914,-3.4626,0.0,0.0,0.0,0.0,0.0,0.0,0.0,0.0,0.0,-3.4198,-3.4424,-3.4021,-3.3995,0.0,0.0,-3.3356,-3.3193,0.0,0.0,0.0,0.0,0.0,0.0,0.0,0.0,0.0,0.0,0.0,0.0,0.0,0.0,0.0,0.0,0.0,-3.1805,-3.05,-3.0952,-3.3156,-3.9547,-4.502,-4.9702,-5.2907,-5.6835,-5.9501,-5.7377,-5.2885,-4.7221,-4.0507,-3.5047,-3.0338,-2.6635,-2.5907,-2.5907,-2.5907,-2.5907,-2.686,-2.9726,-2.9929,-3.2108,-3.8953,-4.0843,-4.3778,-4.9958,-5.201,-5.3521,-5.5083,-5.5162,-5.4758,-5.3723,-5.2852,-5.3109,-5.4723,-5.4356,-5.4103,-5.4103,-5.3839,-5.3481,-5.3007,-5.2073,-5.1215,-5.0475,-4.9688,-4.8924,-4.8326,-4.8728,-4.8789,-4.8618,-4.9264,-4.7561,-4.4655,-4.8372,-4.7737,-4.4804,-4.8482,-4.9892,-4.9892,-4.9892,-4.9615,-4.9071,0.0,0.0,0.0,0.0,0.0,0.0,-3.6046,-3.5571,-3.5418,-3.6272,-3.5853,-3.5508,-3.5508,-3.5152,-3.5181,-3.5852,-3.5444,0.0,0.0,0.0,0.0,0.0,0.0,0.0,0.0,0.0,-3.4457,-3.5195,-3.4457,-3.4659,-3.5769,-3.5097,-3.4455,-3.3907,0.0,0.0,0.0,0.0,0.0,0.0,0.0,0.0,0.0,0.0,0.0,0.0,0.0,0.0,0.0,0.0,0.0,0.0,0.0,-2.8972,-2.9371,-3.4168,-3.9768,-4.5281,-4.9592,-5.3191,-5.5592,-5.4868,-4.9799,-4.381,-3.9326,-3.375,-2.8829,-2.6383,-2.5907,-2.5907,-2.5907,-2.5907,-2.6549,-2.8504,-2.9317,-3.1102,-3.5174,-3.7375,-4.0163,-4.4458,-4.6624,-4.9439,-5.3701,-5.5367,-5.5531,-5.3915,-5.3974,-5.4103,-5.4103,-5.4103,-5.4103,-5.4103,-5.3195,-5.2722,-5.269,-5.1851,-5.0923,-4.9998,-4.9998,-4.8821,-4.6665,-4.8019,-4.8018,-4.7012,-4.8587,-4.8199,-4.6545,-4.8937,-4.8615,-4.6872,-4.9056,-4.9892,-4.9892,-4.9892,-4.9892,-4.9765,0.0,0.0,0.0,0.0,0.0,0.0,0.0,-3.5551,-3.5675,-3.5552,-3.587,-3.5954,-3.5542,-3.5291,-3.5642,-3.6819,-3.5865,0.0,0.0,0.0,0.0,0.0,0.0,0.0,0.0,0.0,-3.4968,-3.5195,-3.4457,-3.4277,-3.4652,-3.4727,-3.4415,-3.3789,-3.4494,-3.4025,0.0,0.0,0.0,0.0,0.0,0.0,-3.1794,0.0,0.0,0.0,0.0,0.0,0.0,0.0,0.0,0.0,0.0,0.0,0.0,-3.0197,-3.4605,-3.9677,-4.2977,-4.5982,-4.7905,-4.6346,-4.3076,-3.9221,-3.5194,-3.1455,-2.8253,-2.6299,-2.5907,-2.5907,-2.5907,-2.5907,-2.6832,-2.9697,-3.0719,-3.2672,-3.7084,-3.9856,-4.2968,-4.7126,-5.1497,-5.4536,-5.5462,-5.493,-5.4576,-5.4687,-5.3278,-5.3065,-5.4473,-5.3667,-5.3164,-5.3164,-5.2858,-5.2166,-5.1069,-5.0673,-5.004,-4.9306,-4.9109,-4.8194,-4.6634,-4.8183,-4.8221,-4.7247,-4.8818,-4.84,-4.6793,-4.9016,-4.8615,-4.6911,-4.9087,-4.9892,-4.9892,-4.9892,-4.9892,-4.9797,0.0,0.0,0.0,0.0,0.0,0.0,0.0,-3.5479,-3.5536,-3.5466,-3.5961,-3.6205,-3.5877,-3.5984,-3.6549,-3.7769,-3.6807,0.0,0.0,0.0,0.0,0.0,0.0,0.0,-3.6303,-3.5584,-3.5195,-3.5195,-3.4457,-3.4392,-3.4943,-3.4949,-3.4786,-3.4494,-3.4891,-3.44,0.0,0.0,0.0,0.0,0.0,0.0,-3.1459,0.0,0.0,0.0,0.0,0.0,0.0,0.0,0.0,0.0,0.0,0.0,0.0,0.0,-3.0966,-3.4505,-3.7558,-4.0591,-4.2602,-4.1441,-3.9031,-3.6158,-3.3096,-3.0219,-2.7734,-2.6186,-2.6465,-2.6773,-2.6046,-2.6656,-2.7673,-2.877,-3.0689,-3.2916,-3.5305,-3.8327,-4.1817,-4.5935,-5.0819,-5.4016,-5.4478,-5.4366,-5.4371,-5.4592,-5.3352,-5.314,-5.4354,-5.3318,-5.248,-5.2059,-5.1809,-5.1204,-5.0196,-4.9708,-4.9243,-4.8841,-4.8676,-4.7896,-4.6634,-4.8295,-4.8333,-4.7247,-4.8897,-4.892,0.0,-4.9315,-4.9119,-4.8043,-4.9355,-4.9892,-4.9892,-4.9892,-4.9892,-4.9868,0.0,0.0,0.0,0.0,0.0,0.0,0.0,-3.5346,-3.5148,-3.5843,-3.6073,-3.6252,-3.6386,-3.6959,-3.7669,-3.8564,0.0,0.0,0.0,0.0,0.0,0.0,0.0,0.0,-3.6367,-3.5655,-3.526,-3.5195,-3.4457,-3.4813,-3.6141,-3.5493,-3.5388,-3.5668,-3.5123,-3.4514,-3.3724,-3.1948,-3.0777,-3.0199,-3.0934,-3.1259,0.0,0.0,0.0,0.0,0.0,0.0,0.0,0.0,0.0,0.0,0.0,0.0,0.0,0.0,0.0,0.0,0.0,-3.6538,-3.9015,-3.9115,-3.6847,-3.4181,-3.2496,-2.9746,0.0,-2.635,-2.7563,-2.8246,-2.6521,-2.8142,-2.8993,-2.6744,-2.9903,-3.232,-3.1338,-3.4451,-3.8232,-4.2111,-4.6235,-4.9511,-5.1424,-5.3699,-5.4731,-5.3852,-5.3974,-5.3942,-5.3683,-5.2993,-5.2101,-5.0948,-5.0266,-4.9894,-4.9894,-4.9068,-4.8573,-4.8481,-4.8573,-4.7865,-4.6551,-4.8233,-4.8221,-4.706,-4.8826,-4.9613,-4.9653,-4.9852,-4.9892,-4.9892,-4.9892,-4.9892,-4.9892,-4.9892,-4.9892,-4.9892,0.0,0.0,0.0,0.0,0.0,0.0,0.0,0.0,0.0,0.0,-3.5765,-3.6252,-3.6386,-3.7105,-3.7975,0.0,0.0,0.0,0.0,0.0,0.0,0.0,0.0,0.0,-3.7053,-3.64,-3.5752,-3.5195,-3.4457,-3.4295,-3.4619,-3.5033,-3.4949,-3.4549,-3.5347,-3.4808,-3.3195,-3.1581,-3.0412,-2.9684,-3.0883,-3.1063,0.0,0.0,0.0,0.0,-3.2382,-3.2074,0.0,0.0,0.0,0.0,0.0,0.0,0.0,0.0,-2.8504,-2.8861,-2.9887,0.0,-3.2048,-3.172,-3.0757,-2.9787,0.0,-2.8033,-2.7251,-2.8473,-2.8779,-2.8905,-2.9304,-3.0349,-3.1146,-3.0924,-3.2736,-3.4393,-3.507,-3.999,-4.3976,-4.5128,-5.002,-5.2648,-5.1029,-5.3278,-5.4599,-5.3852,-5.3974,-5.3593,-5.2499,-5.1974,-5.1161,-5.0055,-4.9304,-4.8934,-4.8934,-4.8696,-4.8112,-4.7096,-4.8112,-4.7454,-4.5394,-4.788,-4.8453,-4.7526,-4.8945,-4.9693,-4.9852,-4.9892,-4.9892,-4.9892,-4.9892,-4.9892,-4.9892,-4.9892,-4.9892,-4.9892,0.0,0.0,0.0,0.0,0.0,0.0,0.0,0.0,0.0,0.0,0.0,-3.6886,-3.7367,-3.8145,0.0,0.0,0.0,0.0,0.0,0.0,0.0,0.0,0.0,-3.7728,-3.7311,-3.6659,-3.5946,-3.5195,-3.4457,-3.4101,-3.4101,-3.4489,-3.4651,-3.4619,-3.4864,-3.3968,-3.2234,-3.0836,-2.9776,-2.907,-3.0017,0.0,0.0,0.0,0.0,0.0,-3.2044,-3.1705,0.0,-3.1459,-3.0566,-2.9402,0.0,0.0,0.0,0.0,-2.8484,-2.8628,-2.8747,-2.9075,-2.9467,-2.9927,-2.9367,-2.8762,-2.9163,-2.8127,-2.7528,-2.9232,-2.9178,-2.9047,-2.9899,-3.0643,-3.1207,-3.1506,-3.2935,-3.4942,-3.7758,-4.1607,-4.4503,-4.5525,-4.8943,-5.1005,-5.0531,-5.2704,-5.3922,-5.335,-5.3287,-5.2801,-5.1611,-5.1045,-5.0432,-4.9724,-4.8974,-4.8604,-4.8604,-4.8604,-4.7927,-4.6603,-4.807,-4.7729,-4.5904,-4.8204,-4.9005,-4.8522,-4.8647,-4.9135,-4.9829,-4.9158,-4.9253,-4.9892,-4.9892,-4.9892,-4.9892,-4.9892,-4.9892,-4.9868,0.0,0.0,0.0,0.0,0.0,0.0,0.0,0.0,0.0,0.0,0.0,0.0,0.0,0.0,0.0,0.0,0.0,0.0,0.0,0.0,0.0,0.0,-3.7695,-3.7247,-3.715,-3.6691,-3.5979,-3.5033,-3.4619,-3.4392,-3.4262,-3.4237,-3.4464,-3.4787,-3.3848,-3.2638,-3.119,-3.004,-2.9117,-2.8549,-2.9014,0.0,0.0,0.0,0.0,0.0,0.0,0.0,0.0,-3.0689,-2.9981,-2.9206,-2.8719,0.0,0.0,0.0,0.0,0.0,-2.8895,-2.9013,-2.9484,-3.0833,-3.0219,-2.9501,-3.0478,-2.9098,-2.815,-2.9947,-2.9844,-2.9566,-3.0172,-3.0987,-3.149,-3.119,-3.2788,-3.5639,-4.0004,-4.1961,-4.3441,-4.4941,-4.6754,-4.8401,-4.9855,-5.1927,-5.2984,-5.2468,-5.2309,-5.1814,-5.0843,-5.0266,-4.9842,-4.9528,-4.8984,-4.8635,-4.8604,-4.8604,-4.7927,-4.6643,-4.8264,-4.8292,-4.7068,-4.8795,-4.9613,-4.9559,-4.8435,-4.867,-4.9797,-4.8481,-4.8741,-4.9892,-4.9892,-4.9892,-4.9892,-4.9892,-4.9892,-4.9805,0.0,0.0,0.0,0.0,0.0,0.0,0.0,0.0,0.0,0.0,0.0,0.0,0.0,0.0,0.0,0.0,0.0,0.0,0.0,0.0,0.0,-3.8375,-3.7695,-3.702,-3.6465,-3.6891,-3.6206,-3.4262,-3.5428,-3.5655,-3.5033,-3.4904,-3.4272,-3.3151,-3.2547,-3.1677,-3.0663,-2.9603,-2.8999,-2.87,-2.9169,0.0,0.0,0.0,0.0,0.0,0.0,0.0,0.0,-3.0905,-3.0119,-2.8773,-2.9144,0.0,0.0,0.0,0.0,0.0,-2.9359,-3.0042,-3.0766,-3.111,-3.0525,-3.0256,-3.1691,-3.0058,-2.9264,-3.2819,-3.2765,-3.2279,-3.3076,-3.5283,-3.6253,-3.3874,-3.643,-3.9698,-4.2644,-4.5166,-4.6397,-4.5781,-4.9535,-5.1128,-4.8475,-5.0636,-5.1964,-5.1324,-5.1421,-5.1056,-4.9951,-4.9965,-4.9625,-4.8789,-4.8862,-4.88,-4.8604,-4.8604,-4.8009,-4.688,-4.8345,-4.8453,-4.7533,-4.8985,-4.9693,-4.9821,-4.9631,-4.9671,-4.986,-4.9639,-4.9702,-4.9892,-4.9892,-4.9892,-4.9892,-4.9892,-4.9892,-4.9805,0.0,0.0,0.0,0.0,0.0,0.0,0.0,0.0,0.0,0.0,0.0,0.0,0.0,0.0,0.0,0.0,0.0,0.0,0.0,0.0,-3.7052,-3.776,-3.7145,-3.6761,-3.6826,-3.7117,-3.6659,-3.5299,-3.6255,-3.6416,-3.5785,-3.5311,-3.4348,-3.2934,-3.2296,-3.1537,-3.0712,-2.9722,-2.9152,-2.8905,0.0,0.0,0.0,0.0,0.0,0.0,0.0,0.0,0.0,0.0,-2.9558,-2.8635,-2.8805,0.0,0.0,0.0,0.0,0.0,-2.9017,-2.9632,-3.056,-3.1892,-3.1357,-3.1137,-3.3467,-3.1305,-2.9964,-3.3921,-3.2668,-3.1401,-3.3056,-3.4885,-3.6537,-3.7651,-4.1368,-4.4297,-4.478,-4.6399,-4.7167,-4.6311,-4.8638,-4.9589,-4.788,-4.9898,-5.111,-5.0652,-5.0652,-5.0299,-4.9533,-4.9553,-4.9202,-4.8275,-4.8397,-4.8171,-4.7527,-4.8018,-4.779,-4.6919,-4.8555,-4.8732,-4.768,-4.9103,-4.9812,-4.9829,-4.9024,-4.9158,-4.9829,-4.8993,-4.9158,-4.9892,-4.9892,-4.9892,-4.9892,-4.9892,-4.9679,-4.9331,0.0,0.0,0.0,0.0,0.0,0.0,0.0,0.0,0.0,0.0,0.0,0.0,0.0,0.0,0.0,0.0,0.0,0.0,0.0,0.0,-3.6514,-3.7501,-3.708,-3.6886,-3.7053,-3.7214,-3.6956,-3.6303,-3.7035,-3.6975,-3.6217,-3.5635,-3.4438,-3.2757,-3.2231,-3.151,-3.0613,-2.9807,-2.938,-2.9152,0.0,0.0,0.0,0.0,0.0,0.0,0.0,0.0,0.0,0.0,0.0,0.0,0.0,0.0,0.0,-2.8525,-2.8692,-2.8928,-2.8855,-2.9539,-3.0697,-3.2572,-3.1851,-3.1626,-3.5303,-3.2862,-3.1094,-3.5488,-3.3646,-3.1849,-3.3796,-3.4891,-3.6817,-4.086,-4.4898,-4.7352,-4.6983,-4.7606,-4.7969,-4.7676,-4.8203,-4.844,-4.8201,-4.9549,-5.0345,-5.0009,-4.9854,-4.9543,-4.8992,-4.9001,-4.8568,-4.7716,-4.7725,-4.7398,-4.6603,-4.7437,-4.7619,-4.7246,-4.8858,-4.8993,-4.7862,-4.9087,-4.96,-4.9537,-4.8348,-4.8639,-4.9797,-4.8607,-4.8835,-4.9892,-4.9892,-4.9892,-4.9892,-4.9892,-4.9489,-4.892,0.0,0.0,0.0,0.0,0.0,0.0,0.0,0.0,0.0,0.0,0.0,0.0,0.0,0.0,0.0,0.0,0.0,0.0,0.0,0.0,-3.7084,-3.8246,-3.8278,-3.7663,-3.64,-3.6956,-3.6956,-3.6303,-3.7663,-3.7515,-3.6018,-3.5959,-3.451,-3.1903,-3.1957,-3.1218,-2.9955,-2.9637,-2.9493,-2.9448,-2.9183,0.0,0.0,0.0,0.0,0.0,0.0,0.0,0.0,0.0,0.0,0.0,0.0,0.0,-2.8873,-2.8645,-2.8834,-2.9147,-2.9446,-3.0798,-3.222,-3.277,-3.1301,-3.1208,-3.6981,-3.4864,-3.3318,-3.9031,-3.8339,-3.7,-3.7777,-3.8372,-3.9618,-4.2346,-4.4756,-4.7177,-4.9665,-4.9905,-5.0018,-5.0584,-5.058,-5.0236,-4.9608,-4.9712,-4.9592,-4.912,-4.9058,-4.8779,-4.8137,-4.8106,-4.7685,-4.6735,-4.6863,-4.6832,-4.6603,-4.713,-4.7637,-4.823,-4.9148,-4.9205,-4.8522,-4.8647,-4.8679,-4.8679,-4.8584,-4.904,-4.986,-4.9765,-4.9797,-4.9892,-4.9892,-4.9892,-4.9892,-4.9892,-4.9489,-4.8983,0.0,0.0,0.0,0.0,0.0,0.0,0.0,0.0,0.0,0.0,0.0,0.0,0.0,0.0,0.0,0.0,0.0,0.0,0.0,-3.6967,-3.6973,-3.7107,-3.6659,-3.6367,-3.6303,-3.7404,-3.7575,-3.6814,-3.7413,-3.7353,-3.6667,-3.5394,-3.3774,-3.1925,-3.1496,-3.0797,-2.988,-2.9792,-2.9627,-2.9493,-2.938,-2.9082,0.0,0.0,0.0,0.0,0.0,0.0,0.0,0.0,-2.879,-2.8762,-2.9142,-2.9411,-2.9532,-2.9266,-2.9724,-3.0176,-2.9726,-3.0404,-3.1623,-3.3235,-3.1919,-3.168,-3.7203,-3.6283,-3.5427,-3.9436,-3.9489,-3.892,-3.931,-4.0034,-4.1505,-4.4475,-4.6917,-4.8874,-4.9968,-5.0154,-5.0289,-5.0538,-4.9862,-4.9354,-4.9274,-4.9243,-4.9233,-4.92,-4.8795,-4.8533,-4.8372,-4.7847,-4.713,-4.6183,-4.623,-4.6005,-4.5341,-4.6083,-4.654,-4.6819,-4.7739,-4.8044,-4.7793,-4.7793,-4.7793,-4.7793,-4.7793,-4.7989,-4.8349,-4.8875,-4.9072,-4.9174,-4.9663,-4.9892,-4.9892,-4.9892,-4.9742,-4.9584,0.0,0.0,0.0,0.0,0.0,0.0,0.0,0.0,0.0,0.0,0.0,0.0,0.0,0.0,0.0,0.0,0.0,0.0,-3.6687,-3.6868,-3.677,-3.6303,-3.6011,-3.5952,-3.619,-3.7214,-3.7515,-3.7086,-3.7086,-3.6731,-3.6055,-3.4826,-3.3426,-3.1845,-3.1431,-3.0839,-3.0138,-2.9955,-2.9792,-2.9637,-2.9637,-2.9357,0.0,0.0,0.0,0.0,0.0,0.0,0.0,0.0,-2.8776,-2.9042,-2.9339,-2.9678,-2.9908,-2.947,-2.9842,-3.0263,-2.9574,-2.9875,-3.089,-3.2975,-3.2217,-3.2418,-3.7927,-3.7746,-3.753,-4.1408,-4.1682,-4.1143,-4.0874,-4.1288,-4.2476,-4.511,-4.7526,-4.9259,-4.9719,-4.9895,-4.9977,-4.9977,-4.9058,-4.8491,-4.8686,-4.8428,-4.8345,-4.8515,-4.8151,-4.7816,-4.7723,-4.7169,-4.6454,-4.5587,-4.5556,-4.5301,-4.4685,-4.5339,-4.5625,-4.551,-4.6236,-4.6656,-4.6874,-4.6874,-4.6874,-4.6874,-4.6874,-4.7037,-4.7364,-4.7958,-4.8185,-4.8286,-4.9135,-4.9466,-4.9537,-4.9797,-4.9892,-4.9892,0.0,0.0,0.0,0.0,0.0,0.0,0.0,0.0,0.0,0.0,0.0,0.0,0.0,0.0,0.0,0.0,0.0,0.0,-3.577,-3.631,-3.6496,-3.6303,-3.6918,-3.6869,-3.5996,-3.619,-3.6545,-3.7086,-3.6713,-3.566,-3.3931,-3.4424,-3.3572,-3.1606,-3.191,-3.1514,-3.0656,-3.0138,-2.9913,-2.988,-2.988,-2.9748,-2.9493,0.0,0.0,0.0,0.0,0.0,0.0,0.0,-2.9128,-2.9668,-2.8862,-2.9262,-2.9869,-2.906,-2.8959,-2.9091,-2.8975,-2.9454,-3.0333,-3.1772,-3.204,-3.3454,-3.9251,-3.9251,-3.9687,-4.5593,-4.5588,-4.4063,-4.2676,-4.2254,-4.2618,-4.3961,-4.5959,-4.7801,-4.9113,-4.93,-4.93,-4.93,-4.8537,-4.7973,-4.7973,-4.7123,-4.6683,-4.6919,-4.6888,-4.6609,-4.5928,-4.5897,-4.5587,-4.4942,-4.4911,-4.4911,-4.4911,-4.5092,-4.5017,-4.461,-4.4799,-4.5253,-4.5897,-4.5897,-4.5897,-4.5897,-4.5897,-4.6416,-4.7263,-4.7263,-4.7263,-4.7395,-4.8255,-4.8616,-4.8679,-4.9568,-4.986,-4.986,0.0,0.0,0.0,0.0,0.0,0.0,0.0,0.0,0.0,0.0,0.0,0.0,0.0,0.0,0.0,0.0,0.0,0.0,-3.5828,-3.5843,-3.5771,-3.5552,-3.5202,-3.5176,-3.5441,-3.4904,-3.5233,-3.6545,-3.5294,-3.4742,-3.4794,-3.3968,-3.2974,-3.191,-3.3008,-3.2231,-3.0202,-3.1001,-3.082,-2.988,-2.988,-2.9748,-2.9493,0.0,0.0,0.0,0.0,0.0,0.0,0.0,0.0,0.0,-2.9495,-3.0391,-3.1401,-3.1086,-3.1175,-3.1293,-3.1068,-3.088,-3.1124,-3.306,-3.3881,-3.5354,-3.9629,-3.9907,-4.0575,-4.5229,-4.4741,-4.3407,-4.2966,-4.4131,-4.5138,-4.496,-4.6875,-4.8616,-4.9247,-4.8885,-4.8604,-4.8604,-4.7663,-4.7071,-4.7229,-4.6964,-4.6841,-4.6919,-4.6571,-4.6344,-4.6126,-4.5652,-4.531,-4.5129,-4.5092,-4.5092,-4.5092,-4.5167,-4.5129,-4.5017,-4.4911,-4.4929,-4.4994,-4.4994,-4.4994,-4.4994,-4.4994,-4.5156,-4.5448,-4.6059,-4.671,-4.7333,-4.7559,-4.7692,-4.7723,-4.7989,-4.8443,-4.9009,0.0,0.0,0.0,0.0,0.0,0.0,0.0,0.0,0.0,0.0,0.0,0.0,0.0,0.0,0.0,0.0,0.0,0.0,0.0,-3.5539,-3.5422,-3.4774,-3.4619,-3.4586,-3.4748,-3.391,-3.3982,-3.504,-3.3899,-3.3544,-3.3856,-3.354,-3.2974,-3.2265,-3.3508,-3.2789,-3.0629,-3.1269,-3.0927,-2.9913,-3.0204,-3.0051,-2.9681,0.0,0.0,0.0,0.0,0.0,0.0,0.0,0.0,0.0,-2.9762,-3.0691,-3.1665,-3.1256,-3.1319,-3.1507,-3.1583,-3.1338,-3.1652,-3.4341,-3.532,-3.6515,-4.007,-4.1693,-4.3292,-4.6268,-4.5241,-4.3972,-4.4606,-4.5116,-4.5497,-4.5578,-4.7119,-4.8326,-4.8457,-4.8136,-4.7887,-4.7887,-4.699,-4.6399,-4.6602,-4.6307,-4.599,-4.5742,-4.5497,-4.5229,-4.4874,-4.4464,-4.4283,-4.4356,-4.432,-4.4283,-4.4283,-4.4387,-4.4351,-4.4167,-4.4489,-4.4384,-4.3883,-4.4476,-4.4685,-4.461,-4.461,-4.4685,-4.4898,-4.5308,-4.5856,-4.6483,-4.6733,-4.6857,-4.6889,-4.7169,-4.7856,-4.8616,0.0,0.0,0.0,0.0,0.0,0.0,0.0,0.0,0.0,0.0,0.0,0.0,0.0,0.0,0.0,0.0,0.0,0.0,0.0,0.0,-3.5225,-3.4158,-3.4716,-3.4813,-3.4198,-3.3233,-3.2845,-3.3,-3.2634,-3.2232,-3.183,-3.3247,-3.3379,-3.2481,-3.3756,-3.3272,-3.1486,-3.1144,-3.0603,-3.002,-3.0581,-3.0474,-3.0042,-3.0603,0.0,0.0,0.0,0.0,0.0,0.0,0.0,0.0,-2.9786,-3.0465,-3.1142,-3.0413,-3.0336,-3.0591,-3.1198,-3.125,-3.1897,-3.5405,-3.6479,-3.7523,-4.0852,-4.4086,-4.668,-4.7801,-4.6399,-4.5353,-4.6811,-4.549,-4.4607,-4.5977,-4.6795,-4.7302,-4.7263,-4.7169,-4.7146,-4.7169,-4.633,-4.5787,-4.5977,-4.5266,-4.4502,-4.3815,-4.3935,-4.363,-4.2767,-4.2798,-4.2905,-4.302,-4.2972,-4.2926,-4.2926,-4.3105,-4.3034,-4.2669,-4.3619,-4.363,-4.2891,-4.4291,-4.4836,-4.4648,-4.4648,-4.4867,-4.5167,-4.4986,-4.5055,-4.5266,-4.5821,-4.6109,-4.6133,-4.6788,-4.7661,-4.8483,0.0,0.0,0.0,0.0,0.0,0.0,0.0,0.0,0.0,0.0,0.0,0.0,0.0,0.0,0.0,0.0,0.0,0.0,0.0,0.0,-3.4845,-3.4133,-3.4262,-3.4522,-3.4968,-3.3137,-3.2175,-3.2255,-3.1484,-3.134,-3.183,-3.3347,-3.3297,-3.2048,-3.4671,-3.3968,-3.0923,-3.1537,-3.1279,-3.05,-3.0225,-3.0344,-3.0635,-3.0247,-2.9855,0.0,0.0,0.0,0.0,0.0,0.0,0.0,-2.9695,-3.0761,-3.2013,-3.1734,-3.21,-3.2619,-3.2699,-3.2243,-3.2348,-3.4648,-3.7777,-4.0884,-4.3207,-4.4777,-4.5739,-4.5872,-4.5478,-4.5341,-4.6035,-4.6214,-4.6214,-4.6004,-4.6833,-4.7456,-4.7232,-4.6296,-4.5865,-4.6358,-4.5173,-4.4347,-4.439,-4.4229,-4.3747,-4.2952,-4.3071,-4.2905,-4.2264,-4.2829,-4.2931,-4.2573,-4.2931,-4.3141,-4.3141,-4.3176,-4.3176,-4.3069,-4.3153,-4.3122,-4.3074,-4.4475,-4.5092,-4.5055,-4.5055,-4.5129,-4.5167,-4.5129,-4.5167,-4.5198,-4.5179,-4.5166,-4.5197,-4.5201,-4.6191,-4.7465,0.0,0.0,0.0,0.0,0.0,0.0,0.0,0.0,0.0,0.0,0.0,0.0,0.0,0.0,0.0,0.0,0.0,0.0,0.0,0.0,-3.4956,-3.4619,-3.4295,-3.4133,-3.419,-3.274,-3.1996,-3.1996,-3.1191,-3.1168,-3.1901,-3.3072,-3.3339,-3.2893,-3.4891,-3.4032,-3.1156,-3.166,-3.1264,-3.0196,-3.0287,-3.0332,-3.0409,-3.0376,-3.0083,-2.9704,-2.9704,0.0,0.0,0.0,0.0,0.0,0.0,0.0,-3.1286,-3.1137,-3.1439,-3.1887,-3.2126,-3.2415,-3.3334,-3.636,-3.9314,-4.1866,-4.3283,-4.4063,-4.4459,-4.4355,-4.4736,-4.5204,-4.5811,-4.5572,-4.5225,-4.4854,-4.5005,-4.5148,-4.5036,-4.4415,-4.4111,-4.4526,-4.3784,-4.3345,-4.3495,-4.3251,-4.2874,-4.2395,-4.2018,-4.175,-4.1721,-4.1471,-4.1348,-4.1386,-4.1213,-4.1143,-4.118,-4.1351,-4.1351,-4.118,-4.1969,-4.2656,-4.3176,-4.3785,-4.4206,-4.4521,-4.4543,-4.4705,-4.4992,-4.5227,-4.5389,-4.5463,-4.5278,-4.5204,-4.5167,-4.4836,-4.5632,-4.6701,0.0,0.0,0.0,0.0,0.0,0.0,0.0,0.0,0.0,0.0,0.0,0.0,0.0,0.0,0.0,0.0,0.0,0.0,0.0,0.0,0.0,-3.5558,-3.4748,-3.4036,-3.3453,-3.2611,-3.219,-3.219,-3.1454,-3.156,-3.253,-3.3291,-3.3734,-3.3931,-3.4794,-3.3871,-3.163,-3.1493,-3.0808,-2.9884,-3.0357,-3.0167,-2.9761,-3.0451,-3.0312,-2.9718,-2.9848,-2.9726,-2.947,-2.922,0.0,0.0,0.0,0.0,-3.0362,-3.0067,-3.0336,-3.078,-3.1128,-3.2398,-3.4482,-3.805,-3.9945,-4.1207,-4.2092,-4.2588,-4.2859,-4.2984,-4.3826,-4.4688,-4.5246,-4.4291,-4.3439,-4.3439,-4.2977,-4.2638,-4.2638,-4.2546,-4.2525,-4.2643,-4.253,-4.2504,-4.258,-4.2178,-4.1835,-4.1585,-4.0789,-4.048,-4.0758,-3.9815,-3.947,-3.991,-3.9212,-3.8897,-3.8963,-3.9228,-3.9228,-3.8931,-4.0541,-4.179,-4.2615,-4.2408,-4.2802,-4.363,-4.3894,-4.4247,-4.4709,-4.529,-4.5677,-4.5787,-4.5604,-4.5499,-4.5463,-4.5092,-4.5497,-4.6209,0.0,0.0,0.0,0.0,0.0,0.0,0.0,0.0,0.0,0.0,0.0,0.0,0.0,0.0,0.0,0.0,0.0,0.0,0.0,0.0,0.0,-3.6988,-3.5752,-3.5033,-3.4936,-3.364,-3.2935,-3.2935,-3.2222,-3.2765,-3.4516,-3.5447,-3.5156,-3.3931,-3.4794,-3.3921,-3.1709,-3.0486,-3.0151,-3.0459,-3.0013,-2.9414,-2.8877,-2.9707,-2.9589,-2.9038,-2.9653,-2.9726,-2.9493,-2.9448,-2.9357,0.0,0.0,0.0,-3.1092,-3.0249,-3.1376,-3.2645,-3.1482,-3.2982,-3.5134,-3.6326,-3.7557,-3.8842,-4.0287,-4.0598,-4.0718,-4.1278,-4.2354,-4.3169,-4.3231,-4.2926,-4.2725,-4.2725,-4.2808,-4.2855,-4.2855,-4.2328,-4.1996,-4.214,-4.2031,-4.1531,-4.0618,-4.0961,-4.0743,-3.9526,-3.9278,-3.9061,-3.8623,-3.8873,-3.8873,-3.8466,-3.881,-3.8931,-3.8832,-3.886,-3.8795,-3.8573,-3.9146,-3.9743,-4.0429,-4.0364,-4.1429,-4.3314,-4.4073,-4.4459,-4.4598,-4.5399,-4.5787,-4.5787,-4.5604,-4.5499,-4.5463,-4.5241,-4.5716,-4.6335,0.0,0.0,0.0,0.0,0.0,0.0,0.0,0.0,0.0,0.0,0.0,0.0,0.0,0.0,0.0,0.0,0.0,0.0,0.0,0.0,0.0,-3.6756,-3.5752,-3.4839,-3.4061,-3.3445,-3.3259,-3.3647,-3.2967,-3.4302,-3.7487,-3.7862,-3.7192,-3.5701,-3.6077,-3.5039,-3.2901,-3.1855,-3.1077,-3.0509,-2.9409,-2.909,-2.9156,-2.8833,-2.8725,-2.8822,-2.9167,-2.92,-2.9156,-2.9409,-2.9493,-2.9544,-2.9485,0.0,0.0,0.0,-3.0479,-3.1602,-3.176,-3.2341,-3.3549,-3.6256,-3.636,-3.6523,-3.922,-3.9094,-3.8716,-3.9942,-4.0431,-4.0814,-4.1558,-4.1538,-4.1274,-4.094,-4.0608,-4.043,-4.043,-4.0183,-4.0034,-4.0235,-4.0068,-3.9851,-3.9494,-3.9433,-3.9309,-3.9186,-3.8529,-3.837,-3.8905,-3.8433,-3.8213,-3.8369,-3.8121,-3.8028,-3.8059,-3.8247,-3.846,-3.867,-3.8995,-3.9402,-3.9924,-4.0395,-4.1148,-4.2053,-4.2739,-4.3345,-4.3965,-4.476,-4.5336,-4.5787,-4.5714,-4.5677,-4.5609,-4.5426,-4.5614,-4.5871,0.0,0.0,0.0,0.0,0.0,0.0,0.0,0.0,0.0,0.0,0.0,0.0,0.0,0.0,0.0,0.0,0.0,0.0,0.0,0.0,0.0,-3.6594,-3.6011,-3.5072,-3.3647,-3.3809,-3.3971,-3.4101,-3.3777,-3.5305,-3.8581,-3.8904,-3.8653,-3.7833,-3.7758,-3.6722,-3.4981,-3.3783,-3.2681,-3.1542,-3.027,-2.9707,-2.954,-2.878,-2.8585,-2.8811,-2.8811,-2.8811,-2.8833,-2.9198,-2.9498,-2.9681,-2.9321,-2.9775,0.0,0.0,0.0,-2.9983,-3.1374,-3.1627,-3.2234,-3.5391,-3.4995,-3.4537,-3.7233,-3.6991,-3.6621,-3.7994,-3.8403,-3.8767,-3.9539,-3.9838,-3.9828,-3.9339,-3.8846,-3.8508,-3.8508,-3.8508,-3.8512,-3.8521,-3.8546,-3.858,-3.8559,-3.8216,-3.8279,-3.878,-3.7958,-3.7893,-3.8934,-3.7987,-3.7671,-3.8239,-3.7643,-3.7329,-3.7419,-3.7591,-3.7872,-3.8273,-3.8528,-3.8965,-3.9643,-4.0271,-4.0774,-4.1115,-4.1631,-4.2455,-4.3388,-4.4181,-4.5011,-4.5823,-4.5823,-4.5823,-4.5787,-4.5609,-4.5604,-4.5568,0.0,0.0,0.0,0.0,0.0,0.0,0.0,0.0,0.0,0.0,0.0,0.0,0.0,-3.5629,-3.6496,-3.6356,0.0,0.0,0.0,0.0,0.0,-3.7279,-3.7214,0.0,-3.513,-3.5785,-3.5461,-3.4101,-3.4774,-3.5394,-3.6025,-3.7484,-3.8801,-3.993,-3.9554,-3.8926,-3.8023,-3.5814,-3.4748,-3.4509,-3.3752,-3.1838,-2.9598,-3.0289,-2.9845,-2.8811,-2.8811,-2.8811,-2.879,-2.8822,-2.9308,-2.9836,-2.956,-3.0051,-3.0371,0.0,0.0,0.0,-2.9919,-3.1248,-3.2291,-3.2513,-3.2856,-3.319,-3.3379,-3.3744,-3.4229,-3.474,-3.6414,-3.7559,-3.6877,-3.7738,-3.86,-3.8569,-3.8539,-3.8508,-3.8508,-3.8508,-3.8294,-3.7807,-3.8365,-3.8369,-3.7399,-3.7839,-3.7994,-3.7638,-3.7361,-3.7331,-3.7575,-3.7361,-3.73,-3.7543,-3.751,-3.7389,-3.7208,-3.6908,-3.6785,-3.6786,-3.6816,-3.7623,-3.9026,-3.9089,-3.9838,-4.1148,-4.1803,-4.249,-4.331,-4.4141,-4.5011,-4.5823,-4.5823,-4.5823,-4.5823,-4.5787,-4.5787,-4.5787,0.0,0.0,0.0,0.0,0.0,0.0,0.0,0.0,0.0,0.0,0.0,0.0,0.0,-3.7075,-3.7302,-3.7593,-3.814,0.0,0.0,0.0,0.0,-3.6691,-3.6206,-3.572,-3.5228,-3.5461,-3.5558,-3.5525,-3.5299,-3.5732,-3.6786,-3.733,-3.8101,-3.9072,-4.0169,-3.9521,-3.7667,-3.7261,-3.5385,-3.2816,-3.354,-3.236,-3.0142,-3.0177,-3.017,-3.003,-2.9113,-2.9372,-3.002,-2.9081,-2.9297,-2.9815,-2.9221,-2.9478,-2.9849,-2.9089,-2.8509,-2.841,-2.9824,-3.0212,-3.0591,-3.1943,-3.1338,-3.0923,-3.2793,-3.3311,-3.3423,-3.3619,-3.5623,-3.6998,-3.5697,-3.6848,-3.7804,-3.7277,-3.731,-3.731,-3.7247,-3.7215,-3.7186,-3.7095,-3.7281,-3.7406,-3.7211,-3.7398,-3.7551,-3.748,-3.651,-3.6387,-3.7417,-3.6362,-3.6209,-3.7268,-3.7241,-3.7151,-3.709,-3.6969,-3.6816,-3.6723,-3.7281,-3.7779,-3.8276,-3.931,-4.0061,-4.0493,-4.125,-4.1938,-4.2556,-4.3345,-4.4208,-4.5011,-4.5561,-4.5823,-4.5823,-4.5823,-4.5823,-4.5787,0.0,0.0,0.0,0.0,0.0,0.0,0.0,0.0,0.0,0.0,0.0,0.0,0.0,0.0,-3.7973,-3.8375,-3.8408,-3.8408,-3.8408,-3.7954,-3.7469,-3.7015,-3.6303,-3.5882,-3.5882,-3.5687,-3.5817,-3.6303,-3.5273,-3.5376,-3.6513,-3.6513,-3.703,-3.8032,-3.9621,-3.9715,-3.8796,-3.9389,-3.7661,-3.4535,-3.4838,-3.3912,-3.2288,-3.1523,-3.1422,-3.1575,-3.083,-3.0895,-3.1163,-3.0474,-3.0399,-3.0528,-3.002,-2.9393,-2.8886,-2.8988,-2.8418,-2.8031,-2.9192,-2.9485,-2.9746,-3.0882,-3.0234,-2.9777,-3.1432,-3.2347,-3.2798,-3.2746,-3.4729,-3.624,-3.5406,-3.6315,-3.7095,-3.6724,-3.6754,-3.6754,-3.6693,-3.6662,-3.6724,-3.6846,-3.6877,-3.6998,-3.727,-3.73,-3.7359,-3.748,-3.651,-3.6326,-3.7358,-3.6301,-3.6148,-3.7147,-3.709,-3.6969,-3.6908,-3.6908,-3.6816,-3.6631,-3.7219,-3.7623,-3.784,-3.9247,-4.0001,-4.0218,-4.0974,-4.1599,-4.2115,-4.265,-4.3314,-4.4141,-4.5011,-4.5367,-4.5399,-4.5692,-4.5823,-4.5823,0.0,0.0,0.0,0.0,0.0,0.0,0.0,0.0,0.0,-3.343,0.0,0.0,0.0,0.0,0.0,-3.8375,-3.8375,-3.8375,-3.8375,-3.8343,-3.8343,-3.8375,0.0,0.0,-3.7247,-3.6627,-3.627,-3.627,-3.4684,-3.4278,-3.4955,-3.4923,-3.5664,-3.7053,-3.7931,-3.9476,-4.1482,-4.2229,-4.1554,-3.9852,-3.7983,-3.6667,-3.576,-3.4446,-3.3612,-3.3186,-3.3841,-3.3226,-3.219,-3.287,-3.2611,-3.1996,-3.1931,-2.9823,-2.756,-2.8244,-2.7816,-2.7241,0.0,0.0,0.0,-2.91,-2.9517,-2.9935,-2.91,-3.0644,-3.2177,-3.1971,-3.3603,-3.5206,-3.572,-3.5994,-3.6334,-3.6905,-3.6999,-3.6999,-3.6999,-3.6999,-3.706,-3.7178,-3.7178,-3.73,-3.748,-3.751,-3.751,-3.751,-3.7298,-3.7147,-3.7178,-3.7178,-3.7178,-3.7178,-3.7029,-3.6908,-3.6693,-3.6693,-3.6631,-3.6507,-3.6507,-3.694,-3.7778,-3.8683,-3.9467,-4.0256,-4.0978,-4.1567,-4.2022,-4.2084,-4.249,-4.3243,-4.4141,-4.4495,-4.4593,-4.5498,-4.5823,-4.5823,0.0,0.0,0.0,0.0,0.0,0.0,0.0,-3.4409,-3.4685,0.0,0.0,0.0,-3.7238,-3.7995,-3.8181,-3.7663,-3.7598,-3.7598,-3.7598,-3.7145,-3.7112,-3.757,-3.6432,-3.6044,-3.6594,-3.5882,-3.5493,-3.5493,-3.4529,-3.4147,-3.4309,-3.3233,-3.3491,-3.4962,-3.5647,-3.661,-3.7922,-4.0156,-3.8096,-3.3738,-3.7875,-3.6906,-3.3158,-3.4936,-3.4593,-3.3194,-3.3774,-3.3767,-3.3428,-3.3039,-3.2482,-3.1737,-3.0182,-2.8705,-2.7568,-2.7667,-2.7445,-2.7317,-2.7927,0.0,0.0,0.0,0.0,0.0,-2.9099,-2.9983,-3.0798,-3.0577,-3.2347,-3.3941,-3.3881,-3.4844,-3.5814,-3.645,-3.6896,-3.7089,-3.6999,-3.6999,-3.706,-3.7178,-3.7178,-3.73,-3.748,-3.751,-3.751,-3.751,-3.6416,-3.6203,-3.7147,-3.6967,-3.6816,-3.6693,-3.6662,-3.6631,-3.6538,-3.6538,-3.6538,-3.6507,-3.6507,-3.663,-3.6878,-3.7747,-3.8276,-3.8558,-3.997,-4.0596,-4.0712,-4.1679,-4.2209,-4.2556,-4.3921,-4.4495,-4.4593,-4.5498,-4.5823,-4.5823,0.0,0.0,0.0,0.0,0.0,0.0,-3.4531,-3.485,-3.5409,0.0,0.0,0.0,-3.7829,-3.7954,-3.7663,-3.6923,-3.6858,-3.6858,-3.6858,-3.6529,-3.6465,-3.6858,-3.5785,-3.5552,-3.6303,-3.5266,-3.504,-3.5655,-3.4277,-3.3921,-3.4522,-3.2974,-3.2749,-3.3712,-3.4348,-3.4574,-3.4716,-3.7857,-3.7316,-3.4588,-3.7214,-3.6988,-3.513,-3.6276,-3.5893,-3.4872,-3.5792,-3.576,-3.5245,-3.509,-3.3878,-3.2222,-3.0992,-2.9145,-2.7507,-2.803,-2.7868,-2.7557,-2.7933,-2.8334,-2.8735,-2.9019,0.0,0.0,-2.8672,-2.9698,-3.0481,-2.9769,-3.1413,-3.2786,-3.2031,-3.2846,-3.3878,-3.4573,-3.5184,-3.5949,-3.7054,-3.7211,-3.7241,-3.7329,-3.7329,-3.7359,-3.748,-3.751,-3.751,-3.751,-3.6663,-3.645,-3.7177,-3.6877,-3.6662,-3.6569,-3.6507,-3.6507,-3.6507,-3.6507,-3.6507,-3.6507,-3.6507,-3.6507,-3.6507,-3.7405,-3.7996,-3.8401,-3.9719,-4.0475,-4.0788,-4.1435,-4.1644,-4.1735,-4.3314,-4.3948,-4.4109,-4.5336,-4.5823,-4.5823,0.0,0.0,0.0,-3.3874,-3.4229,-3.4536,-3.4622,-3.5195,-3.5664,0.0,-3.6548,-3.7173,-3.7279,-3.7279,-3.702,-3.6341,-3.6238,-3.6173,-3.6147,-3.6173,-3.6206,-3.6303,-3.559,-3.5519,-3.6173,-3.4813,-3.4748,-3.6076,-3.3942,-3.3677,-3.504,-3.3491,-3.291,-3.3226,0.0,-3.3234,-3.2449,-3.5461,-3.7663,-3.8954,-3.6621,-3.7015,-3.8893,-3.7825,-3.7224,-3.7081,-3.8563,-3.8123,-3.6946,-3.7729,-3.5969,-3.3388,-3.304,-3.0473,-2.7806,-2.8853,-2.8505,-2.7821,-2.7798,-2.7834,-2.8135,-2.8775,-2.8491,0.0,-2.8189,-2.958,-3.0503,-2.9312,-3.0559,-3.1469,-3.0275,-3.0622,-3.1318,-3.1975,-3.2703,-3.4099,-3.6753,-3.7259,-3.7322,-3.7259,-3.7385,-3.751,-3.751,-3.751,-3.751,-3.751,-3.748,-3.7359,-3.721,-3.6877,-3.6693,-3.6693,-3.6538,-3.6507,-3.6507,-3.6507,-3.6507,-3.6507,-3.6507,-3.6507,-3.6507,-3.7312,-3.8089,-3.8871,-3.9688,-4.0541,-4.1302,-4.1095,-4.0922,-4.0972,-4.2451,-4.3114,-4.3403,-4.5043,-4.5724,-4.5823,0.0,0.0,0.0,0.0,-3.4733,-3.4755,-3.4782,-3.5407,-3.5744,-3.5224,-3.6362,-3.7252,-3.7279,-3.7279,-3.6961,-3.6109,-3.5667,-3.537,-3.5265,-3.5344,-3.5687,-3.627,-3.559,-3.5292,-3.5422,-3.4554,-3.423,-3.4522,-3.3525,-3.3493,-3.4295,-3.2749,-3.2708,-3.3874,-3.2741,-3.2797,-3.3647,-3.3226,-3.4554,-3.7015,-3.8181,-3.7543,-3.6045,-3.7575,-3.7112,-3.5796,-3.7721,-3.7556,-3.6449,-3.6605,-3.6244,-3.524,-3.269,-3.1107,-2.9916,-2.8559,-2.7788,-2.7284,-2.7002,-2.6958,-2.7158,-2.7938,-2.7933,0.0,-2.8721,-2.8821,-2.8767,-2.899,-2.9011,-2.9048,-2.9202,-2.988,-3.0457,-3.0583,-3.1659,-3.303,-3.4561,-3.5814,-3.6379,-3.5726,-3.6727,-3.751,-3.751,-3.751,-3.751,-3.751,-3.7359,-3.721,-3.706,-3.6816,-3.6662,-3.6538,-3.6507,-3.6507,-3.6507,-3.6507,-3.6507,-3.6507,-3.6507,-3.6507,-3.6507,-3.6692,-3.6847,-3.7063,-3.7902,-3.8777,-3.9624,-4.0089,-4.0585,-4.1112,-4.1817,-4.2505,-4.3341,-4.4369,-4.5173,-4.5823,0.0,0.0,0.0,0.0,-3.5198,-3.553,-3.591,-3.6607,-3.7012,-3.6712,-3.7349,-3.7598,-3.6886,-3.6707,-3.6228,-3.513,-3.4743,0.0,-3.4549,-3.4626,-3.4813,-3.5202,-3.4845,-3.4651,-3.4651,-3.4651,-3.4457,-3.4101,-3.4133,-3.4133,-3.4068,-3.3307,-3.2983,-3.3064,-3.2983,-3.2983,-3.3097,-3.3453,-3.4568,-3.6228,-3.697,-3.7035,-3.6809,-3.7875,-3.7644,-3.6809,-3.785,-3.7786,-3.7132,-3.6422,-3.5964,-3.5467,-3.391,-3.2184,-3.0523,-2.9405,-2.8586,-2.7933,-2.7297,-2.6985,-2.6908,-2.7309,-2.7403,0.0,0.0,-2.8632,-2.9019,-2.8535,-2.8839,-2.8821,-2.7556,-2.8329,-2.9042,-2.8626,-2.9209,-3.0125,-3.1332,-3.345,-3.4956,-3.5279,-3.5998,-3.6564,-3.6911,-3.7259,-3.751,-3.751,-3.7389,-3.724,-3.6999,-3.6908,-3.6754,-3.6538,-3.6507,-3.6507,-3.6507,-3.6507,-3.6507,-3.6507,-3.6507,-3.6507,-3.6507,-3.6507,-3.6723,-3.7157,-3.7591,-3.8463,-3.9621,-3.9963,-4.0493,-4.1146,-4.1731,-4.2451,-4.3305,-4.4208,-4.5043,-4.5823,0.0,0.0,0.0,0.0,-3.5497,0.0,0.0,0.0,-3.7713,-3.7959,-3.7959,-3.77,-3.6983,-3.6389,-3.5819,-3.5344,-3.4683,0.0,-3.4665,-3.4688,-3.4493,-3.4075,-3.4205,-3.423,-3.4075,-3.4683,-3.4683,-3.4101,-3.4683,-3.4683,-3.4101,-3.4101,-3.3485,-3.2449,-3.3453,-3.3396,-3.2692,-3.427,-3.5356,-3.5964,-3.5519,-3.6469,-3.8157,-3.8201,-3.8141,-3.8044,-3.8173,-3.8237,-3.8044,-3.664,-3.5792,-3.5253,-3.4884,-3.2923,-3.068,-3.0236,-2.9368,-2.834,-2.758,-2.7003,-2.6635,-2.6816,-2.7017,-2.728,0.0,0.0,0.0,-2.8355,-2.9013,-2.8996,-2.6395,-2.7111,-2.7756,-2.6702,-2.6955,-2.7491,-2.822,-3.0494,-3.2588,-3.395,-3.4387,-3.483,-3.5496,-3.65,-3.7225,-3.7478,-3.751,-3.7361,-3.706,-3.6999,-3.6847,-3.6538,-3.6507,-3.6507,-3.6507,-3.6507,-3.6507,-3.6507,-3.6507,-3.6507,-3.6507,-3.6507,-3.6878,-3.756,-3.756,-3.8431,-3.9836,-3.9836,-4.0335,-4.1081,-4.1644,-4.2334,-4.3055,-4.3725,-4.4656,-4.553,-3.4101,-3.4,0.0,0.0,0.0,0.0,0.0,0.0,-3.5785,-3.6465,-3.6362,-3.698,-3.8926,-3.7266,-3.6957,-3.9398,-3.7222,-3.6073,-3.6722,-3.6757,-3.5916,-3.4014,-3.4665,-3.4697,-3.3924,-3.4115,-3.4165,-3.4101,-3.4165,-3.4165,-3.4101,-3.4101,-3.4003,-3.3841,-3.3388,-3.3734,-3.4639,-3.4214,-3.48,-3.6061,-3.6497,-3.691,-3.7307,-3.8092,-3.7959,-3.7506,-3.8153,-3.8379,-3.8222,-3.7163,-3.6369,-3.554,-3.3863,-3.2399,-3.1133,-3.0145,-2.856,-2.7045,-2.671,-2.6081,-2.5688,-2.6495,-2.715,-2.7952,-2.9501,0.0,-2.9006,-2.8912,0.0,-2.804,-2.6942,0.0,0.0,-2.5535,-2.665,-2.7457,-2.6398,-2.7026,-2.8104,-2.939,-3.0685,-3.1797,-3.2521,-3.4455,-3.6181,-3.7415,-3.751,-3.7421,-3.721,-3.706,-3.6908,-3.6693,-3.6538,-3.6507,-3.6507,-3.6507,-3.6507,-3.6507,-3.6507,-3.6507,-3.6507,-3.6507,-3.6569,-3.663,-3.663,-3.7528,-3.8958,-3.8958,-3.9703,-4.0848,-4.091,-4.1479,-4.2209,-4.2128,-4.3176,-4.4656,-3.4101,-3.405,0.0,0.0,0.0,0.0,0.0,-3.6529,-3.7015,-3.6918,-3.7543,-3.8359,-3.9234,-3.8434,-3.8484,-4.0025,-3.8689,-3.7939,-3.8351,-3.7166,0.0,-3.5893,-3.5046,-3.4787,-3.5285,-3.4917,-3.4716,-3.4716,-3.4716,-3.4522,0.0,0.0,0.0,-3.4101,-3.3809,-3.4464,-3.5711,-3.5421,-3.6072,-3.7279,-3.7178,-3.7371,-3.7822,-3.8588,-3.8998,-3.9023,-3.8116,-3.857,-3.9221,-3.6667,-3.6506,-3.6856,-3.3924,-3.2652,-3.2062,-3.1044,-2.9533,-2.814,-2.7881,-2.7906,-2.8046,-2.8004,-2.8583,-2.9415,-3.0559,-2.9904,-2.921,-2.998,0.0,0.0,0.0,0.0,0.0,0.0,-2.6167,-2.6345,-2.5403,-2.4778,-2.5519,-2.8436,-2.9406,-3.0577,-3.2494,-3.3603,-3.4573,-3.5581,-3.6055,-3.619,-3.5985,-3.6652,-3.6908,-3.6723,-3.6569,-3.6507,-3.6507,-3.6507,-3.6507,-3.6507,-3.6507,-3.6507,-3.6507,-3.6507,-3.6507,-3.6507,-3.6507,-3.7093,-3.8083,-3.8614,-3.936,-4.0256,-4.0659,-4.1252,-4.1911,-4.1841,-4.2634,-4.3818,-3.3841,0.0,0.0,0.0,-3.4741,-3.4781,-3.5279,-3.6567,-3.7533,-3.7543,-3.8452,-3.9331,-4.0015,-3.9312,-3.9641,-4.1741,-4.0652,-4.0113,-4.0702,-3.8831,-3.7635,-3.7439,-3.5844,-3.5351,-3.6131,-3.5539,-3.5098,-3.4903,-3.4903,-3.4619,0.0,0.0,0.0,0.0,-3.4101,-3.4787,-3.5932,-3.6125,-3.6975,-3.8177,-3.7907,-3.8355,-3.9137,-3.9234,-3.9777,-4.0254,-3.8537,-3.9023,-3.9965,-3.6662,-3.663,-3.7427,-3.433,-3.309,-3.2648,-3.1956,-3.0664,-2.9413,-2.9226,-2.9579,-2.9855,-2.9155,-2.9604,-3.0282,-3.0893,-3.0148,-2.9635,-3.0644,-3.0045,0.0,0.0,0.0,0.0,0.0,0.0,-2.5937,-2.4581,-2.3659,-2.4242,-2.7243,-2.8209,-2.95,-3.1715,-3.2332,-3.2946,-3.3634,-3.4549,-3.5089,-3.5194,-3.634,-3.6938,-3.6785,-3.66,-3.6507,-3.6507,-3.6507,-3.6507,-3.6507,-3.6507,-3.6507,-3.6507,-3.6507,-3.6507,-3.6507,-3.6507,-3.6876,-3.7554,-3.8177,-3.892,-3.9756,-4.0251,-4.087,-4.1422,-4.1422,-4.2027,-4.2922,-3.3153,-3.3647,0.0,-3.4133,-3.3582,-3.3113,-3.2933,-3.4284,-3.5985,-3.7915,-3.8065,-3.9065,-4.1979,-3.9583,-4.0112,-4.5989,-4.3738,-4.2652,-4.4236,-4.2915,-4.079,-3.7826,-3.7354,-3.6776,-3.5828,-3.5426,-3.4845,-3.4133,-3.4133,-3.4133,0.0,0.0,0.0,0.0,-3.4101,-3.4445,-3.5063,-3.5739,-3.686,-3.8241,-3.8885,-4.007,-4.1353,-3.9994,-3.9897,-4.0383,-3.97,-3.9865,-4.0127,-3.7676,-3.6886,-3.6662,-3.5058,-3.3603,-3.2513,-3.2638,-3.159,-3.0322,-3.018,-3.0069,-2.9847,-2.9163,-2.9509,-3.0067,-3.0212,-3.0084,-3.006,-3.0363,-3.0188,-2.984,-2.9347,0.0,0.0,0.0,0.0,0.0,0.0,-2.4017,-2.4482,-2.4606,-2.6417,-2.8008,-2.8842,-3.0098,-3.1242,-3.2117,-3.3464,-3.4589,-3.5363,-3.6399,-3.6999,-3.6969,-3.6693,-3.6507,-3.6507,-3.6507,-3.6507,-3.6507,-3.6507,-3.6507,-3.6507,-3.6507,-3.6507,-3.6507,-3.6507,-3.6876,-3.7492,-3.7523,-3.8323,-3.9524,-3.9554,-3.9955,-4.0536,-4.0536,-4.1075,-4.1837,0.0,0.0,0.0,-3.3518,-3.3226,-3.3226,-3.3605,-3.4949,-3.7151,-4.0582,-4.1435,-4.3265,-4.7501,-4.7133,-4.736,-4.9255,-4.8523,-4.7597,-4.6684,-4.4288,-4.2672,-4.2112,-3.9252,-3.7987,-3.8638,-3.6161,-3.4806,-3.4684,-3.319,-3.2482,0.0,0.0,0.0,0.0,-3.342,-3.4334,-3.5899,-3.6578,-3.7621,-3.8885,-3.9111,-3.9876,-4.0834,-4.0318,-4.0607,-4.1126,-4.0445,-4.0286,-4.0127,-3.7712,-3.7267,-3.7387,-3.5222,-3.4192,-3.3932,-3.4462,-3.3571,-3.2558,-3.301,-3.3481,-3.3666,-3.2997,-3.2577,-3.2311,-3.2361,-3.0837,-2.969,-3.071,-3.0125,-2.9525,-2.9942,0.0,0.0,0.0,0.0,0.0,0.0,-2.4089,-2.4513,-2.4513,-2.5495,-2.6368,-2.6695,-2.7637,-2.8363,-2.8752,-3.0511,-3.1672,-3.1918,-3.4297,-3.5627,-3.5627,-3.6198,-3.6507,-3.6507,-3.6507,-3.6507,-3.6507,-3.6507,-3.6507,-3.6507,-3.6507,-3.6507,-3.6507,-3.6507,-3.663,-3.6876,-3.7307,-3.8046,-3.8908,-3.9339,-3.989,-4.0505,-4.0505,-4.0662,-4.1106,-3.3874,-3.3744,-3.368,-3.3485,-3.3453,-3.3655,-3.4207,-3.6287,-3.9158,-4.296,-4.4398,-4.6635,-5.0659,-5.0492,-5.0359,-5.0994,-5.0445,-4.9357,-4.7656,-4.5417,-4.4044,-4.3822,-4.0569,-3.9318,-4.0479,-3.6956,-3.5316,-3.576,-3.3219,-3.2192,0.0,0.0,0.0,0.0,-3.3225,-3.4154,-3.5623,-3.697,-3.8072,-3.8943,-3.943,-4.0264,-4.113,-4.0264,-4.0647,-4.1482,-4.048,-4.0256,-4.0102,-3.8059,-3.7869,-3.8097,-3.6011,-3.5354,-3.5386,-3.5637,-3.5058,-3.4479,-3.4899,-3.5454,-3.5695,-3.4995,-3.4186,-3.3475,-3.3226,-3.1639,-3.0401,-3.1114,-3.0661,-3.0101,-3.0014,0.0,0.0,0.0,0.0,0.0,0.0,-2.4657,-2.4803,-2.4472,-2.5267,-2.5703,-2.5321,-2.6174,-2.6698,-2.6608,-2.8563,-2.9904,-3.0172,-3.3173,-3.4909,-3.4909,-3.595,-3.6507,-3.6507,-3.6507,-3.6507,-3.6507,-3.6507,-3.6507,-3.6507,-3.6507,-3.6507,-3.6507,-3.6507,-3.6507,-3.6538,-3.7215,-3.7892,-3.8569,-3.9247,-3.989,-4.0505,-4.0505,-4.0505,-4.0759,-3.3226,-3.3097,-3.3291,-3.3971,-3.4133,-3.429,-3.468,-3.8072,-4.1731,-4.4916,-4.6847,-4.8995,-5.1697,-4.9986,-4.9452,-5.1428,-4.9787,-4.8298,-4.7419,-4.6433,-4.5069,-4.3306,-4.1419,-4.0699,-4.1324,-3.7792,-3.6309,-3.7053,-3.4118,0.0,0.0,0.0,0.0,0.0,-3.3411,-3.3758,-3.4147,-3.6809,-3.8151,-3.8541,-3.9718,-4.1103,-4.2167,-3.9859,-4.0045,-4.132,-3.9962,-3.978,-3.9983,-3.8631,-3.8515,-3.8718,-3.7374,-3.6926,-3.6798,-3.6098,-3.5957,-3.6071,-3.5934,-3.6011,-3.59,-3.5091,-3.4334,-3.3604,-3.28,-3.2393,-3.2064,-3.1554,-3.1703,-3.142,-2.9635,-3.0012,0.0,0.0,0.0,0.0,0.0,-2.5664,-2.5415,-2.4482,-2.5626,-2.5939,-2.4544,-2.5598,-2.6106,-2.5561,-2.7579,-2.9234,-3.0054,-3.3016,-3.4753,-3.488,-3.5796,-3.6353,-3.6507,-3.6415,-3.6415,-3.6507,-3.6507,-3.6507,-3.6507,-3.6507,-3.6507,-3.6507,-3.6507,-3.6507,-3.6538,-3.7215,-3.7892,-3.8569,-3.9247,-3.989,-4.0505,-4.0505,-4.0505,-4.0759,-3.3348,-3.3097,-3.3291,-3.3971,-3.4554,-3.4975,-3.5059,-3.9106,-4.3337,-4.6682,-4.8827,-5.1562,-5.5553,-5.4805,-5.3618,-5.2775,-5.2605,-5.1793,-4.9984,-4.7968,-4.7104,-4.7699,-4.4102,-4.2013,-4.1825,-3.9336,-3.7416,-3.6144,-3.3809,-3.2528,-3.2183,0.0,0.0,0.0,0.0,-3.2361,-3.2176,-3.5715,-3.7901,-3.8979,-3.8789,-3.9242,-3.9826,-3.8882,-3.9101,-3.9753,-3.928,-3.887,-3.8459,-3.7958,-3.79,-3.7966,-3.7616,-3.743,-3.7311,-3.7236,-3.7262,-3.7262,-3.7202,-3.7402,-3.7383,-3.6394,-3.5719,-3.507,-3.4266,-3.3201,-3.238,-3.224,-3.1847,-3.1392,-3.0805,-3.1402,-3.13,0.0,0.0,0.0,0.0,-2.652,-2.6238,-2.5288,-2.5685,-2.5269,-2.3277,-2.3897,-2.4014,-2.3006,-2.5353,-2.7358,-2.8478,-3.0648,-3.2738,-3.4616,-3.3884,-3.4414,-3.6476,-3.5521,-3.5521,-3.6507,-3.6507,-3.6507,-3.6507,-3.6507,-3.6507,-3.6507,-3.6507,-3.6507,-3.6538,-3.7215,-3.7892,-3.8569,-3.9247,-3.989,-4.0505,-4.0505,-4.0505,-4.0724,-3.3744,-3.4068,-3.4619,-3.5007,-3.7214,-3.8554,-3.7475,-4.0352,-4.3974,-4.7534,-4.9989,-5.2536,-5.5551,-5.5894,-5.5281,-5.3856,-5.2909,-5.1698,-5.0125,-4.7995,-4.7141,-4.7912,-4.4658,-4.262,-4.2158,-3.958,-3.7616,-3.6364,-3.375,-3.2303,-3.1964,0.0,0.0,0.0,0.0,-3.1602,-3.1912,-3.5756,-3.8229,-3.9537,-3.883,-3.9122,0.0,-3.8605,-3.8541,-3.9122,-3.9035,-3.8526,-3.786,-3.7775,-3.7658,-3.7628,-3.7628,-3.7599,-3.7599,-3.7687,-3.7746,-3.7804,-3.7804,-3.795,-3.7908,-3.732,-3.671,-3.6158,-3.5609,-3.4627,-3.3837,-3.3784,-3.3186,-3.2463,-3.1817,-3.16,-3.1046,0.0,0.0,0.0,-2.7315,-2.7875,-2.7781,-2.6224,-2.6761,-2.6408,-2.4206,-2.3877,-2.3374,-2.2374,-2.495,-2.6735,-2.7113,-3.0304,-3.2391,-3.3018,-3.3844,-3.444,-3.481,-3.4654,-3.4934,-3.5645,-3.5645,-3.5922,-3.6507,-3.6507,-3.6507,-3.6507,-3.6815,-3.6938,-3.6999,-3.7984,-3.86,-3.9,-3.9674,-4.0166,-4.057,-4.0917,-4.1075,-4.1295,-3.4367,-3.5311,-3.6217,-3.6147,-4.0057,-4.2609,-4.0809,-4.2452,-4.5072,-4.819,-5.0756,-5.2705,-5.3849,-5.4873,-5.5144,-5.4194,-5.1877,-5.0063,-4.916,-4.7413,-4.6384,-4.6419,-4.4165,-4.2778,-4.2526,-3.9431,-3.7648,-3.7247,-3.4011,0.0,0.0,0.0,0.0,0.0,0.0,-3.1632,-3.3045,-3.6274,-3.8526,-3.9897,-3.9257,-3.9766,-4.0725,-3.8784,-3.8467,-3.9035,-3.9035,-3.8526,-3.7863,-3.7746,-3.7628,-3.751,-3.7539,-3.7599,-3.7626,-3.7687,-3.7743,-3.7831,-3.7831,-3.7831,-3.7831,-3.786,-3.7412,-3.6937,-3.6791,-3.6222,-3.5717,-3.5577,-3.498,-3.4094,-3.2924,-3.1582,-3.0244,0.0,0.0,-2.8176,-2.8032,-2.928,-2.9351,-2.7114,-2.8206,0.0,-2.6031,-2.4823,-2.3853,-2.3091,-2.5627,-2.7,-2.6472,-3.0729,-3.2591,-3.1287,-3.4265,-3.4959,-3.3039,-3.3937,-3.456,-3.4905,-3.4628,-3.5213,-3.6507,-3.6507,-3.6507,-3.6538,-3.7215,-3.7492,-3.7615,-3.897,-3.9585,-3.9742,-4.0293,-4.0539,-4.0666,-4.1647,-4.1961,-4.2182,-3.5007,-3.5423,-3.5754,-3.5309,-3.8237,-4.1306,-4.318,-4.745,-5.0419,-5.0289,-5.2065,-5.3717,-5.47,-5.4228,-5.3382,-5.2303,-5.1627,-5.0783,-4.9579,-4.7909,-4.728,-4.806,-4.4746,-4.3001,-4.3234,-4.0829,-3.9035,-3.8015,-3.5436,-3.3614,0.0,0.0,0.0,0.0,0.0,-3.3087,-3.5767,-3.571,-3.7051,-3.9193,-3.9065,-3.8809,-3.8584,-3.9507,-3.9537,-3.9149,-3.9149,-3.8555,-3.7714,-3.7716,-3.7628,-3.7539,-3.7775,-3.7596,-3.7359,-3.7596,-3.7596,-3.7476,-3.7476,-3.7476,-3.7506,-3.7685,-3.7442,-3.7229,-3.7435,-3.6956,-3.6416,-3.6384,-3.5844,-3.5249,-3.4916,-3.3634,-3.23,-3.133,-2.9814,-2.8755,-2.8732,-2.9572,-2.9588,-2.7884,-2.9045,-2.8902,-2.6167,-2.5726,-2.5405,-2.4882,-2.6422,-2.7732,-2.8595,-2.9438,-3.071,-3.2413,-3.1942,-3.2791,-3.5115,-3.3576,-3.4197,-3.6938,-3.5306,-3.5213,-3.6507,-3.6507,-3.6507,-3.6538,-3.7215,-3.7492,-3.7615,-3.897,-3.9899,-4.056,-4.0512,-4.0578,-4.0935,-4.2416,-4.2847,-4.2829,-3.707,-3.6784,-3.6765,-3.7463,-4.1102,-4.4489,-4.623,-4.9928,-5.2011,-5.0737,-5.1457,-5.2267,-5.2706,-5.2977,-5.2706,-5.1697,-5.1287,-5.0545,-4.9388,-4.7984,-4.7412,-4.776,-4.5034,-4.329,-4.288,-4.1277,-3.9518,-3.7633,-3.545,-3.3678,0.0,0.0,0.0,-2.8642,0.0,-3.2921,-3.5143,-3.6472,-3.7528,-3.8403,-3.9319,-3.9475,-3.9218,-4.0017,-4.0079,-3.9787,-3.9876,-3.9275,-3.8398,-3.7958,-3.7716,-3.7628,-3.7775,-3.7567,-3.7328,-3.7508,-3.7417,-3.7328,-3.7508,-3.7476,-3.7417,-3.7537,-3.7358,-3.7238,-3.7508,-3.7225,-3.6943,-3.6999,-3.646,-3.5795,-3.498,-3.4284,-3.3535,-3.2714,-3.1074,-2.9897,-2.9897,-3.0019,-2.9934,-2.954,-3.0574,-3.0591,-2.8816,-2.9019,-2.8151,-2.5456,-2.686,-2.7911,-2.8132,-2.9722,-3.0992,-3.1836,-3.2485,-3.3215,-3.4063,-3.3756,-3.4378,-3.5922,-3.4967,-3.5213,-3.6507,-3.6507,-3.6507,-3.6538,-3.7215,-3.7707,-3.8138,-3.9493,-4.0266,-4.0612,-4.0539,-4.0859,-4.1465,-4.2594,-4.318,-4.351,-3.9626,-3.9264,-3.927,-4.0515,-4.4553,-4.7891,-4.8523,-5.0931,-5.229,-5.1253,-5.098,-5.0892,-5.0861,-5.2033,-5.233,-5.1223,-5.0872,-5.0103,-4.8595,-4.7831,-4.7255,-4.6803,-4.4775,-4.3421,-4.2912,-4.1277,-3.9487,-3.7536,-3.5494,-3.3671,-3.2075,0.0,0.0,0.0,-3.1104,-3.2831,-3.4444,-3.7318,-3.8287,-3.8062,-3.964,-4.0275,-4.0305,-4.0466,-4.0561,-4.0589,-4.0515,-4.0065,-3.9333,-3.8322,-3.7889,-3.7746,-3.7716,-3.7537,-3.7358,-3.7328,-3.7238,-3.721,-3.748,-3.7449,-3.7358,-3.7358,-3.7238,-3.7178,-3.7268,-3.7268,-3.7268,-3.7387,-3.7006,-3.634,-3.5145,-3.4727,-3.4284,-3.3329,-3.1706,-3.0548,-3.0417,-3.0064,-3.013,-3.0948,-3.152,-3.169,-3.1255,-3.1444,-3.0093,-2.6372,-2.772,-2.8548,-2.8134,-3.0275,-3.1388,-3.1269,-3.3083,-3.373,-3.3098,-3.3872,-3.4558,-3.5152,-3.469,-3.5213,-3.6507,-3.6507,-3.6569,-3.6753,-3.743,-3.8169,-3.9031,-4.0043,-4.0539,-4.0574,-4.0539,-4.1044,-4.1934,-4.2647,-4.3324,-4.4006,-4.2209,-4.334,-4.4091,-4.3233,-4.5924,-4.8332,-4.866,-5.0562,-5.2327,-5.3273,-5.2286,-5.1483,-5.1429,-5.2231,-5.1991,-4.9939,-5.0434,-4.973,-4.7017,-4.7358,-4.7097,-4.5814,-4.3684,-4.3202,-4.4528,-4.1139,-3.9242,-3.9014,-3.6646,-3.4302,-3.2075,0.0,0.0,-3.1597,-3.2409,-3.4046,-3.6193,-3.7194,-3.807,-3.8794,-3.9742,-4.0184,-4.0369,-4.1044,-4.1362,-4.1387,-4.0739,-4.0448,-4.0159,-3.8832,-3.8119,-3.786,-3.7746,-3.7478,-3.7178,-3.709,-3.703,-3.703,-3.706,-3.7119,-3.7208,-3.7208,-3.7057,-3.6936,-3.6998,-3.721,-3.7387,-3.7417,-3.7504,-3.744,-3.7016,-3.5804,-3.4379,-3.2905,-3.1063,-2.9637,-2.9155,-2.9147,-2.9659,-3.104,-3.0717,-3.0615,-3.1135,-3.0093,-2.9301,-2.9106,-2.9809,-3.0543,-3.115,-3.0264,-3.0489,-3.2133,-3.1671,-3.2431,-3.4665,-3.3435,-3.4284,-3.7184,-3.5398,-3.5213,-3.6507,-3.6507,-3.6815,-3.743,-3.8138,-3.9121,-4.032,-4.0443,-4.0608,-4.0749,-4.0574,-4.1148,-4.2143,-4.2683,-4.3324,-4.4006,-4.4886,-4.4384,-4.4291,-4.5038,-4.6946,-4.8707,-4.9811,-5.1137,-5.2158,-5.257,-5.2131,-5.1799,-5.1814,-5.1822,-5.103,-4.9091,-4.9859,-4.9231,-4.6493,-4.7287,-4.7136,-4.5511,-4.3777,-4.3234,-4.4009,-4.1626,-4.0405,-4.0528,-3.7575,-3.5387,-3.3904,-3.1878,-3.1784,-3.332,-3.4062,-3.5208,-3.6673,-3.7873,-3.8376,-3.8403,-3.9792,-4.0303,-4.0369,-4.12,-4.181,-4.2067,-4.0901,-4.048,-4.0286,-3.8861,-3.8266,-3.8065,-3.7804,-3.7478,-3.7148,-3.6877,-3.6785,-3.6754,-3.6938,-3.703,-3.7119,-3.7268,-3.7058,-3.6846,-3.718,-3.7119,-3.7058,-3.7358,-3.7447,-3.7449,-3.7119,-3.6561,-3.572,-3.4313,-3.3274,-3.2234,-3.1249,-3.0485,-3.066,-3.2471,-3.1501,-3.1288,-3.2798,-3.1823,-3.1124,-3.1221,-3.0322,-3.0,-3.0427,-3.0505,-3.1209,-3.2678,-3.2327,-3.3325,-3.5858,-3.4496,-3.484,-3.6876,-3.6076,-3.5953,-3.6507,-3.6907,-3.7461,-3.8138,-3.8816,-3.9398,-3.992,-4.032,-4.0574,-4.0674,-4.111,-4.1872,-4.2833,-4.3304,-4.4018,-4.4682,-4.739,-4.6401,-4.6005,-4.7418,-4.8609,-4.9666,-5.0415,-5.1232,-5.1579,-5.1128,-5.1195,-5.1257,-5.108,-5.0704,-4.9784,-4.8111,-4.8844,-4.8421,-4.6138,-4.6808,-4.6523,-4.4836,-4.3391,-4.2687,-4.288,-4.1563,-4.0793,-4.0694,-3.8403,-3.661,-3.5247,-3.336,-3.3356,-3.49,-3.5482,-3.6229,-3.7077,-3.8211,-3.8526,-3.8334,-3.9849,-4.0522,-4.0722,-4.1552,-4.2197,-4.2424,-4.0998,-4.048,-4.0286,-3.8861,-3.8262,-3.8033,-3.7714,-3.7389,-3.7089,-3.6723,-3.6569,-3.6569,-3.6785,-3.6999,-3.7119,-3.727,-3.7088,-3.6967,-3.7208,-3.7029,-3.6907,-3.7328,-3.7417,-3.7298,-3.706,-3.6908,-3.6441,-3.5156,-3.4707,-3.4098,-3.2819,-3.1668,-3.157,-3.3329,-3.1836,-3.1407,-3.3285,-3.2404,-3.1709,-3.1734,-3.0339,-2.9821,-3.0445,-3.0617,-3.1349,-3.2746,-3.2107,-3.3014,-3.5704,-3.4649,-3.4869,-3.6507,-3.6692,-3.6692,-3.6507,-3.74,-3.8169,-3.8846,-3.949,-3.9767,-3.9828,-4.029,-4.0632,-4.0948,-4.155,-4.2505,-4.3622,-4.3873,-4.4569,-4.5204,-4.9722,-5.0312,-5.0769,-5.0842,-5.1339,-5.1359,-5.0097,-5.0464,-5.0465,-4.9194,-4.9623,-4.9741,-4.8949,-4.884,-4.8224,-4.6743,-4.7291,-4.7168,-4.5887,-4.5687,-4.5006,-4.3589,-4.1981,-4.1243,-4.143,-4.0691,-3.9861,-3.9006,-3.9119,-3.7883,-3.5387,-3.4691,-3.5102,-3.6489,-3.6543,-3.6985,-3.7685,-3.7863,-3.8334,-3.9038,-3.9955,-4.0723,-4.1463,-4.2265,-4.2586,-4.2424,-4.0998,-4.048,-4.0286,-3.8861,-3.8177,-3.7857,-3.7506,-3.721,-3.6938,-3.66,-3.6507,-3.6507,-3.6476,-3.6937,-3.7328,-3.706,-3.721,-3.7328,-3.706,-3.6999,-3.709,-3.7328,-3.7417,-3.7298,-3.706,-3.6724,-3.6107,-3.4807,-3.4591,-3.4154,-3.2983,-3.2204,-3.2101,-3.3007,-3.1218,-3.0465,-3.1903,-3.0804,-3.0067,-3.0108,-3.0077,-3.0749,-3.2292,-3.056,-3.0386,-3.2228,-3.0275,-3.0703,-3.3914,-3.317,-3.4056,-3.6507,-3.7184,-3.7123,-3.6538,-3.7892,-3.8877,-3.9521,-4.0197,-4.0474,-4.0474,-4.0505,-4.1013,-4.1806,-4.1806,-4.2922,-4.4463,-4.4278,-4.4752,-4.5426,-4.935,-5.0109,-5.0765,-5.036,-5.0779,-5.105,-5.0717,-5.0448,-5.0126,-4.9723,-4.9079,-4.8529,-4.8278,-4.8554,-4.8385,-4.7419,-4.6679,-4.6102,-4.5687,-4.4332,-4.3331,-4.2783,-4.0854,-3.9824,-3.9919,-3.9661,-3.9436,-3.9151,-3.9003,-3.7905,-3.5943,-3.5808,-3.6302,-3.7337,-3.7454,-3.7665,-3.8065,-3.8094,-3.8251,-3.8509,-3.9157,-3.9484,-3.9713,-4.1082,-4.1594,-4.1561,-4.1326,-4.0931,-4.0321,-3.921,-3.8243,-3.7506,-3.721,-3.706,-3.6938,-3.66,-3.6507,-3.6507,-3.6507,-3.6631,-3.6877,-3.721,-3.7029,-3.6877,-3.721,-3.7119,-3.6969,-3.6816,-3.6968,-3.703,-3.6724,-3.66,-3.6076,-3.4807,-3.5304,-3.5458,-3.4213,-3.3439,-3.3125,-3.3398,-3.2106,-3.1748,-3.3154,-3.2551,-3.2285,-3.2809,-3.2184,-3.177,-3.1663,-3.1823,-3.2526,-3.3963,-3.3259,-3.3774,-3.5673,-3.5052,-3.561,-3.7184,-3.799,-3.8518,-3.8766,-3.9033,-3.9521,-4.0166,-4.0413,-4.0505,-4.0505,-4.0505,-4.094,-4.1723,-4.247,-4.3395,-4.4377,-4.4888,-4.5238,-4.5426,-4.9859,-5.0343,-5.0745,-5.0125,-5.0311,-5.0376,-4.9917,-4.9726,-4.9421,-4.8782,-4.8304,-4.7764,-4.7144,-4.7619,-4.7809,-4.7429,-4.6451,-4.5808,-4.5687,-4.3945,-4.2654,-4.2042,-4.0178,-3.9151,-3.921,-3.9468,-3.9438,-3.9122,-3.8626,-3.7975,-3.7196,-3.697,-3.7311,-3.8128,-3.7958,-3.7979,-3.8094,-3.8237,-3.8456,-3.8746,-3.9049,-3.9193,-3.9333,-4.0761,-4.0956,-4.0576,-4.0886,-4.0526,-3.9787,-3.8754,-3.7945,-3.7358,-3.709,-3.6908,-3.6785,-3.6569,-3.66,-3.6662,-3.6507,-3.66,-3.6785,-3.715,-3.6968,-3.6723,-3.6997,-3.7029,-3.6908,-3.6569,-3.6785,-3.6908,-3.6569,-3.6507,-3.623,-3.5427,-3.5983,-3.623,-3.5427,-3.456,-3.397,-3.397,-3.2901,-3.2609,-3.3675,-3.345,-3.3443,-3.3907,-3.2919,-3.2392,-3.2531,-3.2678,-3.3164,-3.4011,-3.396,-3.468,-3.6168,-3.5919,-3.6507,-3.7989,-3.852,-3.9265,-4.0062,-3.968,-3.9859,-4.0505,-4.0505,-4.0662,-4.0978,-4.0978,-4.1635,-4.2638,-4.3395,-4.4095,-4.4789,-4.5379,-4.5536,-4.5426,-5.0889,-5.092,-5.0716,-5.0043,-4.9907,-4.948,-4.8166,-4.8497,-4.8392,-4.6883,-4.7403,-4.7341,-4.5782,-4.6166,-4.659,-4.673,-4.6352,-4.5961,-4.566,-4.417,-4.2719,-4.1398,-3.9798,-3.8999,-3.9143,-3.9854,-3.9891,-3.9163,-3.8282,-3.8191,-3.8796,-3.8098,-3.8098,-3.87,-3.815,-3.7889,-3.7918,-3.8266,-3.8829,-3.9505,-3.9476,-3.9658,-4.0092,-4.1168,-4.0793,-3.9754,-4.0,-3.9676,-3.8974,-3.7916,-3.7541,-3.7387,-3.7152,-3.6847,-3.6538,-3.6507,-3.6724,-3.6908,-3.66,-3.6724,-3.6969,-3.6969,-3.6999,-3.6908,-3.66,-3.6754,-3.6877,-3.6538,-3.6754,-3.6877,-3.6569,-3.6507,-3.6507,-3.6507,-3.6507,-3.6445,-3.6384,-3.5335,-3.4589,-3.4496,-3.3584,-3.3115,-3.3599,-3.3754,-3.3785,-3.3692,-3.2711,-3.2804,-3.4527,-3.3406,-3.2819,-3.3139,-3.3173,-3.4082,-3.5919,-3.61,-3.7126,-3.8989,-3.8925,-3.9508,-4.0509,-3.9862,-3.989,-4.0505,-4.0536,-4.104,-4.1771,-4.1833,-4.2745,-4.4206,-4.4423,-4.4867,-4.5531,-4.5714,-4.5677,-4.5463,-4.9569,-4.9893,-5.002,-4.9345,-4.9257,-4.9094,-4.88,-4.8467,-4.8104,-4.7732,-4.7343,-4.6795,-4.5853,-4.5816,-4.5719,-4.5338,-4.4523,-4.4104,-4.4172,-4.2327,-4.1007,-4.0562,-3.9149,-3.8377,-3.8434,-3.9111,-3.9919,-4.0821,-3.9962,-3.9267,-3.8796,-3.8637,-3.8291,-3.7822,-3.778,-3.7801,-3.7918,-3.8151,-3.8743,-3.9476,-3.9213,-3.945,-4.0062,-4.0922,-4.102,-4.0798,-4.1108,-4.0778,-4.0073,-3.955,-3.8663,-3.7836,-3.8049,-3.7709,-3.7088,-3.6631,-3.6569,-3.66,-3.6507,-3.6569,-3.6693,-3.6938,-3.6999,-3.6908,-3.66,-3.6569,-3.66,-3.6538,-3.6538,-3.66,-3.6507,-3.6507,-3.6507,-3.6507,-3.6507,-3.6168,-3.521,-3.4776,-3.4247,-3.3364,-3.3805,-3.4216,-3.4342,-3.5242,-3.5427,-3.4436,-3.4732,-3.4825,-3.462,-3.5381,-3.6004,-3.6384,-3.6878,-3.7466,-3.8056,-3.8616,-3.9425,-4.0551,-4.0386,-4.0439,-4.0715,-4.0389,-4.0351,-4.0536,-4.1124,-4.1467,-4.1688,-4.2212,-4.2957,-4.3772,-4.4102,-4.4684,-4.5315,-4.5677,-4.5677,-4.5463,-4.9206,-4.9816,-5.0226,-4.9177,-4.8746,-4.8621,-4.8893,-4.836,-4.7926,-4.7823,-4.7238,-4.6419,-4.5336,-4.5204,-4.485,-4.3881,-4.388,-4.3847,-4.3686,-4.2294,-4.1231,-4.0788,-3.9725,-3.9275,-3.9597,-3.9951,-4.0593,-4.1398,-4.0124,-3.9459,-3.9395,-3.8985,-3.8764,-3.87,-3.882,-3.8747,-3.8515,-3.8721,-3.8868,-3.9023,-3.9172,-3.9347,-3.9676,-4.0855,-4.0955,-4.0513,-4.1144,-4.0883,-4.021,-3.9906,-3.9395,-3.888,-3.8961,-3.849,-3.7801,-3.7343,-3.6971,-3.6693,-3.6569,-3.6507,-3.66,-3.6908,-3.6877,-3.6754,-3.6754,-3.6631,-3.6507,-3.6507,-3.6507,-3.6507,-3.6507,-3.6507,-3.6507,-3.6507,-3.5984,-3.5397,-3.4684,-3.412,-3.3743,-3.3619,-3.4185,-3.4838,-3.5397,-3.6076,-3.6199,-3.552,-3.5759,-3.5943,-3.6073,-3.6969,-3.753,-3.7651,-3.8299,-3.8891,-3.9365,-4.0115,-4.0745,-4.1187,-4.133,-4.1386,-4.1417,-4.1445,-4.1498,-4.1599,-4.1929,-4.2268,-4.2685,-4.3055,-4.3648,-4.4347,-4.4642,-4.5002,-4.5352,-4.5714,-4.5677,-4.5499,-4.9592,-5.0208,-5.0623,-4.936,-4.8591,-4.8261,-4.8673,-4.8256,-4.7803,-4.7539,-4.7111,-4.6257,-4.4881,-4.4753,-4.4237,-4.2877,-4.3654,-4.4041,-4.3557,-4.2942,-4.2169,-4.1304,-4.0725,-4.0693,-4.1272,-4.1432,-4.1527,-4.159,-4.0092,-3.9711,-4.0283,-3.9553,-3.9521,-4.0092,-4.0214,-3.9921,-3.9369,-3.9551,-3.9347,-3.8926,-3.9441,-3.9621,-3.9702,-4.1069,-4.0951,-4.0133,-4.0925,-4.0762,-4.0219,-3.9973,-3.9971,-4.006,-3.9941,-3.9341,-3.8679,-3.8372,-3.7872,-3.7249,-3.6662,-3.6507,-3.6569,-3.6971,-3.6816,-3.6662,-3.7002,-3.6816,-3.6569,-3.6538,-3.6507,-3.6507,-3.6507,-3.6507,-3.6415,-3.623,-3.5334,-3.4558,-3.437,-3.3588,-3.346,-3.4465,-3.4869,-3.5458,-3.6569,-3.6722,-3.6784,-3.6784,-3.6506,-3.6846,-3.8058,-3.8466,-3.8591,-3.8494,-3.9021,-3.9677,-4.0433,-4.1131,-4.1417,-4.129,-4.175,-4.2025,-4.2115,-4.2386,-4.2654,-4.2891,-4.2834,-4.3204,-4.3876,-4.4006,-4.452,-4.5167,-4.5389,-4.5499,-4.5499,-4.575,-4.5677,-4.5499,-5.0859,-5.042,-5.0111,-4.9877,-4.9241,-4.858,-4.8129,-4.7999,-4.7704,-4.71,-4.6934,-4.6575,-4.5693,-4.5144,-4.4464,-4.3622,-4.3169,-4.2846,-4.278,-4.2556,-4.2012,-4.1148,-4.102,-4.102,-4.1116,-4.1977,-4.2393,-4.2425,-4.2136,-4.1719,-4.1206,-4.1079,-4.0696,-4.0092,-4.0123,-4.0119,-4.0112,-4.0174,-4.0522,-4.1061,-4.0545,-4.1033,-4.2006,-4.1711,-4.1811,-4.2073,-4.1682,-4.1423,-4.1358,-4.1295,-4.0908,-4.055,-4.1134,-4.0598,-3.9777,-3.9715,-3.9467,-3.8779,-3.6971,-3.6507,-3.6661,-3.7278,-3.7188,-3.7002,-3.7341,-3.7157,-3.6847,-3.6569,-3.6507,-3.6507,-3.6507,-3.6507,-3.6138,-3.5056,-3.4715,-3.4247,-3.3208,-3.3777,-3.4372,-3.4589,-3.6075,-3.7154,-3.7338,-3.7861,-3.82,-3.82,-3.8302,-3.8677,-3.9453,-4.0242,-4.0968,-4.1666,-4.1622,-4.1747,-4.2043,-4.2338,-4.2055,-4.129,-4.1384,-4.1659,-4.2084,-4.2174,-4.2443,-4.2922,-4.3474,-4.3679,-4.3692,-4.4465,-4.4818,-4.4986,-4.5352,-4.5499,-4.5499,-4.575,-4.5677,-4.5499,-5.0606,-5.0518,-5.0526,-5.0526,-4.9637,-4.8914,-4.8975,-4.8666,-4.8358,-4.8064,-4.734,-4.6715,-4.6408,-4.5079,-4.4075,-4.3751,-4.3007,-4.2586,-4.2586,-4.2523,-4.23,-4.182,-4.1788,-4.1788,-4.1788,-4.233,-4.2586,-4.2586,-4.2168,-4.2007,-4.204,-4.159,-4.143,-4.1463,-4.1463,-4.1268,-4.1005,-4.1005,-4.1003,-4.0998,-4.1093,-4.1452,-4.2067,-4.2132,-4.2359,-4.2554,-4.2261,-4.2132,-4.2132,-4.2132,-4.1905,-4.1711,-4.2035,-4.1554,-4.082,-4.0635,-4.0132,-3.9376,-3.8435,-3.7997,-3.7964,-3.8465,-3.8183,-3.79,-3.8211,-3.8183,-3.7872,-3.7186,-3.7188,-3.7126,-3.66,-3.6507,-3.6322,-3.5706,-3.5056,-3.4432,-3.3839,-3.4587,-3.5208,-3.5208,-3.6877,-3.8046,-3.8046,-3.876,-3.9195,-3.9195,-4.0175,-4.0872,-4.1185,-4.2009,-4.2679,-4.3063,-4.3025,-4.3025,-4.3094,-4.3163,-4.285,-4.2055,-4.2299,-4.2422,-4.2425,-4.2594,-4.302,-4.3706,-4.38,-4.4068,-4.4477,-4.4675,-4.4911,-4.5241,-4.5315,-4.5463,-4.5677,-4.5787,-4.575,-4.5677,-5.0104,-5.0373,-5.0705,-5.0557,-4.9744,-4.9188,-4.9398,-4.9145,-4.8885,-4.876,-4.777,-4.7078,-4.7156,-4.537,-4.4204,-4.4204,-4.3363,-4.2845,-4.2845,-4.2683,-4.2523,-4.2429,-4.2397,-4.2397,-4.2461,-4.2523,-4.2586,-4.2586,-4.1975,-4.2007,-4.2586,-4.1975,-4.2007,-4.2586,-4.2586,-4.2326,-4.1808,-4.1808,-4.1517,-4.1031,-4.145,-4.1709,-4.1873,-4.2229,-4.2457,-4.2586,-4.2586,-4.2586,-4.2586,-4.2586,-4.2586,-4.2586,-4.2586,-4.2261,-4.1777,-4.1529,-4.0894,-4.0228,-3.9723,-3.9282,-3.9091,-3.9534,-3.9185,-3.8832,-3.9182,-3.9249,-3.8936,-3.7838,-3.8028,-3.806,-3.7033,-3.7064,-3.7064,-3.6599,-3.5851,-3.5256,-3.5101,-3.5633,-3.6226,-3.6661,-3.8051,-3.9031,-3.9216,-4.0001,-4.0504,-4.0504,-4.1844,-4.2708,-4.2896,-4.3539,-4.3924,-4.3924,-4.3924,-4.3861,-4.3703,-4.3829,-4.3453,-4.2442,-4.2968,-4.3031,-4.2695,-4.289,-4.3447,-4.4145,-4.4008,-4.4309,-4.4949,-4.488,-4.5092,-4.5463,-4.5352,-4.5531,-4.5823,-4.5823,-4.5823,-4.5823,-5.0056,-4.9947,-4.9801,-4.9135,-4.9496,-4.9398,-4.8224,-4.8597,-4.8793,-4.8169,-4.7967,-4.7899,-4.7929,-4.6568,-4.5662,-4.5662,-4.4399,-4.3622,-4.3622,-4.2975,-4.2523,-4.2429,-4.2397,-4.246,-4.2555,-4.2586,-4.2586,-4.2586,-4.2554,-4.2554,-4.2586,-4.2554,-4.2554,-4.2586,-4.2586,-4.2554,-4.2522,-4.2522,-4.2489,-4.2392,-4.1808,-4.197,-4.2457,-4.1873,-4.2067,-4.2586,-4.2586,-4.2586,-4.2586,-4.2586,-4.2586,-4.2586,-4.2586,-4.2554,-4.2522,-4.249,-4.2458,-4.1946,-4.0133,-3.9282,-3.9152,-3.9871,-3.9721,-3.9534,-3.9935,-3.9945,-3.9561,-3.8247,-3.878,-3.9156,-3.8091,-3.8717,-3.8775,-3.6991,-3.7147,-3.7242,-3.6638,-3.6884,-3.7746,-3.9557,-4.0127,-4.0597,-4.1309,-4.2164,-4.2674,-4.2674,-4.306,-4.3615,-4.4306,-4.4516,-4.4654,-4.4654,-4.4654,-4.4338,-4.3703,-4.4338,-4.3643,-4.1683,-4.241,-4.2726,-4.2695,-4.2692,-4.3003,-4.3521,-4.4114,-4.4319,-4.4268,-4.507,-4.5463,-4.5531,-4.5714,-4.5755,-4.5823,-4.5823,-4.5823,-4.5823,-5.1172,-5.0823,-5.0452,-5.0257,-5.0037,-4.9462,-4.8095,-4.8531,-4.8889,-4.8648,-4.8285,-4.8188,-4.8541,-4.6957,-4.5629,-4.5208,-4.4269,-4.3524,-4.3039,-4.2748,-4.2555,-4.2523,-4.2523,-4.2523,-4.2586,-4.2586,-4.2586,-4.2586,-4.2586,-4.2586,-4.2586,-4.2586,-4.2586,-4.2586,-4.2586,-4.2586,-4.2586,-4.2586,-4.2586,-4.2586,-4.2295,-4.236,-4.2554,-4.2326,-4.236,-4.2586,-4.2586,-4.2586,-4.2586,-4.2586,-4.2586,-4.2586,-4.2586,-4.2586,-4.2586,-4.2586,-4.2586,-4.2426,-4.1659,-4.1183,-4.0991,-4.1276,-4.1085,-4.0829,-4.0982,-4.115,-4.1087,-4.0355,-4.0769,-4.096,-4.0063,-4.0479,-4.0578,-3.9566,-3.9471,-3.9595,-3.9754,-3.9692,-4.0061,-4.1213,-4.1612,-4.1925,-4.2202,-4.3107,-4.3692,-4.3692,-4.4427,-4.502,-4.5304,-4.5528,-4.5483,-4.5101,-4.5483,-4.525,-4.4338,-4.418,-4.3895,-4.3516,-4.339,-4.3327,-4.3327,-4.3327,-4.364,-4.4232,-4.4342,-4.4683,-4.5159,-4.5258,-4.5463,-4.5677,-4.5609,-4.5714,-4.5823,-4.5823,-4.5823,-4.5823,-5.0945,-5.0632,-5.0132,-4.9807,-4.9649,-4.9127,-4.7803,-4.8394,-4.901,-4.9001,-4.8573,-4.8512,-4.8929,-4.7313,-4.5856,-4.5176,-4.4464,-4.3751,-4.2975,-4.2716,-4.2586,-4.2586,-4.2586,-4.2586,-4.2586,-4.2586,-4.2458,-4.22,-4.2458,-4.2458,-4.2232,-4.2458,-4.2586,-4.2586,-4.2586,-4.2586,-4.2586,-4.2586,-4.2586,-4.2586,-4.2586,-4.2586,-4.2586,-4.2586,-4.2586,-4.2586,-4.2586,-4.2586,-4.2586,-4.2586,-4.2586,-4.2586,-4.2586,-4.2586,-4.2586,-4.2586,-4.2586,-4.2586,-4.2586,-4.2429,-4.2238,-4.2142,-4.1916,-4.1816,-4.2038,-4.2332,-4.2494,-4.2169,-4.2589,-4.275,-4.1903,-4.226,-4.2521,-4.2001,-4.1912,-4.2012,-4.2299,-4.2226,-4.2336,-4.3028,-4.3212,-4.3335,-4.3588,-4.4351,-4.4849,-4.4849,-4.5651,-4.608,-4.5972,-4.6266,-4.5955,-4.4817,-4.5559,-4.5454,-4.4401,-4.4148,-4.4053,-4.4085,-4.3832,-4.3671,-4.3706,-4.3671,-4.3924,-4.4366,-4.448,-4.4858,-4.5439,-4.5437,-4.5536,-4.5787,-4.5677,-4.5677,-4.5823,-4.5823,-4.5823,-4.5823,-4.8914,-4.8914,-4.8478,-4.7134,-4.7998,-4.8446,-4.71,-4.8091,-4.8994,-4.8994,-4.8994,-4.8961,-4.8961,-4.7734,-4.6601,-4.5856,-4.5176,-4.4464,-4.3751,-4.3007,-4.2586,-4.2586,-4.2586,-4.2586,-4.2586,-4.2586,-4.22,-4.1398,-4.22,-4.22,-4.143,-4.2232,-4.2586,-4.2586,-4.2586,-4.2586,-4.2586,-4.2586,-4.2586,-4.2586,-4.2586,-4.2586,-4.2586,-4.2586,-4.2586,-4.2586,-4.2586,-4.2586,-4.2586,-4.2586,-4.2586,-4.2586,-4.2586,-4.2586,-4.2586,-4.2619,-4.2619,-4.2619,-4.2619,-4.2619,-4.2556,-4.2174,-4.2109,-4.2301,-4.3038,-4.3492,-4.3622,-4.3297,-4.4073,-4.4462,-4.3425,-4.4105,-4.4561,-4.3848,-4.4334,-4.4561,-4.3848,-4.4038,-4.4543,-4.5213,-4.4932,-4.5005,-4.5733,-4.6088,-4.6301,-4.6301,-4.6652,-4.6722,-4.6337,-4.6687,-4.5936,-4.3769,-4.4785,-4.4819,-4.3709,-4.4369,-4.4022,-4.2726,-4.339,-4.3706,-4.3709,-4.3706,-4.3703,-4.3734,-4.4433,-4.4717,-4.478,-4.5507,-4.5823,-4.5823,-4.5823,-4.5823,-4.5823,-4.5823,-4.5823,-4.5823,-4.9698,-4.961,-4.9158,-4.7836,-4.7933,-4.8067,-4.7712,-4.8026,-4.8479,-4.8929,-4.8609,-4.8317,-4.8317,-4.7443,-4.6407,-4.5208,-4.4917,-4.4269,-4.3007,-4.2716,-4.2586,-4.2586,-4.2586,-4.2586,-4.2586,-4.2586,-4.2458,-4.2232,-4.2458,-4.2458,-4.2232,-4.2489,-4.2586,-4.2586,-4.2586,-4.2586,-4.2586,-4.2586,-4.2586,-4.2586,-4.2586,-4.2586,-4.2586,-4.2586,-4.2586,-4.2586,-4.2586,-4.2586,-4.2586,-4.2586,-4.2586,-4.2586,-4.2586,-4.2586,-4.2683,-4.3201,-4.3363,-4.3492,-4.401,-4.414,-4.401,-4.3396,-4.3235,-4.3428,-4.4171,-4.4398,-4.456,-4.4946,-4.5271,-4.5496,-4.5413,-4.5844,-4.6112,-4.5612,-4.5525,-4.5597,-4.5888,-4.5389,-4.5248,-4.5917,-4.5695,-4.5543,-4.5765,-4.6012,-4.6156,-4.6156,-4.6369,-4.6615,-4.6927,-4.703,-4.6642,-4.5632,-4.6349,-4.6021,-4.449,-4.4172,-4.4053,-4.4117,-4.3832,-4.3671,-4.3706,-4.3671,-4.3955,-4.4433,-4.4622,-4.5001,-4.5507,-4.5728,-4.5823,-4.5823,-4.5823,-4.5823,-4.5823,-4.5823,-4.5823,-4.5823,-4.958,-4.9521,-4.9158,-4.8063,-4.8351,-4.8614,-4.8398,-4.8595,-4.8957,-4.9319,-4.9056,-4.8792,-4.8792,-4.7898,-4.6846,-4.5669,-4.5114,-4.4302,-4.3104,-4.3039,-4.2877,-4.2619,-4.2586,-4.2586,-4.2586,-4.2586,-4.2425,-4.2136,-4.2425,-4.2425,-4.2136,-4.2458,-4.2586,-4.2586,-4.2586,-4.2586,-4.2586,-4.2586,-4.2586,-4.2586,-4.2586,-4.2586,-4.2586,-4.2586,-4.2586,-4.2586,-4.2586,-4.2586,-4.2586,-4.2586,-4.2586,-4.2586,-4.2586,-4.2813,-4.3104,-4.3589,-4.3913,-4.4237,-4.4658,-4.4787,-4.4755,-4.4593,-4.4334,-4.4334,-4.5014,-4.5208,-4.5403,-4.6083,-4.6245,-4.6306,-4.6518,-4.6754,-4.6823,-4.6582,-4.6366,-4.6374,-4.6828,-4.6332,-4.6097,-4.6515,-4.6337,-4.6227,-4.6227,-4.6404,-4.6545,-4.6649,-4.6719,-4.6858,-4.7064,-4.7233,-4.7071,-4.6547,-4.704,-4.6743,-4.5562,-4.5053,-4.4941,-4.5034,-4.4411,-4.431,-4.4665,-4.4243,-4.4496,-4.5128,-4.4843,-4.5128,-4.5823,-4.5823,-4.5823,-4.5823,-4.5823,-4.5823,-4.5823,-4.5823,-4.5823,-4.5823,-4.9006,-4.8975,-4.879,-4.8095,-4.9006,-4.9644,-4.9077,-4.9526,-4.9932,-4.9999,-4.9965,-4.9898,-4.9898,-4.8689,-4.757,-4.6873,-4.5571,-4.4496,-4.3848,-4.3816,-4.3492,-4.2716,-4.2748,-4.2716,-4.2586,-4.2586,-4.2232,-4.1495,-4.2232,-4.2232,-4.1495,-4.2265,-4.2586,-4.2586,-4.2586,-4.2586,-4.2586,-4.2586,-4.2586,-4.2586,-4.2586,-4.2586,-4.2586,-4.2586,-4.2651,-4.2683,-4.2683,-4.2748,-4.278,-4.2716,-4.2748,-4.278,-4.2716,-4.3201,-4.3816,-4.3881,-4.4366,-4.4885,-4.4949,-4.4982,-4.5111,-4.5759,-4.5435,-4.5144,-4.5759,-4.5888,-4.6115,-4.6828,-4.6989,-4.6989,-4.7054,-4.7087,-4.7054,-4.6989,-4.6989,-4.6992,-4.6892,-4.6892,-4.6892,-4.6892,-4.6892,-4.6892,-4.6892,-4.7129,-4.7365,-4.7535,-4.7634,-4.7464,-4.7059,-4.7366,-4.7332,-4.6786,-4.7062,-4.7129,-4.6883,-4.6717,-4.6295,-4.5584,-4.5034,-4.5175,-4.5889,-4.5045,-4.5037,-4.5665,-4.5001,-4.5128,-4.5823,-4.5823,-4.5823,-4.5823,-4.5823,-4.5823,-4.5823,-4.5823,-4.5823,-4.5823,-4.9786,-4.9669,-4.9492,-4.879,-4.8914,-4.927,-4.9726,-4.939,-4.9357,-4.9932,-4.9492,-4.912,-4.912,-4.8388,-4.757,-4.6873,-4.5571,-4.4723,-4.4561,-4.4561,-4.4237,-4.346,-4.401,-4.3783,-4.2619,-4.2586,-4.2522,-4.2361,-4.2522,-4.2522,-4.2361,-4.2522,-4.2586,-4.2586,-4.2586,-4.2586,-4.2586,-4.2586,-4.2586,-4.2586,-4.2586,-4.2586,-4.2586,-4.2586,-4.2942,-4.346,-4.346,-4.3848,-4.4237,-4.3654,-4.3848,-4.4237,-4.3654,-4.3978,-4.4658,-4.5208,-4.5467,-4.5694,-4.6277,-4.6439,-4.6471,-4.6601,-4.6536,-4.6471,-4.6633,-4.6633,-4.686,-4.7605,-4.7767,-4.7929,-4.8479,-4.8544,-4.8382,-4.7864,-4.7767,-4.7572,-4.6957,-4.6892,-4.6892,-4.6892,-4.6892,-4.6892,-4.6892,-4.7445,-4.7837,-4.7872,-4.8535,-4.8602,-4.7979,-4.8153,-4.7993,-4.7368,-4.7403,-4.7732,-4.8323,-4.7357,-4.6364,-4.5378,-4.5413,-4.5154,-4.4667,-4.4473,-4.4657,-4.5151,-4.4851,-4.5128,-4.5823,-4.5823,-4.5823,-4.5823,-4.5823,-4.5823,-4.5823,-4.5823,-4.5823,-4.5823,-4.9994,-4.9873,-4.9786,-4.9462,-4.9639,-4.9982,-5.0366,-5.0119,-4.9982,-5.0366,-5.0085,-4.9844,-4.9844,-4.8975,-4.7962,-4.6947,-4.6221,-4.5629,-4.5305,-4.5273,-4.4949,-4.4269,-4.4593,-4.4431,-4.3686,-4.3298,-4.2942,-4.2586,-4.2586,-4.2586,-4.2586,-4.2586,-4.2586,-4.2586,-4.2586,-4.2586,-4.2586,-4.2586,-4.2586,-4.2586,-4.2586,-4.2813,-4.3104,-4.3104,-4.3557,-4.4237,-4.4237,-4.4464,-4.4723,-4.4366,-4.4464,-4.4723,-4.4334,-4.4723,-4.5338,-4.5694,-4.605,-4.6407,-4.6795,-4.6892,-4.6892,-4.6892,-4.7151,-4.741,-4.741,-4.741,-4.7605,-4.835,-4.8479,-4.8573,-4.8929,-4.8994,-4.8864,-4.8544,-4.8479,-4.835,-4.7961,-4.7896,-4.7896,-4.7896,-4.7896,-4.7896,-4.7896,-4.8252,-4.8479,-4.8479,-4.8982,-4.9121,-4.873,-4.8905,-4.9079,-4.9183,-4.839,-4.8588,-4.9813,-4.8417,-4.7552,-4.7346,-4.6493,-4.5908,-4.5522,-4.5098,-4.5026,-4.5138,-4.4579,-4.4693,-4.5286,-4.5286,-4.5507,-4.5823,-4.5823,-4.5823,-4.5823,-4.5823,-4.5823,-4.5823,-5.008,-5.008,-5.008,-5.008,-5.0537,-5.0873,-5.0873,-5.0873,-5.0873,-5.0873,-5.0873,-5.0846,-5.0737,-4.9551,-4.8288,-4.7168,-4.6996,-4.6633,-4.6018,-4.5986,-4.5694,-4.4982,-4.5079,-4.5046,-4.4787,-4.4302,-4.3654,-4.278,-4.2651,-4.2586,-4.2586,-4.2586,-4.2586,-4.2586,-4.2586,-4.2586,-4.2586,-4.2586,-4.2683,-4.278,-4.278,-4.3201,-4.3913,-4.3913,-4.4334,-4.4949,-4.4949,-4.5046,-4.5144,-4.5014,-4.5046,-4.5144,-4.5014,-4.5435,-4.6018,-4.6147,-4.6601,-4.7087,-4.7216,-4.7249,-4.7249,-4.7249,-4.7734,-4.822,-4.835,-4.8285,-4.8382,-4.9062,-4.9188,-4.9256,-4.9354,-4.9386,-4.9354,-4.9224,-4.9188,-4.9123,-4.8994,-4.8994,-4.8994,-4.8994,-4.8994,-4.8994,-4.8994,-4.9091,-4.9188,-4.9188,-4.9538,-4.9645,-4.9515,-4.9693,-5.0134,-5.0768,-4.9409,-4.9442,-5.0968,-4.9442,-4.911,-4.9834,-4.8004,-4.7249,-4.732,-4.6372,-4.5844,-4.5701,-4.479,-4.4614,-4.4942,-4.4907,-4.5254,-4.5792,-4.5665,-4.5697,-4.5823,-4.5823,-4.5823,-4.5823,-5.0764,-5.0764,-5.0764,-5.0764,-5.0819,-5.0873,-5.0873,-5.0873,-5.0873,-5.0873,-5.0873,-5.0682,-5.0108,-4.8852,-4.7933,-4.7803,-4.7236,-4.6862,-4.673,-4.673,-4.6407,-4.5694,-4.6277,-4.605,-4.482,-4.5273,-4.4885,-4.3525,-4.291,-4.2586,-4.2586,-4.2586,-4.2586,-4.2586,-4.2586,-4.2586,-4.2586,-4.2586,-4.2975,-4.3525,-4.3525,-4.401,-4.4658,-4.4658,-4.5079,-4.5662,-4.5662,-4.6083,-4.6504,-4.5888,-4.6083,-4.6504,-4.5856,-4.6147,-4.686,-4.7508,-4.7767,-4.7993,-4.8576,-4.8738,-4.8738,-4.8738,-4.8767,-4.9062,-4.9677,-4.9321,-4.9058,-4.9807,-4.9969,-5.0163,-5.0778,-5.0876,-5.0681,-5.0066,-4.9969,-4.9742,-4.9091,-4.8994,-4.8994,-4.8994,-4.8994,-4.8994,-4.8994,-4.958,-4.9969,-4.9969,-5.0921,-5.1096,-5.0297,-5.0588,-5.05,-4.9834,-4.9602,-4.9934,-5.1001,-4.9967,-4.9934,-5.0801,-4.9873,-4.9374,-4.9202,-4.7794,-4.7329,-4.7567,-4.6474,-4.5968,-4.5881,-4.5737,-4.5728,-4.576,-4.5096,-4.5254,-4.5823,-4.5823,-4.5823,-4.5823,-5.0873,-5.0873,-5.0873,-5.0873,-5.0873,-5.0873,-5.0873,-5.0873,-5.0873,-5.0873,-5.0873,-5.0792,-5.0481,-4.9248,-4.816,-4.7405,-4.7066,-4.6892,-4.6892,-4.6892,-4.673,-4.6407,-4.673,-4.6601,-4.5986,-4.5856,-4.55,-4.4885,-4.4172,-4.3848,-4.3816,-4.3427,-4.3201,-4.3201,-4.278,-4.2586,-4.2586,-4.2586,-4.3007,-4.3719,-4.3719,-4.4366,-4.537,-4.537,-4.5791,-4.6407,-4.6407,-4.6601,-4.6828,-4.6504,-4.6633,-4.6828,-4.6504,-4.6925,-4.7572,-4.7896,-4.8285,-4.8605,-4.8897,-4.8994,-4.8994,-4.8994,-4.9285,-4.971,-5.0034,-5.0163,-5.0325,-5.0649,-5.0714,-5.0811,-5.1135,-5.1199,-5.107,-5.0746,-5.0714,-5.0584,-5.026,-5.0228,-5.0228,-5.0228,-5.0228,-5.0228,-5.0228,-5.0519,-5.0751,-5.0862,-5.1451,-5.1667,-5.1372,-5.1628,-5.1569,-5.1201,-5.0667,-5.0834,-5.177,-5.0867,-5.0867,-5.177,-5.1043,-5.0377,-4.9707,-4.8655,-4.8028,-4.7659,-4.6635,-4.5775,-4.5077,-4.5008,-4.4833,-4.4587,-4.4275,-4.4591,-4.5254,-4.5665,-4.5823,-4.5823]},{"header":{"parameterUnit":"m.s-1","parameterCategory":1,"la1":30.6,"la2":28.766,"lo1":-90.7593,"lo2":-88.6598,"dy":0.0162,"dx":0.0183,"nx":116,"ny":114,"refTime":"2023-03-31T12:00:00:Z","depth":0,"parameterNumber":3,"parameterNumberName":"V-component_of_WINDS"},"data":[0.0,0.0,0.0,0.0,0.0,0.0,0.0,0.0,0.0,0.0,0.0,0.0,0.0,0.0,0.0,0.0,0.0,0.0,0.0,0.0,0.0,0.0,0.0,0.0,0.0,0.0,0.0,0.0,0.0,0.0,0.0,0.0,0.0,0.0,0.0,0.0,0.0,0.0,0.0,0.0,0.0,0.0,0.0,0.0,0.0,0.0,0.0,0.0,0.0,0.0,0.0,0.0,0.0,0.0,0.0,0.0,0.0,0.0,0.0,0.0,0.0,0.0,0.0,0.0,0.0,0.0,0.0,0.0,0.0,0.0,0.0,0.0,0.0,0.0,0.0,0.0,0.0,0.0,0.0,0.0,0.0,0.0,0.0,0.0,0.0,0.0,0.0,0.0,0.0,0.0,0.0,0.0,0.0,0.0,0.0,0.0,0.0,0.0,0.0,0.0,0.0,0.0,0.0,0.0,0.0,0.0,0.0,0.0,0.0,0.0,0.0,0.0,0.0,0.0,0.0,0.0,0.0,0.0,0.0,0.0,0.0,0.0,0.0,0.0,0.0,0.0,0.0,0.0,0.0,0.0,0.0,0.0,0.0,0.0,0.0,0.0,0.0,0.0,0.0,0.0,0.0,0.0,0.0,0.0,0.0,0.0,0.0,0.0,0.0,0.0,0.0,0.0,0.0,0.0,0.0,0.0,0.0,0.0,0.0,0.0,0.0,0.0,0.0,0.0,0.0,0.0,0.0,0.0,0.0,0.0,0.0,0.0,0.0,0.0,0.0,0.0,0.0,0.0,0.0,0.0,0.0,0.0,0.0,0.0,0.0,0.0,0.0,0.0,0.0,0.0,0.0,0.0,0.0,0.0,0.0,0.0,0.0,0.0,0.0,0.0,0.0,0.0,0.0,0.0,0.0,0.0,0.0,0.0,0.0,0.0,0.0,0.0,0.0,0.0,0.0,0.0,0.0,0.0,0.0,0.0,0.0,0.0,0.0,0.0,0.0,0.0,0.0,0.0,0.0,0.0,0.0,0.0,0.0,0.0,0.0,0.0,0.0,0.0,0.0,0.0,0.0,0.0,0.0,0.0,0.0,0.0,0.0,0.0,0.0,0.0,0.0,0.0,0.0,0.0,0.0,0.0,0.0,0.0,0.0,0.0,0.0,0.0,0.0,0.0,0.0,0.0,0.0,0.0,0.0,0.0,0.0,0.0,0.0,0.0,0.0,0.0,0.0,0.0,0.0,0.0,0.0,0.0,0.0,0.0,0.0,0.0,0.0,0.0,0.0,0.0,0.0,0.0,0.0,0.0,0.0,0.0,0.0,0.0,0.0,0.0,0.0,0.0,0.0,0.0,0.0,0.0,0.0,0.0,0.0,0.0,0.0,0.0,0.0,0.0,0.0,0.0,0.0,0.0,0.0,0.0,0.0,0.0,0.0,0.0,0.0,0.0,0.0,0.0,0.0,0.0,0.0,0.0,0.0,0.0,0.0,0.0,0.0,0.0,0.0,0.0,0.0,0.0,0.0,0.0,0.0,0.0,0.0,0.0,0.0,0.0,0.0,0.0,0.0,0.0,0.0,0.0,0.0,0.0,0.0,0.0,0.0,0.0,0.0,0.0,0.0,0.0,0.0,0.0,0.0,0.0,0.0,0.0,0.0,0.0,0.0,0.0,0.0,0.0,0.0,0.0,0.0,0.0,0.0,0.0,0.0,0.0,0.0,0.0,0.0,0.0,0.0,0.0,0.0,0.0,0.0,0.0,0.0,0.0,0.0,0.0,0.0,0.0,0.0,0.0,0.0,0.0,0.0,0.0,0.0,0.0,0.0,0.0,0.0,0.0,0.0,0.0,0.0,0.0,0.0,0.0,0.0,0.0,0.0,0.0,0.0,0.0,0.0,0.0,0.0,0.0,0.0,0.0,0.0,0.0,0.0,0.0,0.0,0.0,0.0,0.0,0.0,0.0,0.0,0.0,0.0,0.0,0.0,0.0,0.0,0.0,0.0,0.0,0.0,0.0,0.0,0.0,0.0,0.0,0.0,0.0,0.0,0.0,0.0,0.0,0.0,0.0,0.0,0.0,0.0,0.0,0.0,0.0,0.0,0.0,0.0,0.0,0.0,0.0,0.0,0.0,0.0,0.0,0.0,0.0,0.0,0.0,0.0,0.0,0.0,0.0,0.0,0.0,0.0,0.0,0.0,0.0,0.0,0.0,0.0,0.0,0.0,0.0,0.0,0.0,0.0,0.0,0.0,0.0,0.0,0.0,0.0,0.0,0.0,0.0,0.0,0.0,0.0,0.0,0.0,0.0,0.0,0.0,0.0,0.0,0.0,0.0,0.0,0.0,0.0,0.0,0.0,0.0,0.0,0.0,0.0,0.0,0.0,0.0,0.0,0.0,0.0,0.0,0.0,0.0,0.0,0.0,0.0,0.0,0.0,0.0,0.0,0.0,0.0,0.0,0.0,0.0,0.0,0.0,0.0,0.0,0.0,0.0,0.0,0.0,0.0,0.0,0.0,0.0,0.0,0.0,0.0,0.0,0.0,0.0,0.0,0.0,0.0,0.0,0.0,0.0,0.0,0.0,0.0,0.0,0.0,0.0,0.0,0.0,0.0,0.0,0.0,0.0,0.0,0.0,0.0,0.0,0.0,0.0,0.0,0.0,0.0,0.0,0.0,0.0,0.0,0.0,0.0,0.0,0.0,0.0,0.0,0.0,0.0,0.0,0.0,0.0,0.0,0.0,0.0,0.0,0.0,0.0,0.0,0.0,0.0,0.0,0.0,0.0,0.0,0.0,0.0,0.0,0.0,0.0,0.0,0.0,0.0,0.0,0.0,0.0,0.0,0.0,0.0,0.0,0.0,0.0,0.0,0.0,0.0,0.0,0.0,0.0,0.0,0.0,0.0,0.0,0.0,0.0,0.0,0.0,0.0,0.0,0.0,0.0,0.0,0.0,0.0,0.0,0.0,0.0,0.0,0.0,0.0,0.0,0.0,0.0,0.0,0.0,0.0,0.0,0.0,0.0,0.0,0.0,0.0,0.0,0.0,0.0,0.0,0.0,0.0,0.0,0.0,0.0,0.0,0.0,0.0,0.0,0.0,0.0,0.0,0.0,0.0,0.0,0.0,0.0,0.0,0.0,0.0,0.0,0.0,0.0,0.0,0.0,0.0,0.0,0.0,0.0,0.0,0.0,0.0,0.0,0.0,0.0,0.0,0.0,0.0,0.0,0.0,0.0,0.0,0.0,0.0,0.0,0.0,0.0,0.0,0.0,0.0,0.0,0.0,0.0,0.0,0.0,0.0,0.0,0.0,0.0,0.0,0.0,0.0,0.0,0.0,0.0,0.0,0.0,0.0,0.0,0.0,0.0,0.0,0.0,0.0,0.0,0.0,0.0,0.0,0.0,0.0,0.0,0.0,0.0,0.0,0.0,0.0,0.0,0.0,0.0,0.0,0.0,0.0,0.0,0.0,0.0,0.0,0.0,0.0,0.0,0.0,0.0,0.0,0.0,0.0,0.0,0.0,0.0,0.0,0.0,0.0,0.0,0.0,0.0,0.0,0.0,0.0,0.0,0.0,0.0,0.0,0.0,0.0,0.0,0.0,0.0,0.0,0.0,0.0,0.0,0.0,0.0,0.0,0.0,0.0,0.0,0.0,0.0,0.0,0.0,0.0,0.0,0.0,0.0,0.0,0.0,0.0,0.0,0.0,0.0,0.0,0.0,0.0,0.0,0.0,0.0,0.0,0.0,0.0,0.0,0.0,0.0,0.0,0.0,0.0,0.0,0.0,0.0,0.0,0.0,0.0,0.0,0.0,0.0,0.0,0.0,0.0,0.0,0.0,0.0,0.0,0.0,0.0,0.0,0.0,0.0,0.0,0.0,0.0,0.0,0.0,0.0,0.0,0.0,0.0,0.0,0.0,0.0,0.0,0.0,0.0,0.0,0.0,0.0,0.0,0.0,0.0,0.0,0.0,0.0,0.0,0.0,0.0,0.0,0.0,0.0,0.0,0.0,0.0,0.0,0.0,0.0,0.0,0.0,0.0,0.0,0.0,0.0,0.0,0.0,0.0,0.0,0.0,0.0,0.0,0.0,0.0,0.0,0.0,0.0,0.0,0.0,0.0,0.0,0.0,0.0,0.0,0.0,0.0,0.0,0.0,0.0,0.0,0.0,0.0,0.0,0.0,0.0,0.0,0.0,0.0,0.0,0.0,0.0,0.0,0.0,0.0,0.0,0.0,0.0,0.0,0.0,0.0,0.0,0.0,0.0,0.0,0.0,0.0,0.0,0.0,0.0,0.0,0.0,0.0,0.0,0.0,0.0,0.0,0.0,0.0,0.0,0.0,0.0,0.0,0.0,0.0,0.0,0.0,0.0,0.0,0.0,0.0,0.0,0.0,0.0,0.0,0.0,0.0,0.0,0.0,0.0,0.0,0.0,0.0,0.0,0.0,0.0,0.0,0.0,0.0,0.0,0.0,0.0,0.0,0.0,0.0,0.0,0.0,0.0,0.0,0.0,0.0,0.0,0.0,0.0,0.0,0.0,0.0,0.0,0.0,0.0,0.0,0.0,0.0,0.0,0.0,0.0,0.0,0.0,0.0,0.0,0.0,0.0,0.0,0.0,0.0,0.0,0.0,0.0,0.0,0.0,0.0,0.0,0.0,0.0,0.0,0.0,0.0,0.0,0.0,0.0,0.0,0.0,0.0,0.0,0.0,0.0,0.0,0.0,0.0,0.0,0.0,0.0,0.0,0.0,0.0,0.0,0.0,0.0,0.0,0.0,0.0,0.0,0.0,0.0,0.0,0.0,0.0,0.0,0.0,0.0,0.0,0.0,0.0,0.0,0.0,0.0,0.0,0.0,0.0,0.0,0.0,0.0,0.0,0.0,0.0,0.0,0.0,0.0,0.0,0.0,0.0,0.0,0.0,0.0,0.0,0.0,0.0,0.0,0.0,0.0,0.0,0.0,0.0,0.0,0.0,0.0,0.0,0.0,0.0,0.0,0.0,0.0,0.0,0.0,0.0,0.0,0.0,0.0,0.0,0.0,0.0,0.0,0.0,0.0,0.0,0.0,0.0,0.0,0.0,0.0,0.0,0.0,0.0,0.0,0.0,0.0,0.0,0.0,0.0,0.0,0.0,0.0,0.0,0.0,0.0,0.0,0.0,0.0,0.0,0.0,0.0,0.0,0.0,0.0,0.0,0.0,0.0,0.0,0.0,0.0,0.0,0.0,0.0,0.0,0.0,0.0,0.0,0.0,0.0,0.0,0.0,0.0,0.0,0.0,0.0,0.0,0.0,0.0,0.0,0.0,0.0,0.0,0.0,0.0,0.0,0.0,0.0,0.0,0.0,0.0,0.0,0.0,0.0,0.0,0.0,0.0,0.0,0.0,0.0,0.0,0.0,0.0,0.0,0.0,0.0,0.0,0.0,0.0,0.0,0.0,0.0,0.0,0.0,0.0,0.0,0.0,0.0,0.0,0.0,0.0,0.0,0.0,0.0,0.0,0.0,0.0,0.0,0.0,0.0,0.0,0.0,0.0,0.0,0.0,0.0,0.0,0.0,0.0,0.0,0.0,0.0,0.0,0.0,0.0,0.0,0.0,0.0,0.0,0.0,0.0,0.0,0.0,0.0,0.0,0.0,0.0,0.0,0.0,0.0,0.0,0.0,0.0,0.0,0.0,0.0,0.0,0.0,0.0,0.0,0.0,0.0,0.0,0.0,0.0,0.0,0.0,0.0,0.0,0.0,0.0,0.0,0.0,0.0,0.0,0.0,0.0,0.0,0.0,0.0,0.0,0.0,0.0,0.0,0.0,0.0,0.0,0.0,0.0,0.0,0.0,0.0,0.0,0.0,0.0,0.0,0.0,0.0,0.0,0.0,0.0,0.0,0.0,0.0,0.0,0.0,0.0,0.0,0.0,0.0,0.0,0.0,0.0,0.0,0.0,0.0,0.0,0.0,0.0,0.0,0.0,0.0,0.0,0.0,0.0,0.0,0.0,0.0,0.0,0.0,0.0,0.0,0.0,0.0,0.0,0.0,0.0,0.0,0.0,0.0,0.0,0.0,0.0,0.0,0.0,0.0,0.0,0.0,0.0,0.0,0.0,2.7112,2.5799,0.0,0.0,0.0,0.0,0.0,0.0,0.0,0.0,0.0,0.0,0.0,0.0,0.0,0.0,0.0,0.0,0.0,0.0,0.0,0.0,0.0,0.0,0.0,0.0,0.0,0.0,0.0,0.0,0.0,0.0,0.0,0.0,0.0,0.0,0.0,0.0,0.0,0.0,3.3647,3.4244,3.4775,3.5046,3.4558,3.3485,0.0,0.0,0.0,0.0,0.0,0.0,0.0,0.0,0.0,0.0,0.0,0.0,0.0,0.0,0.0,0.0,0.0,0.0,0.0,0.0,0.0,0.0,0.0,0.0,0.0,0.0,0.0,0.0,0.0,0.0,0.0,0.0,0.0,0.0,0.0,0.0,0.0,0.0,0.0,0.0,0.0,0.0,0.0,0.0,0.0,0.0,0.0,0.0,0.0,0.0,0.0,0.0,0.0,0.0,0.0,0.0,0.0,0.0,0.0,0.0,0.0,0.0,0.0,0.0,0.0,0.0,0.0,0.0,0.0,0.0,2.924,2.8056,0.0,0.0,0.0,0.0,0.0,0.0,0.0,0.0,0.0,0.0,0.0,0.0,0.0,0.0,0.0,0.0,0.0,0.0,0.0,0.0,0.0,0.0,0.0,0.0,3.4272,3.4651,3.5556,0.0,0.0,0.0,0.0,0.0,0.0,0.0,0.0,3.4469,3.4173,3.3584,3.4503,3.5583,3.6783,3.7298,3.6864,3.5585,3.4624,0.0,0.0,0.0,0.0,0.0,0.0,0.0,0.0,0.0,0.0,0.0,0.0,0.0,0.0,0.0,0.0,0.0,0.0,0.0,0.0,0.0,0.0,0.0,0.0,0.0,0.0,0.0,0.0,0.0,0.0,0.0,0.0,0.0,0.0,0.0,0.0,0.0,0.0,0.0,0.0,0.0,0.0,0.0,0.0,0.0,0.0,0.0,0.0,0.0,0.0,0.0,0.0,0.0,0.0,0.0,0.0,0.0,0.0,0.0,0.0,0.0,0.0,0.0,3.4248,3.4248,3.4136,3.4136,3.4192,3.4192,3.2345,3.1338,3.0979,2.9557,0.0,0.0,0.0,0.0,0.0,0.0,0.0,0.0,0.0,0.0,0.0,0.0,0.0,0.0,0.0,0.0,0.0,0.0,0.0,0.0,0.0,3.4274,3.4842,3.4339,3.5429,3.6026,0.0,0.0,0.0,0.0,0.0,0.0,3.4088,3.4034,3.4213,3.4714,3.6809,3.8983,4.1173,4.1232,4.1715,4.2307,3.7548,3.5546,3.5608,0.0,0.0,0.0,0.0,0.0,0.0,0.0,0.0,0.0,0.0,0.0,0.0,0.0,0.0,0.0,0.0,0.0,0.0,0.0,0.0,0.0,0.0,0.0,0.0,0.0,0.0,0.0,0.0,0.0,0.0,0.0,0.0,0.0,0.0,0.0,0.0,0.0,0.0,0.0,0.0,0.0,2.9518,3.0516,0.0,0.0,0.0,0.0,0.0,0.0,0.0,0.0,0.0,0.0,0.0,0.0,0.0,3.4889,3.5652,3.7232,3.7841,3.7482,3.8007,3.7979,3.7482,3.7482,3.7758,3.8173,3.635,0.0,3.3322,3.1854,0.0,0.0,0.0,0.0,0.0,0.0,0.0,0.0,0.0,0.0,0.0,0.0,0.0,0.0,0.0,0.0,0.0,0.0,0.0,0.0,0.0,3.5244,3.6546,3.5515,3.8297,3.9143,3.6972,0.0,0.0,0.0,0.0,3.475,3.4131,3.4436,3.5814,3.8214,4.0991,4.3269,4.5012,4.5386,4.5607,4.5724,4.3657,4.0962,3.7791,3.6469,0.0,0.0,0.0,0.0,0.0,0.0,0.0,0.0,0.0,0.0,0.0,0.0,0.0,0.0,0.0,0.0,0.0,0.0,0.0,0.0,0.0,0.0,0.0,0.0,0.0,0.0,0.0,0.0,0.0,0.0,0.0,0.0,0.0,0.0,0.0,0.0,0.0,0.0,0.0,3.0044,3.0939,2.986,3.1165,3.1329,0.0,0.0,0.0,0.0,0.0,0.0,0.0,0.0,0.0,3.3827,3.6144,3.7579,3.7938,3.9317,4.0404,4.1176,4.1452,4.1617,4.1672,4.1341,4.1121,4.1011,3.9722,3.8653,3.7591,3.4403,3.2451,3.1329,0.0,0.0,0.0,0.0,2.7248,2.7714,0.0,0.0,0.0,0.0,0.0,0.0,0.0,0.0,0.0,0.0,0.0,0.0,3.3716,3.6718,3.8477,3.795,4.1047,4.1571,3.8193,3.8644,0.0,0.0,0.0,3.4761,3.4441,3.5968,3.8456,4.2036,4.5204,4.7574,4.9143,4.954,4.9647,4.9445,4.945,4.6194,4.0658,3.9338,3.7263,3.4806,0.0,0.0,0.0,0.0,0.0,0.0,0.0,0.0,0.0,0.0,0.0,0.0,0.0,0.0,0.0,0.0,0.0,0.0,0.0,0.0,0.0,0.0,0.0,0.0,0.0,0.0,0.0,0.0,0.0,0.0,0.0,0.0,0.0,0.0,0.0,0.0,0.0,3.14,3.2345,2.9876,3.24,3.3246,0.0,0.0,0.0,0.0,0.0,0.0,3.406,3.5745,3.6551,3.6273,3.8886,4.0398,4.0536,4.1562,4.2806,4.4337,4.4035,4.42,4.4749,4.398,4.3403,4.2936,4.198,4.1379,4.0903,3.6962,3.4536,3.3257,3.2463,3.1123,2.9695,2.9734,2.9953,3.0227,0.0,0.0,0.0,0.0,0.0,0.0,0.0,0.0,0.0,0.0,0.0,3.4776,3.7087,3.8848,4.0378,4.1781,4.2276,4.1525,3.9203,3.8956,3.7884,3.5487,3.5789,3.5742,3.5161,3.8944,4.2353,4.5364,4.8652,5.1504,5.3848,5.3635,5.4092,5.5024,5.3329,4.9674,4.4579,4.2851,4.0523,3.7717,3.5603,0.0,0.0,0.0,0.0,0.0,0.0,0.0,0.0,0.0,0.0,0.0,0.0,0.0,0.0,0.0,0.0,0.0,0.0,0.0,0.0,0.0,0.0,0.0,0.0,0.0,0.0,0.0,0.0,0.0,0.0,0.0,0.0,0.0,0.0,0.0,0.0,0.0,0.0,3.1785,3.5333,0.0,0.0,0.0,0.0,3.5876,3.5653,3.6443,3.8571,3.8593,3.9415,4.1286,4.2951,4.4114,4.4688,4.5142,4.5693,4.6317,4.5204,4.4986,4.5502,4.4334,4.3764,4.3655,4.2514,4.1951,4.1754,3.9431,3.8182,3.7566,3.525,3.4146,3.3748,3.2618,3.2836,3.3637,0.0,0.0,0.0,0.0,0.0,0.0,0.0,0.0,0.0,3.2837,3.4454,3.6148,3.7867,4.1975,4.463,4.4748,4.6776,4.6627,4.3128,4.0884,3.853,3.5963,3.4186,3.464,3.7596,4.2003,4.5817,4.8943,5.2723,5.5105,5.6177,5.6505,5.668,5.6637,5.5994,5.378,5.0326,4.6985,4.3156,3.9167,3.7701,3.5533,0.0,0.0,0.0,0.0,0.0,0.0,0.0,0.0,0.0,0.0,0.0,0.0,0.0,0.0,0.0,0.0,0.0,0.0,0.0,0.0,0.0,0.0,0.0,0.0,0.0,0.0,0.0,0.0,0.0,0.0,0.0,0.0,0.0,0.0,0.0,0.0,0.0,3.602,3.9104,0.0,3.8067,3.8378,3.8553,3.8215,3.9543,4.0667,4.1505,4.2556,4.3481,4.4206,4.5115,4.5768,4.5986,4.572,4.6075,4.7078,4.6238,4.6157,4.6752,4.5885,4.5316,4.4881,4.366,4.3145,4.3058,4.1474,4.0051,3.8776,3.7521,3.6498,3.5682,3.5246,3.5343,3.5655,0.0,0.0,0.0,0.0,0.0,0.0,0.0,0.0,3.1874,3.3373,3.5519,3.7772,4.0062,4.4723,4.7824,4.8203,4.9695,4.8837,4.4472,4.1736,3.8664,3.487,3.3917,3.5769,4.0749,4.5157,4.9161,5.2792,5.5908,5.7786,5.8462,5.858,5.8377,5.7954,5.7715,5.6366,5.4086,5.1229,4.701,4.2048,4.0455,3.8387,3.592,0.0,0.0,0.0,0.0,0.0,0.0,0.0,0.0,0.0,0.0,0.0,0.0,0.0,0.0,0.0,0.0,0.0,0.0,0.0,0.0,0.0,0.0,0.0,0.0,0.0,0.0,0.0,0.0,0.0,0.0,0.0,0.0,0.0,0.0,3.5787,3.8885,3.9264,4.2493,4.3986,4.2195,4.2385,4.2439,4.2059,4.3687,4.4691,4.4691,4.5641,4.6184,4.6184,4.6374,4.6482,4.6482,4.6075,4.6292,4.7105,4.6455,4.6374,4.6779,4.5991,4.5234,4.4637,4.3823,4.3362,4.3145,4.2548,4.1598,4.0404,3.94,3.8396,3.7501,3.7501,3.7501,3.7473,0.0,0.0,0.0,0.0,0.0,0.0,0.0,3.1123,3.2055,3.4193,3.6521,3.9581,4.3836,4.6861,4.9581,5.2023,5.0672,4.767,4.2984,4.1443,3.815,3.2372,3.5282,3.9431,4.4523,4.84,5.2426,5.6769,5.8091,5.9448,6.0677,5.9743,5.9335,5.9277,5.8639,5.7311,5.5594,5.549,5.2056,4.6523,4.4068,4.1762,3.9606,0.0,0.0,0.0,0.0,0.0,0.0,0.0,0.0,0.0,0.0,0.0,0.0,0.0,0.0,0.0,0.0,0.0,0.0,0.0,0.0,0.0,0.0,0.0,0.0,0.0,0.0,0.0,0.0,0.0,0.0,0.0,0.0,0.0,3.2844,3.8188,4.1924,4.1489,4.5481,4.7649,4.5967,4.6888,4.754,4.7486,4.8002,4.83,4.8246,4.7703,4.7431,4.7404,4.6806,4.6508,4.6508,4.6535,4.6482,4.6535,4.5885,4.5587,4.556,4.4339,4.3497,4.2955,4.2928,4.2602,4.2114,4.2656,4.2873,4.2683,4.0947,3.9888,3.9373,3.9373,3.9319,3.921,0.0,0.0,0.0,0.0,0.0,0.0,0.0,3.0665,3.1485,3.3761,3.6838,4.0304,4.4177,4.8352,5.1366,5.2644,5.1483,4.8968,4.5112,4.1029,3.7659,3.5148,3.8167,4.2519,4.8008,5.1727,5.5107,5.8179,5.9476,6.0209,6.0324,6.0091,5.9969,5.9925,5.9275,5.8403,5.7394,5.6965,5.5054,5.1986,4.8229,4.5515,4.3345,0.0,0.0,0.0,0.0,0.0,0.0,0.0,0.0,0.0,0.0,0.0,0.0,0.0,0.0,0.0,0.0,0.0,0.0,0.0,0.0,0.0,0.0,0.0,0.0,0.0,0.0,0.0,0.0,0.0,0.0,0.0,3.7366,4.0039,3.8913,4.1941,4.5243,4.7866,5.0146,5.1122,5.02,5.0417,5.0227,4.9359,5.0254,5.0414,4.9576,4.8873,4.8375,4.791,4.6919,4.6562,4.7002,4.6665,4.6752,4.716,4.6075,4.5587,4.556,4.48,4.4366,4.4176,4.3715,4.3443,4.3253,4.3009,4.2629,4.2249,4.2168,4.1517,4.0621,4.0621,4.0051,3.9156,0.0,0.0,0.0,0.0,0.0,0.0,0.0,3.0494,3.1306,3.3935,3.7387,4.0902,4.4311,4.8162,5.0853,5.1636,4.9753,4.6962,4.3293,3.9112,3.7321,3.862,4.2063,4.6265,5.1297,5.4732,5.7517,5.9565,6.0209,6.0529,6.0613,6.0322,6.0202,6.0189,5.9826,5.9123,5.8221,5.8158,5.7174,5.544,5.2995,5.021,4.72,4.377,4.239,4.1862,3.913,3.8749,3.9162,3.707,0.0,0.0,0.0,0.0,0.0,0.0,0.0,0.0,0.0,0.0,0.0,0.0,0.0,0.0,0.0,0.0,0.0,0.0,0.0,0.0,0.0,0.0,0.0,0.0,4.0938,4.4439,4.5115,4.7037,4.9364,5.2077,5.3266,5.3809,5.37,5.3239,5.2533,5.1584,5.1936,5.1665,5.0444,4.9528,4.8761,4.8121,4.7249,4.6919,4.7208,4.7208,4.7134,4.7024,4.6292,4.556,4.48,4.4474,4.404,4.3579,4.3715,4.3497,4.3036,4.3199,4.29,4.2385,0.0,0.0,0.0,0.0,3.9916,3.921,0.0,0.0,0.0,0.0,0.0,0.0,0.0,3.044,3.145,3.4314,3.7757,4.109,4.4124,4.684,4.8718,4.9595,4.6574,4.3121,3.9503,3.6868,3.761,4.2444,4.6376,5.03,5.4299,5.7433,5.9538,6.0765,6.0441,6.0613,6.1193,6.0584,6.0322,6.0322,6.0322,5.9589,5.8446,5.8988,5.8479,5.7304,5.7281,5.4918,5.0989,4.7996,4.6643,4.5937,4.2972,4.119,4.0135,3.9326,0.0,0.0,0.0,0.0,0.0,0.0,0.0,0.0,0.0,0.0,0.0,0.0,0.0,0.0,0.0,0.0,0.0,0.0,0.0,0.0,0.0,0.0,0.0,0.0,4.3948,4.7374,5.0808,5.2523,5.3713,5.4529,5.5138,5.5708,5.6142,5.522,5.4297,5.3646,5.3185,5.2316,5.096,4.9958,0.0,0.0,0.0,4.7397,4.7319,4.7755,4.7595,4.6672,4.6482,4.5533,4.4036,4.3823,4.3199,4.2249,4.3253,4.3063,4.2168,4.3253,4.3362,4.2819,4.2249,4.13,4.0214,3.9536,3.9292,3.9292,0.0,0.0,0.0,0.0,0.0,0.0,0.0,3.0167,3.1251,3.3745,3.6962,4.0024,4.2626,4.5052,4.6718,4.7432,4.427,4.1211,3.8774,3.7958,4.0152,4.5884,4.9696,5.3367,5.6906,5.9423,6.0817,6.1139,6.1079,6.1077,6.1193,6.1077,6.1019,6.1019,6.1019,6.0241,5.8997,5.9138,5.8425,5.7241,5.7224,5.6131,5.4252,5.1739,4.9825,4.8252,4.6216,4.5326,4.4706,4.2564,4.1942,4.1783,4.0252,3.8368,0.0,0.0,0.0,0.0,0.0,0.0,0.0,0.0,0.0,0.0,0.0,0.0,0.0,0.0,0.0,0.0,0.0,0.0,0.0,4.4532,4.891,5.2484,5.3661,5.5734,5.6651,5.5364,5.5762,5.598,5.5627,5.5383,5.4786,5.3673,5.3944,5.3185,5.1014,5.1088,5.0271,4.8177,4.7988,4.7933,4.7929,4.7208,4.7188,4.7839,4.6455,0.0,4.5207,4.423,4.3682,4.3416,4.3172,4.2928,4.2738,4.2955,4.3009,4.2819,4.2249,4.1571,4.0811,3.9699,3.9292,3.9104,0.0,0.0,0.0,0.0,0.0,0.0,0.0,2.9977,3.1042,3.2833,3.5456,3.8033,4.0392,4.1487,4.2435,4.3351,4.0871,3.9057,3.8637,4.0358,4.3811,4.9109,5.2627,5.5791,5.8639,6.0283,6.121,6.1193,6.1193,6.1193,6.1193,6.1193,6.1186,6.1171,6.1171,6.0403,5.915,5.9456,5.8659,5.7238,5.7852,5.7224,5.5651,5.3862,5.2061,5.024,4.8437,4.7046,4.5751,4.4196,4.3361,4.2842,4.1879,4.065,3.9368,0.0,0.0,0.0,0.0,0.0,0.0,0.0,0.0,0.0,0.0,0.0,0.0,0.0,0.0,3.8783,3.917,0.0,4.5844,4.8382,5.1731,5.4519,5.5745,5.6918,5.7232,5.6016,5.6387,5.6631,5.6332,5.5762,5.5166,5.4569,5.3944,5.3076,5.1882,5.0917,4.9831,4.859,4.8047,4.7745,4.7625,4.7454,4.7513,4.7785,4.6889,4.6157,4.556,4.4664,4.4067,4.3791,4.347,4.3172,4.29,4.29,4.29,4.2846,4.2575,4.1896,4.1001,4.0078,3.9563,3.9176,0.0,0.0,0.0,0.0,0.0,0.0,0.0,0.0,3.081,3.2146,3.4087,3.6081,3.8002,3.7978,3.8007,3.845,3.7461,3.7398,3.8876,4.2559,4.6861,5.1705,5.4852,5.7397,5.9434,6.0451,6.0946,6.0892,6.0831,6.0802,6.0802,6.0947,6.0958,6.0921,6.1063,6.0399,5.9303,5.9662,5.8886,5.7455,5.8392,5.7688,5.6016,5.4874,5.3358,5.1611,5.0037,4.7649,4.5207,4.5098,4.3933,4.2524,4.2881,4.2675,4.1792,3.9407,3.871,0.0,0.0,0.0,0.0,0.0,0.0,0.0,0.0,3.6577,3.7542,3.916,4.0699,4.2208,4.366,4.6123,4.8836,5.1537,5.3444,5.5082,5.6547,5.6831,5.6577,5.5871,5.6522,5.7011,5.7011,5.6034,5.5274,5.4921,5.3754,5.2805,5.2235,5.058,4.9389,4.887,4.8,4.7428,4.7246,4.7673,4.7731,4.7404,4.7295,4.6752,4.575,4.5017,4.442,4.3932,4.3764,4.3335,4.2873,4.2679,4.2582,4.2582,4.2311,4.1662,4.0749,4.0448,3.9916,3.9247,0.0,0.0,0.0,0.0,0.0,0.0,0.0,0.0,0.0,3.2502,3.3977,3.518,3.5967,3.6224,3.5471,3.3345,3.5131,3.7257,3.9397,4.3041,4.75,5.2799,5.5715,5.7668,5.8799,5.9708,6.0109,5.9858,5.955,5.9426,5.9426,5.9955,6.0202,6.0224,6.0758,6.0625,5.9883,5.9413,5.8749,5.7999,5.7602,5.664,5.5437,5.48,5.3381,5.1719,5.096,4.7812,4.4253,4.575,4.4416,4.2372,4.3927,4.3351,4.175,4.0184,3.8491,3.6511,3.3659,3.245,3.251,3.4666,3.5619,3.7128,0.0,4.2557,4.3224,4.3979,4.6069,4.7666,4.7317,4.9831,5.2252,5.314,5.4396,5.5192,5.4856,5.5299,5.5193,5.4053,5.5383,5.6387,5.6387,5.579,5.4758,5.313,5.3809,5.313,5.0471,5.1095,5.0525,4.8355,4.8192,4.7866,4.7376,4.6915,4.6942,4.7404,4.6888,4.6562,4.6347,4.5207,4.4664,4.4556,4.347,4.2955,4.2825,4.1792,4.1369,4.1269,4.0313,3.9822,3.9707,4.0629,4.0296,3.9158,0.0,0.0,0.0,0.0,0.0,0.0,0.0,0.0,0.0,0.0,3.1659,3.3052,3.4386,3.4274,3.3275,3.1266,3.3218,3.6158,3.9985,4.3742,4.8128,5.3494,5.5994,5.7557,5.8188,5.927,5.9669,5.9426,5.9488,5.9426,5.9239,5.9458,5.9774,6.0088,6.017,6.0079,5.9894,5.9133,5.8526,5.7988,5.7038,5.5952,5.4731,5.3429,5.096,4.8083,4.7319,4.5075,0.0,0.0,4.1415,4.1415,4.2324,4.1984,4.0968,3.9738,3.8378,3.6987,3.5748,3.516,3.5415,3.7564,3.945,4.157,4.4531,4.545,4.6293,4.8354,4.9783,5.0623,5.0637,5.2406,5.3992,5.4372,5.5435,5.6121,5.5932,5.5496,5.4678,5.3212,5.3102,5.3526,5.4567,5.4154,5.3495,5.2705,5.2493,5.2018,5.1122,5.0553,4.9956,4.9304,4.8273,4.7622,4.7404,4.6834,4.6643,4.6888,4.6238,4.5967,4.5912,4.4719,4.3986,4.3606,4.3118,4.2533,4.1842,4.1369,4.0818,4.0185,3.9424,3.8918,3.8649,3.9733,3.9422,3.8368,0.0,0.0,0.0,0.0,0.0,0.0,0.0,0.0,0.0,0.0,2.9829,3.096,3.2346,3.2227,3.1523,3.0266,3.1756,3.4687,3.913,4.292,4.7144,5.1853,5.4815,5.6286,5.6237,5.7669,5.8419,5.8396,5.8355,5.8313,5.83,5.8709,5.8889,5.893,5.9274,5.9638,5.9806,5.9039,5.8494,5.796,5.6794,5.5274,5.351,5.1394,4.811,4.4525,4.395,4.2038,0.0,0.0,3.8323,3.9282,3.9738,3.9782,3.9463,3.8255,3.6844,3.5853,3.6403,3.6793,3.765,4.0095,4.2912,4.5566,4.7643,4.8402,4.9387,5.1786,5.2289,5.2344,5.2512,5.3394,5.4139,5.429,5.5432,5.6219,5.5992,5.5017,5.3723,5.1898,5.0297,4.9773,5.0684,5.1699,5.2182,5.2003,5.155,5.1262,5.1312,5.0091,4.9494,4.9878,4.8246,4.7457,4.7511,4.6834,4.6482,4.6482,4.5708,4.5256,4.5092,4.3579,4.2724,4.2409,4.2409,4.2164,4.1644,4.1019,4.021,3.9269,3.8284,3.7665,3.7468,3.8176,3.8019,3.7356,0.0,0.0,0.0,0.0,0.0,0.0,0.0,0.0,0.0,0.0,0.0,0.0,0.0,3.0042,3.0249,3.0019,3.0959,3.289,3.6031,3.9915,4.3523,4.6674,5.1546,5.3551,5.2331,5.4319,5.5713,5.6248,5.5389,5.5287,5.6033,5.7488,5.7356,5.6112,5.8134,5.9384,5.986,5.9236,5.8612,5.796,5.6794,5.4541,5.1584,4.8626,4.5261,4.2161,4.2438,0.0,0.0,0.0,3.6164,3.5597,3.652,3.701,3.6919,3.5447,3.324,3.1804,3.4063,3.5565,3.7451,4.129,4.4969,4.8382,5.0914,5.2392,5.3424,5.3823,5.3452,5.289,5.2383,5.2386,5.2367,5.238,5.3886,5.4713,5.3806,5.3141,5.1871,4.9417,4.7146,4.5282,4.4086,4.8359,5.1017,5.0515,5.1582,5.1632,5.0118,5.001,4.9824,4.9611,4.8191,4.7511,4.7777,4.6912,4.6482,4.6482,4.5288,4.4463,4.3887,4.1615,4.0849,4.1269,4.1269,4.1842,4.2679,4.0516,3.9321,3.8617,3.6425,3.5761,3.594,3.6013,3.6159,3.6276,0.0,0.0,0.0,0.0,0.0,0.0,0.0,0.0,0.0,0.0,0.0,0.0,0.0,0.0,0.0,0.0,2.9296,3.1179,3.4609,3.7327,4.0133,4.309,4.7288,4.9348,4.9075,5.1073,5.2271,5.2618,5.2537,5.2514,5.2518,5.3426,5.3727,5.3605,5.4564,5.5935,5.7557,5.6459,5.6185,5.6341,5.4195,5.1949,4.9419,4.4952,4.1583,3.8929,0.0,0.0,0.0,0.0,3.2666,3.3683,3.3937,3.3992,3.3692,3.2619,3.2619,3.3565,3.6325,3.894,4.2036,4.6412,4.8967,5.1101,5.3835,5.3809,5.3217,5.3185,5.1185,4.9001,4.7706,4.7447,4.7716,4.8471,5.0729,5.2603,5.3268,5.2436,5.0926,4.8749,4.7164,4.5733,4.4411,4.5851,4.7216,4.8073,4.9414,4.9743,4.8789,4.9186,4.909,4.8279,4.7642,4.746,4.7777,4.7122,4.6297,4.5288,4.3325,4.207,4.1457,4.0408,3.9979,4.0135,3.9753,3.9601,3.952,3.8425,3.7778,3.7297,3.587,3.5484,3.5646,3.4956,3.4772,3.4921,0.0,0.0,0.0,0.0,0.0,0.0,0.0,0.0,0.0,0.0,0.0,0.0,0.0,0.0,0.0,0.0,0.0,2.9403,3.2146,3.4446,3.6538,3.8477,4.2498,4.4346,4.3676,4.5696,4.7018,4.7493,4.782,4.7991,4.8095,4.9086,4.9589,4.966,5.0378,5.1799,5.3605,5.2828,5.2641,5.2588,5.0284,4.8026,4.5436,4.065,3.7612,0.0,0.0,0.0,0.0,0.0,3.0548,3.1729,3.1366,3.1127,3.0984,3.0946,3.2563,3.5134,3.8753,4.2356,4.6104,5.0258,5.224,5.3555,5.5108,5.4232,5.2743,5.1419,4.8867,4.6212,4.4031,4.3227,4.3301,4.4463,4.6952,4.9448,5.1376,5.0436,4.9324,4.8586,4.6394,4.4803,4.4346,4.3808,4.4346,4.6433,4.7989,4.8463,4.7442,4.8129,4.8326,4.78,4.7021,4.691,4.7484,4.6356,4.4968,4.33,4.1493,4.0124,3.9102,3.8644,3.8701,3.9121,3.8515,3.8387,3.8588,3.7399,3.6772,3.6485,3.5248,3.4806,3.4856,3.4223,3.4014,3.4188,0.0,0.0,0.0,0.0,0.0,0.0,0.0,0.0,0.0,0.0,0.0,0.0,0.0,0.0,0.0,0.0,0.0,0.0,2.8697,3.1261,3.2853,3.3106,3.7369,3.8812,3.6671,3.8686,4.0236,4.1261,4.1547,4.2033,4.2747,4.4709,4.51,4.424,4.5751,4.703,4.8125,4.8515,4.8065,4.6864,4.5312,4.291,3.9875,3.6089,0.0,0.0,0.0,0.0,2.9145,2.946,2.9752,2.9886,2.9063,2.8759,2.9077,3.0744,3.3202,3.6392,4.1306,4.5608,4.9439,5.2547,5.452,5.5468,5.4706,5.3641,5.1915,4.8545,4.6514,4.4365,4.1207,3.9728,3.9403,4.0613,4.2848,4.5518,4.8627,4.7647,4.7271,4.8922,4.5078,4.2744,4.3787,4.2424,4.2631,4.5404,4.7248,4.7589,4.6079,4.6884,4.7553,4.7808,4.6207,4.5831,4.6733,4.4687,4.2665,4.0755,3.9896,3.8619,3.6956,3.6507,3.7006,3.8236,3.748,3.8166,3.969,3.7344,3.636,3.6285,3.4695,3.3954,3.3811,3.3741,3.3866,3.4042,0.0,0.0,0.0,0.0,0.0,0.0,0.0,0.0,0.0,0.0,0.0,0.0,0.0,0.0,0.0,0.0,0.0,0.0,2.7043,2.8526,2.9693,3.0455,3.2701,3.4065,3.436,3.4804,3.5525,3.6554,3.675,3.6922,3.7122,3.9017,3.9497,3.8843,4.0134,4.1542,4.2861,4.2407,4.2338,4.2398,0.0,3.9054,3.7138,0.0,0.0,0.0,0.0,2.8393,2.8794,2.9113,2.9783,3.0608,3.12,3.1109,3.1494,3.4858,3.722,3.9821,4.477,4.8763,5.2133,5.4913,5.4254,5.2973,5.3201,5.0436,4.6931,4.387,4.0824,3.7738,3.4379,3.432,3.5854,3.9154,4.1736,4.5106,5.0321,4.9774,4.917,5.0234,4.8164,4.6303,4.5369,4.4346,4.3595,4.3307,4.4304,4.4892,4.4759,4.5035,4.4937,4.4311,4.3961,4.4035,4.458,4.2615,4.1156,4.0419,3.8562,3.7428,3.6956,3.6507,3.6495,3.6779,3.6174,3.6409,3.7178,3.6139,3.6051,3.6543,3.5341,3.4974,3.4996,3.4246,3.4014,3.4113,0.0,0.0,0.0,0.0,0.0,0.0,0.0,0.0,0.0,0.0,0.0,0.0,0.0,0.0,0.0,0.0,0.0,0.0,0.0,2.6607,2.7268,2.7696,2.8635,2.9499,3.0181,3.0155,3.0592,3.1473,3.1951,3.219,3.2171,3.3697,3.435,3.4255,3.5244,3.6284,3.737,3.7429,0.0,0.0,0.0,0.0,0.0,0.0,0.0,0.0,2.8638,2.8465,2.9077,2.9598,3.0296,3.1168,3.2352,3.2819,3.3696,3.7547,4.0107,4.2656,4.7205,5.0977,5.4056,5.551,5.3882,5.1637,5.0492,4.7013,4.2922,3.898,3.6598,3.425,3.1101,3.1233,3.3022,3.6696,3.902,4.2581,4.8836,4.8563,4.8685,5.1322,4.9158,4.7354,4.7193,4.5092,4.3622,4.3259,4.3664,4.3796,4.3445,4.3839,4.3762,4.2996,4.2753,4.2452,4.2213,4.0741,3.9816,3.9377,3.7929,3.7031,3.6691,3.6556,3.6486,3.6467,3.5809,3.5915,3.6444,3.5578,3.5603,3.6056,3.504,3.475,3.4788,3.402,3.3717,3.3717,0.0,0.0,0.0,0.0,0.0,0.0,0.0,0.0,0.0,0.0,0.0,0.0,0.0,0.0,0.0,0.0,0.0,0.0,0.0,0.0,0.0,2.5461,2.5601,2.5763,2.5968,2.5879,2.6214,2.6966,2.7738,2.8086,2.811,2.9221,0.0,0.0,0.0,0.0,0.0,0.0,0.0,0.0,0.0,0.0,0.0,0.0,0.0,0.0,2.8697,2.8926,2.9436,3.0445,3.1244,3.2051,3.3475,3.4629,3.6136,3.9878,4.2381,4.4877,4.8876,5.235,5.4798,5.4755,5.2997,5.0403,4.7133,4.347,3.9366,3.4506,3.3262,3.224,2.9572,2.9563,3.1035,3.4287,3.6199,3.9561,4.6081,4.6281,4.7341,5.1689,4.8996,4.7269,4.848,4.5136,4.3228,4.3979,4.4023,4.3532,4.2335,4.2978,4.3076,4.2565,4.1923,4.1104,4.0188,3.9313,3.8687,3.8212,3.7688,3.6989,3.6332,3.6603,3.6708,3.6657,3.5934,3.6022,3.6633,3.5468,3.5244,3.552,3.4578,3.4165,3.405,3.3618,3.3388,3.3292,0.0,0.0,0.0,0.0,0.0,0.0,0.0,0.0,0.0,0.0,2.2777,2.3023,0.0,0.0,0.0,0.0,0.0,0.0,0.0,0.0,0.0,0.0,2.5168,2.5192,2.5802,2.4856,2.4766,2.5621,2.5941,2.6074,2.6064,2.7351,2.7704,0.0,0.0,0.0,0.0,0.0,0.0,0.0,0.0,0.0,0.0,0.0,0.0,0.0,2.8826,2.8557,2.8637,3.1041,3.2945,3.4704,3.6848,3.8299,4.004,4.4017,4.507,4.5811,4.983,5.1798,5.2641,5.2518,4.9899,4.6759,4.4124,3.949,3.4914,3.1941,3.0278,2.8799,2.7097,2.822,3.0771,3.4778,3.6883,4.0002,4.5692,4.743,4.8462,4.9404,4.9311,4.8461,4.6595,4.4908,4.3526,4.2696,4.263,4.2529,4.2279,4.1684,4.1014,4.0376,4.0234,4.0047,3.9861,3.893,3.8225,3.7906,3.7182,3.6642,3.6332,3.6603,3.6595,3.6379,3.6202,3.6233,3.6379,3.611,3.6071,3.6094,3.5497,3.5014,3.4601,3.4328,3.3815,3.3342,0.0,0.0,0.0,0.0,0.0,0.0,0.0,2.155,2.1759,2.178,2.2138,2.2515,2.2964,2.3001,2.3001,0.0,0.0,0.0,0.0,0.0,0.0,0.0,0.0,0.0,2.4636,2.4282,2.4306,2.4718,0.0,2.5172,2.5172,2.598,2.617,2.5886,2.6604,2.6926,2.696,2.7204,2.7564,2.7894,2.7663,2.8091,0.0,0.0,0.0,0.0,0.0,2.814,2.8694,3.0136,3.1963,3.4173,3.7497,3.9391,4.1081,4.4926,4.5788,4.6243,4.9777,5.148,5.1992,5.1074,4.8081,4.4459,4.0833,3.6267,3.1902,2.8696,2.7784,2.719,2.6058,2.73,2.9668,3.321,3.4727,3.7557,4.3477,4.4874,4.5917,4.7742,4.7598,4.6989,4.6155,4.4669,4.3378,4.2527,4.2442,4.2312,4.1926,4.0984,4.0264,3.996,3.9705,3.9567,3.9567,3.8551,3.7963,3.777,3.72,3.6766,3.6526,3.6982,3.6928,3.6495,3.6495,3.6386,3.6186,3.6264,3.6256,3.6139,3.5656,3.5382,3.5106,3.4757,3.4198,3.371,0.0,0.0,0.0,0.0,0.0,0.0,0.0,2.1205,2.1397,2.1205,2.1474,2.1949,2.2665,2.2815,2.2927,0.0,0.0,0.0,0.0,0.0,0.0,0.0,0.0,0.0,0.0,0.0,0.0,2.42,2.4526,0.0,0.0,0.0,0.0,0.0,2.5896,2.6173,2.6208,2.6765,2.7103,0.0,0.0,2.7537,0.0,0.0,0.0,0.0,0.0,2.7616,2.8438,2.89,3.0098,3.2123,3.5805,3.8483,4.0811,4.3784,4.5125,4.627,4.9206,5.0739,5.1147,4.952,4.6353,4.2393,3.7873,3.3649,2.9673,2.6286,2.6019,2.6244,2.5625,2.651,2.8247,3.1108,3.2092,3.4517,4.0309,4.1628,4.3017,4.5707,4.5635,4.5365,4.5538,4.4172,4.3011,4.2399,4.2185,4.1811,4.1276,4.054,4.0057,3.9965,3.9515,3.9308,3.9308,3.8413,3.7964,3.7883,3.7457,3.7075,3.6796,3.7382,3.7274,3.6712,3.6712,3.6456,3.6129,3.627,3.622,3.6054,3.5776,3.5611,3.5474,3.5136,3.4676,3.4216,0.0,0.0,0.0,0.0,0.0,0.0,0.0,2.1089,2.1205,2.1205,2.1244,2.1436,2.1835,2.2252,2.259,0.0,0.0,0.0,0.0,0.0,0.0,0.0,0.0,0.0,0.0,0.0,0.0,2.42,2.4236,0.0,0.0,0.0,0.0,0.0,0.0,2.5406,2.5406,2.5476,0.0,0.0,0.0,0.0,0.0,0.0,0.0,0.0,0.0,2.6952,2.6776,2.7865,2.8485,2.9148,3.0747,3.5064,3.9673,4.0395,4.2962,4.5957,4.8092,4.8744,4.8571,4.7323,4.3819,3.977,3.5914,3.168,2.8033,2.6254,2.5483,2.5255,2.5551,2.572,2.6726,2.9454,3.0474,3.2345,3.6379,3.9631,4.1774,4.2147,4.4502,4.5404,4.3578,4.2976,4.241,4.1777,4.0823,4.0315,4.0241,4.0172,3.9896,3.9377,3.9331,3.9308,3.9308,3.878,3.839,3.8166,3.7941,3.759,3.7089,3.7435,3.7274,3.6712,3.6712,3.6456,3.6129,3.627,3.622,3.6077,3.617,3.5933,3.552,3.5739,3.534,3.4699,0.0,0.0,0.0,0.0,0.0,0.0,2.132,2.1582,2.1624,2.1091,2.1271,2.1448,2.1418,2.1797,2.2214,2.259,0.0,0.0,0.0,0.0,0.0,0.0,0.0,0.0,0.0,0.0,2.3335,2.3482,2.3703,0.0,0.0,0.0,0.0,0.0,0.0,2.53,2.53,2.53,0.0,0.0,0.0,0.0,0.0,0.0,0.0,0.0,0.0,0.0,2.6411,2.6407,2.6406,2.6412,2.6474,2.9309,3.338,3.7366,3.9989,4.2458,4.6137,4.7773,4.7945,4.6182,4.2808,3.8838,3.4743,3.0723,2.7396,2.5697,2.5172,2.504,2.5207,2.5229,2.5915,2.7892,2.8187,2.9501,3.3289,3.5244,3.7166,3.9554,4.1437,4.2745,4.323,4.2901,4.2341,4.1827,4.074,4.0142,4.008,3.9767,3.9515,3.9308,3.9308,3.917,3.8872,3.8539,3.8145,3.7804,3.7762,3.7625,3.7435,3.7542,3.7358,3.6928,3.6766,3.6469,3.6064,3.6203,3.6213,3.6063,3.625,3.614,3.5979,3.6087,3.5764,3.5205,0.0,0.0,0.0,0.0,0.0,2.1783,2.1734,2.1859,2.1803,2.1291,2.1312,2.1312,2.1129,2.1512,2.1973,2.2404,2.2918,0.0,0.0,0.0,0.0,0.0,0.0,0.0,0.0,0.0,2.3067,2.322,2.3327,2.3638,0.0,0.0,2.4795,2.5013,0.0,0.0,0.0,0.0,0.0,0.0,0.0,0.0,0.0,0.0,0.0,0.0,0.0,0.0,0.0,0.0,0.0,2.4515,2.3775,2.4841,2.7454,3.2964,3.6456,3.9358,4.3227,4.5513,4.6487,4.4828,4.1504,3.7645,3.3765,2.9999,2.69,2.5331,2.5018,2.5018,2.5018,2.5018,2.5378,2.6531,2.6596,2.7605,3.0846,3.1982,3.3744,3.6967,3.8398,3.9966,4.1981,4.2136,4.1828,4.1316,4.0463,3.993,3.985,3.9492,3.9308,3.9308,3.9206,3.9034,3.8689,3.8444,3.8157,3.7777,3.7783,3.7625,3.7249,3.7559,3.7352,3.6803,3.6788,3.6578,3.6161,3.6285,3.6218,3.6039,3.6203,3.6332,3.6332,3.6332,3.6048,3.5734,0.0,0.0,0.0,0.0,0.0,0.0,2.2143,2.1798,2.1598,2.1848,2.133,2.0916,2.0916,2.1436,2.1983,2.2457,2.3238,0.0,0.0,0.0,0.0,0.0,0.0,0.0,0.0,0.0,2.3241,2.3684,2.3241,2.3709,2.4988,2.4518,2.4747,2.5493,0.0,0.0,0.0,0.0,0.0,0.0,0.0,0.0,0.0,0.0,0.0,0.0,0.0,0.0,0.0,0.0,0.0,0.0,0.0,2.2686,2.2999,2.6695,3.2203,3.7493,3.9183,4.1557,4.3433,4.2964,3.9612,3.5715,3.2925,2.9468,2.6474,2.5256,2.5018,2.5018,2.5018,2.5018,2.5139,2.5553,2.6109,2.7156,2.9059,3.081,3.2523,3.4268,3.5938,3.7594,3.9196,4.0226,4.0531,3.9895,3.9485,3.9308,3.9308,3.9308,3.9308,3.9308,3.9094,3.9012,3.8989,3.8807,3.8547,3.8278,3.8278,3.7631,3.6459,3.7517,3.7264,3.6074,3.6779,3.6901,3.6611,3.6377,3.622,3.6129,3.6217,3.6332,3.6332,3.6332,3.6332,3.624,0.0,0.0,0.0,0.0,0.0,0.0,0.0,2.2053,2.2076,2.168,2.1606,2.139,2.0936,2.1205,2.1681,2.2452,2.3236,0.0,0.0,0.0,0.0,0.0,0.0,0.0,0.0,0.0,2.3531,2.3684,2.3241,2.3229,2.3649,2.4091,2.4266,2.4269,2.5292,2.5466,0.0,0.0,0.0,0.0,0.0,0.0,2.4784,0.0,0.0,0.0,0.0,0.0,0.0,0.0,0.0,0.0,0.0,0.0,0.0,2.3592,2.7403,3.1631,3.3502,3.5683,3.7092,3.5723,3.3882,3.1761,2.9401,2.7464,2.5946,2.5175,2.5018,2.5018,2.5018,2.5018,2.5351,2.6505,2.7178,2.8028,2.9432,3.1279,3.3195,3.4951,3.8106,4.0171,4.0295,4.1018,4.1033,4.0098,3.9966,3.9988,4.0125,3.9441,3.9071,3.9071,3.9024,3.8777,3.8222,3.8359,3.8224,3.7833,3.8024,3.7484,3.6435,3.7307,3.7001,3.5765,3.6537,3.6638,3.6231,3.627,3.622,3.6077,3.624,3.6332,3.6332,3.6332,3.6332,3.6263,0.0,0.0,0.0,0.0,0.0,0.0,0.0,2.217,2.2152,2.1894,2.1983,2.1808,2.1291,2.1568,2.2069,2.2694,2.3505,0.0,0.0,0.0,0.0,0.0,0.0,0.0,2.4486,2.3945,2.3684,2.3684,2.3241,2.3198,2.3569,2.3908,2.4076,2.4153,2.4945,2.5223,0.0,0.0,0.0,0.0,0.0,0.0,2.4578,0.0,0.0,0.0,0.0,0.0,0.0,0.0,0.0,0.0,0.0,0.0,0.0,0.0,2.4194,2.6898,2.9015,3.1288,3.2838,3.1656,3.0494,2.915,2.7648,2.6385,2.5414,2.5067,2.5114,2.5186,2.5043,2.4911,2.5191,2.6191,2.6678,2.7376,2.8653,3.0692,3.2892,3.5168,3.8295,4.0152,3.9854,4.0597,4.0786,4.0029,3.9931,3.9953,4.022,3.9453,3.901,3.9051,3.8864,3.8498,3.8083,3.8143,3.8042,3.7732,3.7945,3.7421,3.6435,3.7226,3.692,3.5765,3.643,3.653,0.0,3.6325,3.6263,3.6203,3.6271,3.6332,3.6332,3.6332,3.6332,3.6231,0.0,0.0,0.0,0.0,0.0,0.0,0.0,2.2087,2.1963,2.2397,2.2323,2.2107,2.1809,2.2372,2.2858,2.3114,0.0,0.0,0.0,0.0,0.0,0.0,0.0,0.0,2.453,2.405,2.3727,2.3684,2.3241,2.3482,2.4377,2.394,2.4095,2.4859,2.448,2.4732,2.5413,2.4904,2.4371,2.3968,2.4551,2.4643,0.0,0.0,0.0,0.0,0.0,0.0,0.0,0.0,0.0,0.0,0.0,0.0,0.0,0.0,0.0,0.0,0.0,2.8164,3.0005,2.9811,2.8659,2.7495,2.7026,2.5858,0.0,2.4951,2.5312,2.5489,2.5112,2.4843,2.4817,2.5103,2.5315,2.5882,2.7242,2.9554,3.2223,3.5257,3.719,3.8335,3.84,3.9464,4.0038,3.9848,3.9485,3.9462,3.9814,3.9302,3.8995,3.9094,3.8571,3.8285,3.8285,3.8078,3.795,3.7878,3.795,3.7397,3.6288,3.7178,3.7001,3.5947,3.646,3.6712,3.6657,3.6386,3.6332,3.6332,3.6332,3.6332,3.6332,3.6332,3.6332,3.6332,0.0,0.0,0.0,0.0,0.0,0.0,0.0,0.0,0.0,0.0,2.2078,2.2107,2.1809,2.213,2.2425,0.0,0.0,0.0,0.0,0.0,0.0,0.0,0.0,0.0,2.5051,2.4552,2.4115,2.3684,2.3241,2.3132,2.3351,2.3575,2.3629,2.3523,2.4293,2.4657,2.4619,2.3906,2.3442,2.3296,2.4237,2.4324,0.0,0.0,0.0,0.0,2.53,2.5059,0.0,0.0,0.0,0.0,0.0,0.0,0.0,0.0,2.227,2.2447,2.2778,0.0,2.426,2.3525,2.3441,2.3482,0.0,2.3837,2.4376,2.4643,2.5183,2.5573,2.5473,2.5635,2.5961,2.6646,2.7287,2.8163,2.9428,3.2239,3.5137,3.7616,3.908,3.9763,3.9245,3.9966,4.0217,3.9848,3.9485,3.9476,3.9831,3.9165,3.8815,3.8844,3.8347,3.8059,3.8059,3.8046,3.7589,3.6795,3.7589,3.6908,3.4911,3.674,3.6761,3.5328,3.63,3.6603,3.6386,3.6332,3.6332,3.6332,3.6332,3.6332,3.6332,3.6332,3.6332,3.6332,0.0,0.0,0.0,0.0,0.0,0.0,0.0,0.0,0.0,0.0,0.0,2.2493,2.2452,2.275,0.0,0.0,0.0,0.0,0.0,0.0,0.0,0.0,0.0,2.5448,2.5226,2.4727,2.4246,2.3684,2.3241,2.3001,2.3001,2.3263,2.3372,2.3351,2.3962,2.3951,2.342,2.3078,2.2796,2.2559,2.3505,0.0,0.0,0.0,0.0,0.0,2.5035,2.4771,0.0,2.4578,2.3881,2.3023,0.0,0.0,0.0,0.0,2.2104,2.1917,2.1761,2.191,2.2104,2.1943,2.178,2.1871,2.2631,2.3238,2.3825,2.4474,2.5141,2.553,2.5199,2.5036,2.5271,2.6261,2.6551,2.7732,3.0713,3.3095,3.5478,3.8116,3.8931,3.9404,3.9568,4.0077,4.0082,3.9477,3.943,3.9429,3.9513,3.8903,3.8611,3.8761,3.8262,3.7974,3.7974,3.7974,3.7445,3.6411,3.7388,3.6872,3.5144,3.6572,3.6677,3.5822,3.5915,3.611,3.6286,3.5879,3.5949,3.6332,3.6332,3.6332,3.6332,3.6332,3.6332,3.6231,0.0,0.0,0.0,0.0,0.0,0.0,0.0,0.0,0.0,0.0,0.0,0.0,0.0,0.0,0.0,0.0,0.0,0.0,0.0,0.0,0.0,0.0,2.5426,2.5182,2.5117,2.4749,2.4268,2.3575,2.3351,2.3198,2.311,2.3148,2.3301,2.352,2.3372,2.2853,2.2196,2.2381,2.2242,2.1956,2.2822,0.0,0.0,0.0,0.0,0.0,0.0,0.0,0.0,2.3977,2.3424,2.2767,2.2438,0.0,0.0,0.0,0.0,0.0,2.1824,2.1863,2.2016,2.2556,2.2006,2.173,2.3228,2.3406,2.3516,2.4468,2.5264,2.5588,2.4872,2.4483,2.4602,2.554,2.5732,2.7347,3.2035,3.3527,3.5178,3.7961,3.8285,3.8672,3.9479,3.9935,3.9836,3.9091,3.9239,3.9311,3.9102,3.8571,3.8418,3.8695,3.8185,3.7998,3.7974,3.7974,3.7445,3.636,3.7202,3.6972,3.5872,3.6437,3.6712,3.6588,3.5677,3.5686,3.6263,3.5548,3.5656,3.6332,3.6332,3.6332,3.6332,3.6332,3.6332,3.6185,0.0,0.0,0.0,0.0,0.0,0.0,0.0,0.0,0.0,0.0,0.0,0.0,0.0,0.0,0.0,0.0,0.0,0.0,0.0,0.0,0.0,2.5884,2.5426,2.5029,2.4596,2.4942,2.4421,2.311,2.3897,2.405,2.3575,2.3765,2.3444,2.2731,2.216,2.1771,2.152,2.1459,2.1556,2.1824,2.2687,0.0,0.0,0.0,0.0,0.0,0.0,0.0,0.0,2.4145,2.3374,2.2178,2.2719,0.0,0.0,0.0,0.0,0.0,2.2376,2.2639,2.2714,2.2707,2.2382,2.2286,2.3237,2.3643,2.4069,2.4731,2.5888,2.6491,2.5553,2.6588,2.7443,2.7066,2.9435,3.229,3.4919,3.6088,3.7237,3.8843,3.9756,3.9946,3.9079,3.9561,3.9694,3.9116,3.8925,3.8824,3.8851,3.8513,3.8251,3.8118,3.7833,3.7785,3.7974,3.7974,3.734,3.6054,3.7096,3.6761,3.5253,3.6247,3.6603,3.6363,3.6225,3.6171,3.6309,3.6148,3.6194,3.6332,3.6332,3.6332,3.6332,3.6332,3.6332,3.6185,0.0,0.0,0.0,0.0,0.0,0.0,0.0,0.0,0.0,0.0,0.0,0.0,0.0,0.0,0.0,0.0,0.0,0.0,0.0,0.0,2.4062,2.5469,2.5054,2.4854,2.4898,2.5095,2.4727,2.3809,2.4627,2.4737,2.4137,2.393,2.3332,2.2424,2.1835,2.1422,2.1107,2.0957,2.1083,2.1486,0.0,0.0,0.0,0.0,0.0,0.0,0.0,0.0,0.0,0.0,2.2886,2.1972,2.2455,0.0,0.0,0.0,0.0,0.0,2.2115,2.2533,2.2925,2.3491,2.3097,2.2935,2.4315,2.4075,2.3888,2.5215,2.5695,2.5713,2.5194,2.6467,2.7973,2.9087,3.1815,3.4221,3.5381,3.5845,3.6768,3.8516,3.8688,3.8743,3.8945,3.9425,3.9396,3.8516,3.8516,3.8335,3.7922,3.7767,3.7584,3.7379,3.722,3.713,3.7132,3.7264,3.692,3.6002,3.6756,3.639,3.5121,3.6086,3.644,3.6286,3.5864,3.5879,3.6286,3.5841,3.5879,3.6332,3.6332,3.6332,3.6332,3.6332,3.6094,3.5841,0.0,0.0,0.0,0.0,0.0,0.0,0.0,0.0,0.0,0.0,0.0,0.0,0.0,0.0,0.0,0.0,0.0,0.0,0.0,0.0,2.3599,2.5295,2.5011,2.488,2.5051,2.5161,2.4986,2.4486,2.5216,2.5235,2.4544,2.4149,2.3338,2.2199,2.1791,2.1254,2.0697,2.063,2.0764,2.1083,0.0,0.0,0.0,0.0,0.0,0.0,0.0,0.0,0.0,0.0,0.0,0.0,0.0,0.0,0.0,2.1987,2.1769,2.1454,2.1942,2.2462,2.3132,2.4213,2.3677,2.3456,2.5708,2.4932,2.4348,2.638,2.6347,2.5906,2.5641,2.6652,2.8378,3.1,3.3299,3.5039,3.5726,3.5874,3.6559,3.8264,3.7915,3.793,3.8859,3.9237,3.8981,3.7942,3.8082,3.7844,3.7086,3.7009,3.6932,3.6697,3.6621,3.6534,3.6411,3.6482,3.6374,3.609,3.6484,3.617,3.5335,3.591,3.6202,3.6156,3.5531,3.5663,3.6263,3.564,3.5726,3.6332,3.6332,3.6332,3.6332,3.6332,3.5956,3.5543,0.0,0.0,0.0,0.0,0.0,0.0,0.0,0.0,0.0,0.0,0.0,0.0,0.0,0.0,0.0,0.0,0.0,0.0,0.0,0.0,2.4371,2.5797,2.5819,2.5404,2.4552,2.4986,2.4986,2.4486,2.5404,2.5483,2.4697,2.4714,2.3718,2.1926,2.1708,2.1057,2.0205,2.0464,2.0603,2.0667,2.1106,0.0,0.0,0.0,0.0,0.0,0.0,0.0,0.0,0.0,0.0,0.0,0.0,0.0,2.1463,2.1831,2.158,2.1421,2.2391,2.2998,2.3571,2.447,2.3694,2.3623,2.7054,2.6752,2.6384,2.875,2.9153,2.8843,2.8081,2.8589,2.9922,3.2273,3.3879,3.547,3.7425,3.7949,3.838,3.899,3.9251,3.9248,3.8846,3.8839,3.8485,3.7691,3.7643,3.7429,3.6854,3.683,3.6673,3.6432,3.6204,3.618,3.6411,3.592,3.5897,3.6344,3.6617,3.641,3.5822,3.5915,3.5938,3.5938,3.5869,3.604,3.6309,3.624,3.6263,3.6332,3.6332,3.6332,3.6332,3.6332,3.5956,3.5588,0.0,0.0,0.0,0.0,0.0,0.0,0.0,0.0,0.0,0.0,0.0,0.0,0.0,0.0,0.0,0.0,0.0,0.0,0.0,2.3325,2.3896,2.497,2.4727,2.453,2.4486,2.5229,2.5464,2.5125,2.5355,2.5373,2.5201,2.4156,2.2996,2.1686,2.1344,2.0773,2.0107,2.0237,2.041,2.0603,2.0764,2.1178,0.0,0.0,0.0,0.0,0.0,0.0,0.0,0.0,2.2091,2.1871,2.221,2.2113,2.1952,2.2305,2.2348,2.2329,2.2604,2.3067,2.3722,2.4761,2.4107,2.4035,2.7279,2.7403,2.743,2.9515,3.0028,3.0,2.9488,2.9759,3.0923,3.3667,3.5035,3.633,3.7996,3.8138,3.8154,3.8343,3.852,3.8473,3.8066,3.8042,3.7863,3.7328,3.7021,3.6655,3.6285,3.6138,3.592,3.5678,3.5554,3.5461,3.5425,3.536,3.547,3.5683,3.5892,3.5876,3.5689,3.5689,3.5689,3.5689,3.5689,3.5754,3.5858,3.6001,3.6063,3.6056,3.6248,3.6332,3.6332,3.6332,3.614,3.6025,0.0,0.0,0.0,0.0,0.0,0.0,0.0,0.0,0.0,0.0,0.0,0.0,0.0,0.0,0.0,0.0,0.0,0.0,2.3036,2.3262,2.3708,2.4486,2.429,2.4307,2.4583,2.5161,2.5483,2.5488,2.5488,2.5245,2.478,2.3879,2.2812,2.1733,2.13,2.085,2.0424,2.0205,2.0237,2.0464,2.0464,2.0796,0.0,0.0,0.0,0.0,0.0,0.0,0.0,0.0,2.1981,2.2084,2.2209,2.2212,2.2232,2.2359,2.2385,2.2343,2.2286,2.2666,2.333,2.4456,2.4167,2.4484,2.7746,2.8122,2.8474,3.0921,3.1338,3.1144,3.0592,3.0691,3.1646,3.3993,3.5328,3.6533,3.7807,3.7769,3.766,3.766,3.7643,3.7546,3.7358,3.7244,3.7096,3.6808,3.6449,3.6114,3.5718,3.5545,3.5324,3.498,3.4956,3.4839,3.4677,3.479,3.493,3.5079,3.5159,3.5317,3.5482,3.5482,3.5482,3.5482,3.5482,3.5525,3.5611,3.573,3.5818,3.5812,3.611,3.6187,3.6156,3.6263,3.6332,3.6332,0.0,0.0,0.0,0.0,0.0,0.0,0.0,0.0,0.0,0.0,0.0,0.0,0.0,0.0,0.0,0.0,0.0,0.0,2.2733,2.3411,2.3985,2.4486,2.4902,2.5044,2.4797,2.4583,2.4825,2.5488,2.5886,2.5144,2.332,2.4048,2.3562,2.208,2.1778,2.1457,2.1119,2.0424,2.0129,2.0107,2.0107,2.0302,2.0603,0.0,0.0,0.0,0.0,0.0,0.0,0.0,2.2099,2.2356,2.1997,2.2051,2.2153,2.1799,2.1478,2.1233,2.1391,2.1795,2.2445,2.3456,2.3816,2.4925,2.8648,2.9044,2.9636,3.3277,3.335,3.2456,3.1507,3.1552,3.2042,3.3052,3.4554,3.5939,3.6925,3.7066,3.7066,3.7066,3.6909,3.6811,3.6811,3.6569,3.6309,3.6002,3.5979,3.5765,3.5241,3.5218,3.498,3.4408,3.4384,3.4384,3.4384,3.4211,3.431,3.4775,3.4531,3.4645,3.5218,3.5218,3.5218,3.5218,3.5218,3.5375,3.5615,3.5615,3.5615,3.5634,3.5788,3.5892,3.5938,3.6179,3.6309,3.6309,0.0,0.0,0.0,0.0,0.0,0.0,0.0,0.0,0.0,0.0,0.0,0.0,0.0,0.0,0.0,0.0,0.0,0.0,2.2715,2.3055,2.3452,2.3923,2.3744,2.3782,2.4018,2.3765,2.4046,2.4825,2.4371,2.3933,2.3579,2.3128,2.2504,2.1778,2.2316,2.1791,2.0468,2.096,2.0739,2.0107,2.0107,2.0302,2.0603,0.0,0.0,0.0,0.0,0.0,0.0,0.0,0.0,0.0,2.2327,2.2694,2.3235,2.3266,2.3015,2.2788,2.3094,2.2954,2.3083,2.4407,2.5071,2.6101,2.8858,2.9732,3.0924,3.416,3.3639,3.2488,3.223,3.2955,3.363,3.3803,3.4765,3.5892,3.6942,3.6838,3.6626,3.6626,3.6573,3.6446,3.624,3.62,3.6105,3.6002,3.5494,3.5082,3.4917,3.4636,3.4377,3.4162,3.4211,3.4211,3.4211,3.4113,3.4162,3.431,3.4384,3.4553,3.4917,3.4917,3.4917,3.4917,3.4917,3.4963,3.5032,3.5263,3.5439,3.5587,3.5676,3.5694,3.5718,3.5754,3.5928,3.6017,0.0,0.0,0.0,0.0,0.0,0.0,0.0,0.0,0.0,0.0,0.0,0.0,0.0,0.0,0.0,0.0,0.0,0.0,0.0,2.2805,2.3058,2.34,2.3351,2.3329,2.3438,2.3143,2.3246,2.3635,2.3298,2.3054,2.2944,2.2783,2.2504,2.2227,2.2761,2.2221,2.0952,2.1191,2.086,2.0129,2.0325,2.0413,2.0399,0.0,0.0,0.0,0.0,0.0,0.0,0.0,0.0,0.0,2.2427,2.2814,2.3271,2.3234,2.3017,2.2891,2.3317,2.3189,2.3421,2.5237,2.6016,2.6896,2.9381,3.1063,3.2771,3.5183,3.4402,3.3361,3.3689,3.392,3.4129,3.4346,3.5025,3.5759,3.6432,3.6273,3.6085,3.6085,3.5975,3.5845,3.5517,3.5453,3.5289,3.5099,3.4518,3.416,3.4046,3.3811,3.3597,3.3501,3.3549,3.3597,3.3597,3.3524,3.3573,3.3814,3.3907,3.398,3.4055,3.4437,3.4677,3.4775,3.4775,3.4677,3.453,3.4766,3.4949,3.5027,3.5216,3.531,3.5333,3.5545,3.5736,3.5892,0.0,0.0,0.0,0.0,0.0,0.0,0.0,0.0,0.0,0.0,0.0,0.0,0.0,0.0,0.0,0.0,0.0,0.0,0.0,0.0,2.293,2.2986,2.3416,2.3482,2.3067,2.268,2.2416,2.2258,2.2586,2.2412,2.1825,2.2797,2.3156,2.3008,2.3091,2.2761,2.2047,2.1305,2.0642,2.0249,2.0675,2.0555,2.0216,2.0642,0.0,0.0,0.0,0.0,0.0,0.0,0.0,0.0,2.2394,2.2595,2.273,2.2402,2.2243,2.2226,2.2719,2.2913,2.3549,2.59,2.6747,2.7702,3.0229,3.2622,3.4699,3.5939,3.5203,3.4643,3.5435,3.4592,3.4074,3.4725,3.5263,3.5564,3.5615,3.5545,3.5446,3.5545,3.523,3.4975,3.4725,3.4499,3.4148,3.3696,3.3409,3.3102,3.2816,3.284,3.27,3.2418,3.2676,3.2864,3.2864,3.263,3.2724,3.3262,3.3244,3.3102,3.2911,3.3909,3.4482,3.4726,3.4726,3.4506,3.4113,3.4286,3.4261,3.4111,3.4607,3.4745,3.4843,3.5337,3.5671,3.5875,0.0,0.0,0.0,0.0,0.0,0.0,0.0,0.0,0.0,0.0,0.0,0.0,0.0,0.0,0.0,0.0,0.0,0.0,0.0,0.0,2.3504,2.3023,2.311,2.3285,2.3531,2.2404,2.1804,2.1756,2.1638,2.164,2.1825,2.2652,2.2724,2.2129,2.3552,2.3128,2.1352,2.1422,2.1247,2.0864,2.0435,2.0467,2.0664,2.0402,2.0423,0.0,0.0,0.0,0.0,0.0,0.0,0.0,2.258,2.2918,2.3259,2.3375,2.3537,2.3754,2.3976,2.3804,2.3991,2.5873,2.8081,3.0252,3.1972,3.3133,3.4,3.441,3.4348,3.44,3.5165,3.5381,3.5381,3.5141,3.5211,3.5357,3.5592,3.4886,3.4484,3.4933,3.4428,3.4029,3.3908,3.3862,3.372,3.3407,3.3125,3.27,3.1993,3.2347,3.2277,3.1646,3.2277,3.2583,3.2583,3.2536,3.2536,3.2677,3.2889,3.2865,3.2606,3.3667,3.4211,3.4261,3.4261,3.4162,3.4113,3.4162,3.4113,3.4136,3.4355,3.4501,3.4525,3.4841,3.5283,3.5606,0.0,0.0,0.0,0.0,0.0,0.0,0.0,0.0,0.0,0.0,0.0,0.0,0.0,0.0,0.0,0.0,0.0,0.0,0.0,0.0,2.3689,2.3351,2.3132,2.3023,2.3008,2.2084,2.1581,2.1581,2.1237,2.1271,2.1721,2.236,2.2593,2.2554,2.3645,2.3172,2.1564,2.1658,2.1337,2.0753,2.0621,2.0555,2.0511,2.0489,2.0435,2.0367,2.0367,0.0,0.0,0.0,0.0,0.0,0.0,0.0,2.2731,2.2935,2.3052,2.3167,2.3502,2.3768,2.4497,2.6843,2.8958,3.0697,3.1737,3.2456,3.2973,3.3046,3.3711,3.4452,3.5073,3.5127,3.4938,3.4651,3.4455,3.4331,3.4479,3.4004,3.3695,3.3859,3.3672,3.341,3.3149,3.2889,3.2676,3.2531,3.1735,3.1247,3.1155,3.0968,3.0806,3.0624,3.0986,3.1144,3.1031,3.1516,3.1516,3.1031,3.2059,3.251,3.2536,3.322,3.3311,3.3019,3.3642,3.3687,3.3368,3.3773,3.3817,3.3717,3.3965,3.4064,3.4113,3.4482,3.4857,3.5192,0.0,0.0,0.0,0.0,0.0,0.0,0.0,0.0,0.0,0.0,0.0,0.0,0.0,0.0,0.0,0.0,0.0,0.0,0.0,0.0,0.0,2.3984,2.3438,2.2957,2.2564,2.1996,2.1712,2.1712,2.1266,2.1388,2.2046,2.2455,2.2915,2.332,2.3579,2.3062,2.2045,2.1695,2.1174,2.0587,2.0864,2.0588,2.0074,2.0588,2.0445,1.9998,2.0085,2.0335,2.0635,2.0987,0.0,0.0,0.0,0.0,2.2009,2.2147,2.2243,2.2363,2.2616,2.3593,2.511,2.7709,2.9155,3.0076,3.0652,3.1298,3.1786,3.1879,3.3101,3.429,3.4718,3.4294,3.3862,3.3862,3.3502,3.3238,3.3238,3.3166,3.3001,3.2721,3.2931,3.2836,3.2159,3.1783,3.1525,3.1337,3.0183,2.9681,3.0159,2.9529,2.9273,2.9532,2.9683,2.9645,2.9494,3.0305,3.0305,2.9536,3.0968,3.1778,3.2112,3.2321,3.2253,3.1991,3.3076,3.3191,3.2632,3.336,3.3492,3.3342,3.3592,3.3668,3.3717,3.4211,3.4518,3.4742,0.0,0.0,0.0,0.0,0.0,0.0,0.0,0.0,0.0,0.0,0.0,0.0,0.0,0.0,0.0,0.0,0.0,0.0,0.0,0.0,0.0,2.5007,2.4115,2.3575,2.3509,2.2637,2.2215,2.2215,2.1734,2.2257,2.3778,2.4078,2.3881,2.332,2.3579,2.2988,2.1793,2.0953,2.0819,2.113,2.0676,2.0168,1.9708,2.0085,1.9911,1.954,1.9954,2.0335,2.0603,2.0667,2.0796,0.0,0.0,0.0,2.2332,2.223,2.3006,2.3718,2.2926,2.4184,2.5939,2.6757,2.7918,2.9005,2.9811,3.0178,3.0475,3.0965,3.2134,3.3125,3.3173,3.3312,3.338,3.338,3.3146,3.2958,3.2958,3.2553,3.2152,3.1899,3.2106,3.1796,3.0608,3.0866,3.0702,2.9785,2.9531,2.9168,2.8645,2.9094,2.9094,2.8528,2.9113,2.9536,2.973,2.9886,2.9971,3.0001,2.9834,3.0017,3.0534,3.0555,3.1219,3.2417,3.2836,3.2973,3.285,3.3212,3.3342,3.3342,3.3592,3.3668,3.3717,3.4014,3.4293,3.4443,0.0,0.0,0.0,0.0,0.0,0.0,0.0,0.0,0.0,0.0,0.0,0.0,0.0,0.0,0.0,0.0,0.0,0.0,0.0,0.0,0.0,2.4792,2.4115,2.3444,2.292,2.2506,2.2433,2.2695,2.2237,2.3191,2.5524,2.5598,2.5264,2.4537,2.4679,2.3913,2.2612,2.1996,2.1609,2.1263,2.045,2.0087,1.9992,1.9494,1.9375,1.9441,1.9627,1.9788,1.9992,2.045,2.0603,2.0735,2.1422,0.0,0.0,0.0,2.2246,2.296,2.3075,2.3605,2.4599,2.6523,2.6843,2.7149,2.8823,2.8994,2.8977,2.9555,3.0467,3.1318,3.1889,3.2234,3.2319,3.1985,3.1584,3.1304,3.1304,3.1113,3.0858,3.0596,3.0815,3.0648,2.9828,2.9715,2.9554,2.9262,2.8575,2.8263,2.8526,2.831,2.8147,2.8133,2.8272,2.8332,2.8355,2.8886,2.9445,2.9941,2.9451,2.9625,3.0359,3.0579,3.1008,3.1689,3.2206,3.2441,3.2458,3.2894,3.3165,3.3342,3.3442,3.3492,3.3519,3.3767,3.3907,3.402,0.0,0.0,0.0,0.0,0.0,0.0,0.0,0.0,0.0,0.0,0.0,0.0,0.0,0.0,0.0,0.0,0.0,0.0,0.0,0.0,0.0,2.4683,2.429,2.3656,2.2695,2.2805,2.2914,2.3001,2.2783,2.387,2.6207,2.6427,2.638,2.6124,2.589,2.5121,2.393,2.3327,2.2724,2.2035,2.1195,2.0705,2.0398,1.9642,1.9372,1.9387,1.9387,1.9387,1.9494,2.0068,2.0321,2.0399,2.0914,2.1287,0.0,0.0,0.0,2.1734,2.2742,2.2926,2.342,2.5654,2.5601,2.5498,2.7238,2.7435,2.7409,2.805,2.8939,2.9814,3.0477,3.0985,3.1187,3.0735,3.035,3.0086,3.0086,3.0086,2.9954,2.9558,2.9846,2.9738,2.8991,2.8733,2.8584,2.863,2.7769,2.7594,2.8287,2.7663,2.7433,2.7782,2.7538,2.7371,2.7249,2.8134,2.8864,2.9368,2.9033,2.9362,3.0213,3.0484,3.0725,3.1052,3.1729,3.2065,3.2252,3.2692,3.3079,3.3292,3.3292,3.3292,3.3342,3.3519,3.3592,3.3641,0.0,0.0,0.0,0.0,0.0,0.0,0.0,0.0,0.0,0.0,0.0,0.0,0.0,2.3526,2.3985,2.4407,0.0,0.0,0.0,0.0,0.0,2.5204,2.5161,0.0,2.364,2.4137,2.3919,2.3001,2.34,2.4156,2.5167,2.5943,2.6854,2.783,2.6931,2.6256,2.5708,2.4442,2.3993,2.3995,2.3578,2.2293,2.0725,2.0963,2.0368,1.9387,1.9387,1.9387,1.9419,1.9441,1.9768,2.0172,2.0506,2.0896,2.1119,0.0,0.0,0.0,2.1688,2.2651,2.3407,2.3568,2.4091,2.456,2.4699,2.5255,2.591,2.6657,2.8005,2.8951,2.8682,2.9484,3.0158,3.0134,3.011,3.0086,3.0086,3.0086,2.9851,2.9141,2.9505,2.9243,2.7737,2.8063,2.805,2.7346,2.7394,2.7435,2.73,2.7394,2.7412,2.7277,2.719,2.729,2.747,2.8002,2.8226,2.829,2.825,2.8674,2.9475,2.9456,3.002,3.1008,3.1501,3.2018,3.2488,3.2812,3.3079,3.3292,3.3292,3.3292,3.3292,3.3342,3.3342,3.3342,0.0,0.0,0.0,0.0,0.0,0.0,0.0,0.0,0.0,0.0,0.0,0.0,0.0,2.4597,2.4748,2.5297,2.5605,0.0,0.0,0.0,0.0,2.4749,2.4421,2.4093,2.3705,2.3919,2.3984,2.3962,2.3809,2.4215,2.5165,2.5477,2.5942,2.6666,2.7415,2.6909,2.5467,2.537,2.4376,2.2871,2.3267,2.2501,2.1106,2.0643,2.0446,2.0303,1.9637,1.9812,2.0249,1.9615,1.9715,2.0063,1.9896,2.0212,2.0707,2.0701,2.0571,2.0641,2.1619,2.195,2.2226,2.3155,2.2925,2.283,2.4045,2.4593,2.4901,2.5162,2.6722,2.7817,2.7206,2.8338,2.9337,2.9124,2.8954,2.8954,2.9035,2.9076,2.8922,2.8529,2.8671,2.8444,2.7598,2.7673,2.7597,2.7231,2.6771,2.6741,2.7185,2.6906,2.6916,2.7389,2.7557,2.7679,2.776,2.7921,2.8059,2.8179,2.8349,2.8663,2.9106,2.9488,2.9983,3.0514,3.0873,3.1388,3.1995,3.2441,3.2787,3.3079,3.3254,3.3292,3.3292,3.3292,3.3292,3.3342,0.0,0.0,0.0,0.0,0.0,0.0,0.0,0.0,0.0,0.0,0.0,0.0,0.0,0.0,2.5433,2.5884,2.5906,2.5906,2.5906,2.56,2.5273,2.4967,2.4486,2.4203,2.4203,2.4071,2.4159,2.4486,2.3848,2.3974,2.4803,2.4803,2.5154,2.5834,2.704,2.7041,2.6168,2.6756,2.5823,2.3958,2.4,2.3416,2.2399,2.1513,2.1244,2.1297,2.0795,2.0839,2.1069,2.0555,2.0456,2.0543,2.0249,2.006,2.0039,2.0439,2.0364,2.0366,2.1161,2.1422,2.1661,2.2489,2.2118,2.1883,2.2994,2.3663,2.4104,2.4175,2.5698,2.6939,2.662,2.749,2.8272,2.8307,2.8203,2.8139,2.8283,2.8323,2.8243,2.8018,2.7978,2.7817,2.7452,2.7412,2.733,2.7231,2.6771,2.6757,2.7267,2.6923,2.6932,2.7487,2.776,2.7921,2.8002,2.8002,2.8122,2.8299,2.8495,2.8674,2.8905,2.9441,2.9802,3.01,3.0458,3.0993,3.1736,3.2066,3.2417,3.2812,3.3079,3.3189,3.3212,3.3273,3.3292,3.3292,0.0,0.0,0.0,0.0,0.0,0.0,0.0,0.0,0.0,2.4233,0.0,0.0,0.0,0.0,0.0,2.5884,2.5884,2.5884,2.5884,2.5863,2.5863,2.5884,0.0,0.0,2.5182,2.4705,2.4465,2.4465,2.3671,2.3504,2.3968,2.3946,2.4454,2.5466,2.5705,2.6627,2.7914,2.8484,2.8227,2.7325,2.6044,2.5201,2.452,2.3674,2.2886,2.2331,2.2826,2.2411,2.1712,2.2171,2.1996,2.1581,2.1538,2.0401,1.9208,1.9731,1.9795,1.9792,0.0,0.0,0.0,2.1484,2.1643,2.1799,2.1484,2.2418,2.3432,2.3712,2.4922,2.617,2.6917,2.6878,2.7009,2.7747,2.7881,2.7881,2.7881,2.7881,2.78,2.751,2.751,2.7412,2.7231,2.719,2.719,2.719,2.7348,2.7487,2.751,2.751,2.751,2.751,2.7777,2.8002,2.8219,2.8219,2.8299,2.8522,2.8522,2.8666,2.8922,2.9216,2.9539,2.9788,3.0322,3.0969,3.1666,3.1713,3.2018,3.2512,3.2812,3.2924,3.2922,3.3208,3.3292,3.3292,0.0,0.0,0.0,0.0,0.0,0.0,0.0,2.4544,2.4627,0.0,0.0,0.0,2.5473,2.5749,2.5753,2.5404,2.536,2.536,2.536,2.5054,2.5033,2.5401,2.4574,2.4312,2.4683,2.4203,2.394,2.394,2.3345,2.3141,2.3251,2.268,2.2856,2.3749,2.4271,2.4869,2.5579,2.7086,2.5878,2.3187,2.5788,2.5128,2.2789,2.3787,2.3388,2.239,2.2996,2.2937,2.2601,2.2548,2.2116,2.1407,2.0358,1.9544,1.8991,1.9328,1.9441,1.962,2.0244,0.0,0.0,0.0,0.0,0.0,2.1288,2.1734,2.2273,2.2575,2.3663,2.4659,2.5071,2.5607,2.62,2.6787,2.7301,2.7696,2.7881,2.7881,2.78,2.751,2.751,2.7412,2.7231,2.719,2.719,2.719,2.6701,2.6727,2.7487,2.7794,2.8059,2.8219,2.8323,2.8363,2.8419,2.8419,2.8419,2.8522,2.8522,2.8555,2.8618,2.8899,2.9106,2.9188,2.9779,3.0246,3.0678,3.1407,3.1807,3.1995,3.2648,3.2924,3.2922,3.3208,3.3292,3.3292,0.0,0.0,0.0,0.0,0.0,0.0,2.4574,2.4801,2.5025,0.0,0.0,0.0,2.5576,2.56,2.5404,2.4964,2.492,2.492,2.492,2.4639,2.4596,2.492,2.4137,2.3923,2.4486,2.3787,2.3635,2.405,2.3229,2.2988,2.3285,2.2504,2.235,2.2739,2.3332,2.3486,2.3416,2.5535,2.5289,2.3605,2.5161,2.5007,2.3919,2.4526,2.4325,2.3743,2.4542,2.452,2.4167,2.4116,2.3121,2.1734,2.0904,1.9938,1.9216,1.9764,1.9924,2.0021,2.0434,2.068,2.0925,2.1132,0.0,0.0,2.0879,2.1527,2.2044,2.1828,2.2823,2.3657,2.3433,2.3973,2.4613,2.5119,2.5739,2.6479,2.7481,2.7598,2.7557,2.7371,2.7371,2.733,2.7231,2.719,2.719,2.719,2.676,2.6787,2.7447,2.7978,2.8259,2.8379,2.8459,2.8522,2.8522,2.8522,2.8522,2.8522,2.8522,2.8522,2.8522,2.8767,2.8958,2.9135,2.9592,2.995,3.025,3.1082,3.1453,3.1592,3.2417,3.2743,3.2788,3.3165,3.3292,3.3292,0.0,0.0,0.0,2.3609,2.419,2.4634,2.4582,2.4989,2.5205,0.0,2.5236,2.5429,2.5204,2.5204,2.5029,2.457,2.4443,2.4399,2.4439,2.4399,2.4421,2.4486,2.4006,2.3902,2.4399,2.3482,2.3438,2.4334,2.3165,2.293,2.3635,2.2856,2.246,2.2411,0.0,2.2469,2.1887,2.3919,2.5404,2.6213,2.4643,2.4967,2.6234,2.5513,2.5286,2.5426,2.6442,2.6324,2.569,2.5931,2.4491,2.2521,2.2338,2.1041,1.9742,2.0628,2.071,2.0586,2.0617,2.0502,2.0488,2.1003,2.0795,0.0,2.0481,2.1491,2.2213,2.1394,2.2203,2.2811,2.1996,2.2249,2.2754,2.3178,2.3705,2.4774,2.6703,2.707,2.7116,2.707,2.7162,2.719,2.719,2.719,2.719,2.719,2.7231,2.733,2.7534,2.7978,2.8219,2.8219,2.8419,2.8522,2.8522,2.8522,2.8522,2.8522,2.8522,2.8522,2.8522,2.876,2.9029,2.9291,2.9569,2.9862,3.0145,3.0687,3.1048,3.1368,3.2135,3.2489,3.2558,3.3102,3.3296,3.3292,0.0,0.0,0.0,0.0,2.4151,2.4392,2.4355,2.462,2.4681,2.4266,2.4816,2.5245,2.5204,2.5204,2.5048,2.4701,2.4171,2.3913,2.4068,2.3952,2.4071,2.4465,2.4006,2.3749,2.3836,2.3307,2.3088,2.3285,2.2666,2.2644,2.3132,2.235,2.227,2.2848,2.2292,2.2279,2.2695,2.2411,2.3307,2.4967,2.5753,2.5442,2.4657,2.5464,2.5033,2.4259,2.5804,2.5631,2.4759,2.4807,2.4504,2.3826,2.2573,2.1429,2.0609,2.0702,2.0235,1.9732,2.0117,2.0176,2.0234,2.0626,2.0764,0.0,2.1011,2.094,2.0948,2.1305,2.1078,2.096,2.1412,2.1809,2.2078,2.2169,2.2949,2.4053,2.5399,2.62,2.6553,2.6255,2.6806,2.719,2.719,2.719,2.719,2.719,2.733,2.7534,2.78,2.8059,2.8259,2.8419,2.8459,2.8522,2.8522,2.8522,2.8522,2.8522,2.8522,2.8522,2.8522,2.8539,2.8594,2.8698,2.8952,2.9287,2.9589,3.0141,3.0652,3.1121,3.1871,3.2322,3.2512,3.2831,3.3123,3.3292,0.0,0.0,0.0,0.0,2.4304,2.4648,2.4854,2.5218,2.5319,2.4996,2.5311,2.536,2.488,2.4934,2.4667,2.3919,2.3655,0.0,2.3523,2.341,2.3482,2.3744,2.3504,2.3372,2.3372,2.3372,2.3241,2.3001,2.3023,2.3023,2.2979,2.2571,2.2352,2.2302,2.2352,2.2352,2.2324,2.2564,2.3426,2.4667,2.5172,2.5216,2.5062,2.5788,2.5571,2.5062,2.5892,2.5848,2.5282,2.4799,2.443,2.3979,2.3143,2.2068,2.1174,2.1266,2.0864,2.0434,2.057,2.0335,2.0047,2.0162,2.0231,0.0,0.0,2.0802,2.1132,2.1066,2.1049,2.094,2.0484,2.0819,2.1101,2.0942,2.127,2.1937,2.3131,2.447,2.5455,2.5808,2.6214,2.6565,2.6818,2.707,2.719,2.719,2.729,2.7493,2.7881,2.8002,2.8203,2.8483,2.8522,2.8522,2.8522,2.8522,2.8522,2.8522,2.8522,2.8522,2.8522,2.8522,2.8563,2.8705,2.8845,2.9248,2.9789,3.0114,3.0514,3.1076,3.1661,3.2135,3.2559,3.2787,3.3102,3.3292,0.0,0.0,0.0,0.0,2.4282,0.0,0.0,0.0,2.5678,2.5664,2.5664,2.5489,2.4945,2.4777,2.4503,2.3952,2.3394,0.0,2.3492,2.3178,2.3047,2.3038,2.3126,2.3088,2.3038,2.3394,2.3394,2.3001,2.3394,2.3394,2.3001,2.3001,2.2586,2.1887,2.2564,2.2579,2.2155,2.317,2.4073,2.4775,2.4526,2.5006,2.5859,2.6071,2.6091,2.6025,2.6113,2.6157,2.6025,2.5241,2.4542,2.3947,2.3863,2.2786,2.1632,2.1917,2.1582,2.1067,2.0972,2.0441,1.989,1.9843,1.99,2.0003,0.0,0.0,0.0,2.0981,2.1273,2.1164,1.9755,1.997,2.0212,1.9668,1.9719,2.0111,2.0834,2.2359,2.3731,2.4779,2.5041,2.5363,2.5908,2.6519,2.6984,2.7167,2.719,2.7394,2.78,2.7881,2.8082,2.8419,2.8459,2.8522,2.8522,2.8522,2.8522,2.8522,2.8522,2.8522,2.8522,2.8522,2.8618,2.8821,2.8821,2.929,3.0087,3.0087,3.0464,3.1097,3.1453,3.1901,3.2371,3.2651,3.2969,3.3231,2.3001,2.315,0.0,0.0,0.0,0.0,0.0,0.0,2.4137,2.4596,2.4816,2.5297,2.6256,2.5433,2.54,2.6951,2.423,2.3203,2.5121,2.387,2.3157,2.3268,2.3492,2.3514,2.3261,2.3119,2.3045,2.3001,2.3045,2.3045,2.3001,2.3001,2.2936,2.2826,2.2521,2.2915,2.3807,2.346,2.3917,2.4842,2.5378,2.5605,2.558,2.5815,2.5664,2.5357,2.5795,2.5948,2.5902,2.5721,2.5289,2.477,2.4434,2.3324,2.2207,2.2306,2.123,2.0058,2.031,2.0103,1.9845,2.0011,2.0505,2.1063,2.1532,0.0,2.1414,2.1345,0.0,2.0419,1.9936,0.0,0.0,1.8552,1.9541,2.0224,1.9489,1.9953,2.0796,2.1946,2.2758,2.3421,2.3954,2.5148,2.6227,2.7121,2.719,2.7313,2.7534,2.78,2.8002,2.8219,2.8419,2.8522,2.8522,2.8522,2.8522,2.8522,2.8522,2.8522,2.8522,2.8522,2.8507,2.8555,2.8555,2.8992,2.9759,2.9759,3.0328,3.1273,3.1321,3.1541,3.1807,3.2108,3.2536,3.2969,2.3001,2.3075,0.0,0.0,0.0,0.0,0.0,2.4639,2.4967,2.4902,2.5442,2.6118,2.6776,2.6353,2.6142,2.6367,2.4767,2.4054,2.4787,2.345,0.0,2.4325,2.3695,2.352,2.3969,2.3607,2.3416,2.3416,2.3416,2.3285,0.0,0.0,0.0,2.3001,2.2805,2.3301,2.4315,2.4117,2.4618,2.5621,2.5492,2.5624,2.5934,2.6336,2.6428,2.6321,2.571,2.6016,2.6517,2.5201,2.509,2.5271,2.3809,2.2969,2.245,2.24,2.1555,2.068,2.0963,2.1124,2.1134,2.0864,2.1198,2.1716,2.2203,2.1776,2.1467,2.2134,0.0,0.0,0.0,0.0,0.0,0.0,1.9275,1.9494,1.8797,1.846,1.9099,2.1331,2.1859,2.2575,2.399,2.4526,2.5119,2.5792,2.6135,2.6414,2.6628,2.7432,2.8002,2.8179,2.8379,2.8522,2.8522,2.8522,2.8522,2.8522,2.8522,2.8522,2.8522,2.8522,2.8522,2.8522,2.8522,2.885,2.9487,2.9629,3.0134,3.089,3.1199,3.1582,3.1942,3.2033,3.2346,3.2721,2.2826,0.0,0.0,0.0,2.3378,2.346,2.3908,2.4723,2.5317,2.5442,2.612,2.6842,2.7502,2.7145,2.6801,2.6592,2.5464,2.4702,2.4638,2.3505,2.3289,2.4255,2.3837,2.3732,2.3971,2.3802,2.3618,2.3487,2.3487,2.3351,0.0,0.0,0.0,0.0,2.3001,2.352,2.4408,2.4539,2.5235,2.6177,2.581,2.6054,2.671,2.6776,2.702,2.7151,2.5994,2.6321,2.702,2.5138,2.5116,2.5543,2.3705,2.2956,2.2702,2.2532,2.1923,2.1321,2.1577,2.1888,2.2041,2.1475,2.1657,2.2052,2.2342,2.1904,2.168,2.2418,2.198,0.0,0.0,0.0,0.0,0.0,0.0,1.9192,1.8397,1.7869,1.8392,2.0576,2.1112,2.1929,2.3468,2.3815,2.4101,2.4549,2.5217,2.567,2.5923,2.7198,2.7962,2.8099,2.8339,2.8522,2.8522,2.8522,2.8522,2.8522,2.8522,2.8522,2.8522,2.8522,2.8522,2.8522,2.8522,2.8811,2.934,2.9493,3.0,3.0644,3.1025,3.1502,3.2001,3.2001,3.2176,3.2418,2.231,2.2695,0.0,2.3023,2.2652,2.244,2.2634,2.3288,2.4329,2.5937,2.6407,2.7227,2.8851,2.7781,2.7568,2.9157,2.6411,2.4874,2.5411,2.4652,2.3491,2.206,2.4027,2.4341,2.2715,2.3337,2.3504,2.3023,2.3023,2.3023,0.0,0.0,0.0,0.0,2.3001,2.3398,2.4155,2.462,2.5333,2.6221,2.6663,2.7283,2.7827,2.6977,2.6911,2.7239,2.6715,2.6889,2.713,2.6076,2.5708,2.5552,2.4777,2.3858,2.3031,2.2853,2.2171,2.1529,2.1727,2.1947,2.1985,2.153,2.1786,2.2147,2.195,2.2059,2.2091,2.1808,2.1983,2.1929,2.1079,0.0,0.0,0.0,0.0,0.0,0.0,1.8429,1.8786,1.8881,2.0179,2.1249,2.1635,2.2629,2.3383,2.3711,2.4649,2.5362,2.5693,2.7119,2.7881,2.7921,2.8283,2.8522,2.8522,2.8522,2.8522,2.8522,2.8522,2.8522,2.8522,2.8522,2.8522,2.8522,2.8522,2.8811,2.9292,2.9316,2.9941,3.0879,3.0903,3.1216,3.1741,3.1741,3.1875,3.2103,0.0,0.0,0.0,2.2608,2.2411,2.2411,2.2827,2.3629,2.4765,2.6229,2.678,2.7762,2.9466,2.9096,2.8951,2.9668,2.7593,2.6451,2.6953,2.5634,2.4761,2.4559,2.5551,2.5622,2.4556,2.4277,2.3977,2.3671,2.2811,2.2324,0.0,0.0,0.0,0.0,2.2542,2.3213,2.4386,2.4847,2.5675,2.6663,2.6817,2.7151,2.7478,2.7195,2.7326,2.7674,2.7216,2.7173,2.713,2.6162,2.5913,2.5876,2.495,2.4445,2.4203,2.4469,2.3835,2.317,2.3546,2.3827,2.3903,2.3428,2.3345,2.3314,2.3243,2.2353,2.167,2.2261,2.1937,2.15,2.1456,0.0,0.0,0.0,0.0,0.0,0.0,1.8401,1.881,1.881,1.9519,2.005,2.0071,2.0637,2.1036,2.1034,2.2269,2.3064,2.319,2.5494,2.6847,2.6847,2.7901,2.8522,2.8522,2.8522,2.8522,2.8522,2.8522,2.8522,2.8522,2.8522,2.8522,2.8522,2.8522,2.8619,2.8811,2.9148,2.9725,3.0398,3.0735,3.1235,3.1717,3.1717,3.1769,3.1899,2.2848,2.2761,2.2717,2.2586,2.2564,2.2754,2.34,2.4649,2.5979,2.7369,2.7945,2.8788,3.0289,3.0339,3.0333,3.0338,2.9345,2.8496,2.8001,2.6953,2.6204,2.5813,2.6535,2.6583,2.5664,2.4986,2.4614,2.452,2.3045,2.2332,0.0,0.0,0.0,0.0,2.2622,2.32,2.4028,2.5172,2.5983,2.6578,2.6973,2.7415,2.7808,2.7415,2.7546,2.7914,2.7304,2.7217,2.7305,2.6279,2.621,2.6429,2.5391,2.5102,2.5124,2.5244,2.4777,2.4311,2.4664,2.4825,2.482,2.439,2.4048,2.3768,2.3646,2.2777,2.2088,2.2502,2.2328,2.197,2.1557,0.0,0.0,0.0,0.0,0.0,0.0,1.875,1.8946,1.8863,1.9432,1.9634,1.9168,1.9724,1.9936,1.9599,2.0896,2.1776,2.1871,2.4715,2.6306,2.6306,2.771,2.8522,2.8522,2.8522,2.8522,2.8522,2.8522,2.8522,2.8522,2.8522,2.8522,2.8522,2.8522,2.8522,2.8546,2.9076,2.9605,3.0134,3.0663,3.1235,3.1717,3.1717,3.1717,3.1773,2.2411,2.2324,2.2455,2.2914,2.3023,2.3348,2.4227,2.5983,2.7753,2.9238,2.9773,3.0319,3.114,3.1387,3.1428,3.1207,3.1337,3.0621,2.8704,2.8594,2.7754,2.5764,2.7091,2.7259,2.601,2.5491,2.5306,2.5466,2.3668,0.0,0.0,0.0,0.0,0.0,2.3178,2.3364,2.3141,2.5476,2.6282,2.6058,2.7106,2.7986,2.8576,2.7522,2.7458,2.7805,2.6955,2.7085,2.7479,2.655,2.6719,2.711,2.6169,2.5856,2.5766,2.5335,2.506,2.4965,2.5161,2.4982,2.4731,2.4457,2.4041,2.3585,2.3234,2.3266,2.3189,2.2559,2.3087,2.3143,2.1481,2.1358,0.0,0.0,0.0,0.0,0.0,1.9427,1.9238,1.9042,1.9797,1.9904,1.8834,1.9642,1.9942,1.9174,2.0454,2.1435,2.1835,2.4598,2.6188,2.6344,2.7654,2.8402,2.8522,2.845,2.845,2.8522,2.8522,2.8522,2.8522,2.8522,2.8522,2.8522,2.8522,2.8522,2.8546,2.9076,2.9605,3.0134,3.0663,3.1235,3.1717,3.1717,3.1717,3.1773,2.2441,2.2324,2.2455,2.2914,2.3307,2.3591,2.3815,2.5274,2.7212,2.9597,2.9995,3.0297,3.1191,3.1403,3.1348,3.1087,3.0525,2.9978,2.959,3.0047,2.9291,2.6987,2.8983,2.9145,2.6968,2.6972,2.6382,2.5133,2.3564,2.267,2.2482,0.0,0.0,0.0,0.0,2.3243,2.2898,2.5066,2.6232,2.6664,2.6596,2.6971,2.75,2.6598,2.6623,2.7194,2.7123,2.7028,2.6867,2.6764,2.6847,2.6956,2.6707,2.6699,2.6798,2.6499,2.6395,2.6395,2.6413,2.6129,2.5813,2.5661,2.5127,2.4556,2.4273,2.3682,2.315,2.2943,2.2821,2.2651,2.233,2.2503,2.2378,0.0,0.0,0.0,0.0,1.9848,1.9638,1.9404,1.9399,1.8912,1.7661,1.8007,1.7851,1.6715,1.8336,1.9831,2.0881,2.2938,2.4838,2.6562,2.6295,2.6887,2.8498,2.769,2.769,2.8522,2.8522,2.8522,2.8522,2.8522,2.8522,2.8522,2.8522,2.8522,2.8546,2.9076,2.9605,3.0134,3.0663,3.1235,3.1717,3.1717,3.1717,3.1817,2.2761,2.2979,2.3351,2.3613,2.4457,2.4977,2.4628,2.608,2.7813,2.9487,2.9962,3.0332,3.0713,3.1222,3.1436,3.1172,3.1244,3.0987,3.0192,3.1094,3.076,2.8717,3.0052,2.9982,2.8169,2.765,2.6707,2.5227,2.3852,2.2989,2.259,0.0,0.0,0.0,0.0,2.3225,2.3132,2.5211,2.6582,2.73,2.6812,2.7077,0.0,2.6657,2.6612,2.7077,2.7269,2.6976,2.6633,2.682,2.6985,2.7026,2.7026,2.7067,2.7067,2.6944,2.6862,2.6779,2.6779,2.6573,2.6359,2.6314,2.5824,2.5318,2.5283,2.4642,2.4135,2.4209,2.3836,2.337,2.3063,2.2696,2.2196,0.0,0.0,0.0,2.0351,2.0579,2.051,1.9851,1.9983,1.9541,1.8116,1.7708,1.7139,1.6256,1.7961,1.9291,1.9835,2.2681,2.4519,2.5051,2.6028,2.6726,2.7014,2.6832,2.711,2.7786,2.7786,2.8065,2.8522,2.8522,2.8522,2.8522,2.8763,2.8859,2.8907,2.9677,3.0158,3.047,3.1067,3.1452,3.1697,3.1824,3.1875,3.1974,2.3235,2.393,2.4544,2.4439,2.5889,2.6755,2.5873,2.7437,2.8852,2.9315,2.9972,3.0353,3.0157,3.0967,3.1438,3.1368,3.2416,3.2356,3.0793,3.1905,3.2028,3.0579,3.0567,3.0232,2.9296,2.7996,2.673,2.5599,2.4428,0.0,0.0,0.0,0.0,0.0,0.0,2.3513,2.3899,2.5695,2.6976,2.7742,2.7361,2.7587,2.8055,2.722,2.706,2.7269,2.7269,2.6976,2.6697,2.6862,2.7026,2.719,2.7149,2.7067,2.6962,2.6944,2.6798,2.6674,2.6674,2.6674,2.6674,2.6633,2.6318,2.6044,2.6182,2.5837,2.5535,2.573,2.5356,2.4714,2.3866,2.2788,2.1772,0.0,0.0,2.0565,2.0695,2.1371,2.1472,2.0293,2.0919,0.0,1.9262,1.8201,1.741,1.6931,1.8491,1.9392,1.9189,2.2894,2.4448,2.3257,2.6056,2.6885,2.5409,2.61,2.6699,2.721,2.6994,2.745,2.8522,2.8522,2.8522,2.8546,2.9076,2.9292,2.9388,3.0446,3.0927,3.098,3.148,3.1673,3.1701,3.2029,3.2198,3.2294,2.3891,2.4459,2.4804,2.4211,2.6157,2.7405,2.6202,2.7189,2.8526,2.9919,3.0211,3.0392,3.0477,3.0759,3.0976,3.104,3.1482,3.1733,3.1737,3.2774,3.2723,3.121,3.0825,3.039,2.9783,2.8522,2.7269,2.6066,2.4986,2.3977,0.0,0.0,0.0,0.0,0.0,2.4764,2.5867,2.5945,2.649,2.7316,2.7227,2.7048,2.6892,2.7343,2.73,2.6969,2.6969,2.6934,2.6839,2.6903,2.7026,2.7149,2.682,2.7003,2.733,2.7003,2.7003,2.7103,2.7103,2.7103,2.7062,2.688,2.7017,2.7111,2.6826,2.6421,2.6035,2.6012,2.5626,2.5317,2.531,2.4549,2.3792,2.3395,2.2162,2.1229,2.126,2.1634,2.1546,2.0633,2.1296,2.1095,1.9275,1.882,1.8331,1.7585,1.8587,1.9644,2.0586,2.1486,2.2724,2.4425,2.44,2.5218,2.7067,2.6056,2.6657,2.8859,2.7522,2.745,2.8522,2.8522,2.8522,2.8546,2.9076,2.9292,2.9388,3.0446,3.1033,3.1264,3.1581,3.156,3.1481,3.2181,3.2582,3.2864,2.5717,2.6057,2.6285,2.611,2.7076,2.78,2.7572,2.7321,2.7655,2.9072,2.9858,3.0329,3.043,3.0973,3.1279,3.1216,3.1737,3.1892,3.1237,3.2595,3.2738,3.1313,3.1096,3.0523,2.954,2.8903,2.7671,2.5864,2.517,2.4356,0.0,0.0,0.0,2.2027,0.0,2.492,2.6123,2.6559,2.683,2.7015,2.734,2.7321,2.7143,2.7567,2.7546,2.7281,2.7151,2.6993,2.6886,2.6764,2.6903,2.7026,2.682,2.7044,2.7307,2.7126,2.7185,2.7307,2.7126,2.7103,2.7185,2.7085,2.7267,2.7429,2.7126,2.6984,2.6841,2.6697,2.6308,2.5828,2.5356,2.4852,2.442,2.4152,2.3151,2.2376,2.2376,2.2213,2.1999,2.1809,2.2315,2.2226,2.108,2.1132,2.0266,1.7991,1.8983,1.9863,2.0159,2.1694,2.2933,2.3827,2.459,2.5372,2.6256,2.6078,2.6678,2.8065,2.7258,2.745,2.8522,2.8522,2.8522,2.8546,2.9076,2.946,2.9797,3.0855,3.1388,3.1516,3.1673,3.1708,3.1817,3.2463,3.2983,3.3387,2.7171,2.7557,2.7818,2.7392,2.7772,2.814,2.8298,2.7438,2.7293,2.8557,2.9434,3.0127,3.0485,3.1264,3.1755,3.1543,3.2253,3.215,3.0884,3.2263,3.2553,3.1272,3.0989,3.0404,2.9424,2.8903,2.7714,2.5798,2.5376,2.4632,2.3572,0.0,0.0,0.0,2.3759,2.4909,2.6014,2.6989,2.7247,2.7024,2.7563,2.7745,2.7701,2.7811,2.7811,2.7701,2.7392,2.7151,2.6907,2.6585,2.6592,2.6862,2.6903,2.7085,2.7267,2.7307,2.7429,2.7534,2.7231,2.7208,2.7267,2.7267,2.7429,2.751,2.7389,2.7389,2.7389,2.7226,2.6887,2.6342,2.5593,2.5173,2.4852,2.4438,2.3676,2.3072,2.2921,2.2348,2.2194,2.2796,2.3006,2.2972,2.2708,2.2846,2.1714,1.8725,1.9727,2.0316,2.0022,2.1996,2.312,2.3085,2.4704,2.5533,2.5397,2.5991,2.6637,2.7402,2.7042,2.745,2.8522,2.8522,2.857,2.8715,2.9244,2.9821,3.0494,3.1356,3.1673,3.1629,3.1673,3.1851,3.2104,3.2651,3.3244,3.3767,2.702,2.8078,2.8428,2.5657,2.7322,2.847,2.6627,2.7381,2.8633,2.9987,2.9431,2.95,3.1131,3.1617,3.186,3.2045,3.2285,3.2295,3.1863,3.2472,3.2369,3.134,3.0094,2.9623,3.0105,2.8142,2.6971,2.6751,2.5779,2.4694,2.3572,0.0,0.0,2.3756,2.4366,2.5308,2.6477,2.6961,2.7281,2.7544,2.7827,2.7876,2.7745,2.8143,2.8162,2.7916,2.7479,2.7282,2.7152,2.6254,2.626,2.6633,2.6862,2.7167,2.751,2.776,2.7841,2.7841,2.78,2.7655,2.747,2.747,2.7609,2.777,2.7817,2.7534,2.7226,2.7185,2.6999,2.6953,2.7204,2.6675,2.5906,2.5135,2.3621,2.2333,2.1672,2.1421,2.1647,2.2604,2.2317,2.2192,2.2673,2.1914,2.1143,2.0475,2.0969,2.1486,2.1913,2.1339,2.1698,2.3293,2.3329,2.4272,2.624,2.5598,2.6545,2.9051,2.7594,2.745,2.8522,2.8522,2.8763,2.9244,2.9797,3.0633,3.1573,3.1669,3.1584,3.1339,3.1629,3.1717,3.1829,3.2604,3.3244,3.3767,2.7305,2.76,2.7676,2.6596,2.6968,2.7347,2.7045,2.7549,2.8615,3.0351,3.0174,3.0512,3.222,3.3014,3.3377,3.319,3.3236,3.3051,3.2555,3.2576,3.2244,3.1572,3.044,2.9853,3.0035,2.8675,2.79,2.7789,2.6494,2.5592,2.4974,2.3967,2.3897,2.4712,2.5089,2.5639,2.628,2.6952,2.7121,2.7015,2.7412,2.7635,2.7745,2.8052,2.8267,2.8375,2.7588,2.7304,2.7173,2.6212,2.6115,2.6407,2.6779,2.7167,2.7551,2.7978,2.8163,2.8203,2.7962,2.7841,2.7655,2.7389,2.7672,2.7955,2.7574,2.7655,2.7672,2.7267,2.7144,2.7208,2.7655,2.7488,2.6917,2.5798,2.5359,2.479,2.3762,2.3024,2.3052,2.4413,2.3363,2.2994,2.4104,2.3121,2.2355,2.2219,2.1529,2.1104,2.1108,2.1609,2.2571,2.407,2.4085,2.5227,2.7639,2.659,2.6976,2.8811,2.8186,2.8089,2.8522,2.8835,2.9268,2.9797,3.0326,3.085,3.1259,3.1573,3.1629,3.1564,3.183,3.2057,3.2277,3.3078,3.3624,3.3977,2.7292,2.7128,2.7032,2.6691,2.6393,2.6408,2.716,2.7456,2.8371,3.0418,3.0837,3.1487,3.3014,3.38,3.3976,3.3376,3.3413,3.3201,3.2381,3.217,3.1825,3.1176,3.0242,2.9682,2.9471,2.8766,2.8299,2.8099,2.7015,2.6234,2.5785,2.4855,2.4795,2.5531,2.5661,2.5961,2.6386,2.688,2.6976,2.6842,2.726,2.7591,2.7922,2.816,2.8462,2.8683,2.7654,2.7304,2.7173,2.6212,2.6052,2.6385,2.6839,2.729,2.7696,2.8179,2.8379,2.8443,2.8163,2.7881,2.7655,2.7452,2.7632,2.7794,2.747,2.7777,2.7938,2.7307,2.7185,2.7348,2.78,2.8002,2.7648,2.6432,2.6572,2.6402,2.5183,2.4245,2.4115,2.5287,2.3827,2.3293,2.4629,2.3651,2.288,2.2845,2.1841,2.1222,2.1219,2.1788,2.2777,2.4175,2.3921,2.4991,2.7645,2.6647,2.6938,2.8522,2.8667,2.8667,2.8522,2.922,2.9821,3.035,3.0922,3.1139,3.1187,3.1548,3.1745,3.1848,3.2027,3.2322,3.2723,3.3362,3.3738,3.4064,2.6717,2.7104,2.6995,2.5141,2.5457,2.6028,2.6427,2.6903,2.8045,3.0368,3.1083,3.1918,3.3329,3.3489,3.3144,3.2126,3.2502,3.2266,3.1024,3.118,3.086,2.9888,2.9123,2.8611,2.8408,2.7966,2.7588,2.7312,2.7012,2.6464,2.5592,2.5089,2.5386,2.6268,2.6126,2.6381,2.688,2.6697,2.6842,2.7334,2.7589,2.7988,2.843,2.871,2.8792,2.8683,2.7654,2.7304,2.7173,2.6212,2.6177,2.6569,2.7062,2.7534,2.7962,2.8403,2.8522,2.8522,2.8498,2.7834,2.7307,2.78,2.7534,2.7307,2.78,2.7881,2.776,2.7307,2.7185,2.7348,2.78,2.8243,2.8083,2.689,2.6723,2.6266,2.4967,2.4378,2.419,2.4479,2.3153,2.2595,2.3607,2.2794,2.2147,2.2026,2.2003,2.234,2.314,2.1598,2.1574,2.3361,2.1996,2.2667,2.5614,2.5109,2.6073,2.8522,2.9051,2.9003,2.8546,2.9605,3.0374,3.0946,3.1476,3.1693,3.1693,3.1717,3.1827,3.2079,3.2079,3.2418,3.2901,3.3215,3.3494,3.3767,2.7638,2.6573,2.6076,2.7343,2.7142,2.7215,2.8475,2.9494,3.0342,3.1071,3.172,3.2273,3.2718,3.3215,3.3254,3.259,3.2082,3.1611,3.118,3.0185,2.9503,2.9336,2.8144,2.7434,2.7435,2.7258,2.7103,2.7034,2.7247,2.6975,2.6355,2.6076,2.6194,2.6694,2.6531,2.6435,2.6407,2.6365,2.6412,2.659,2.7164,2.7583,2.7936,2.85,2.8721,2.8631,2.8006,2.7544,2.7261,2.6948,2.6903,2.7062,2.7534,2.78,2.7962,2.8403,2.8522,2.8522,2.8522,2.8299,2.7978,2.7534,2.7777,2.7978,2.7534,2.7655,2.7921,2.8059,2.7857,2.7841,2.8243,2.8403,2.8122,2.689,2.7397,2.7517,2.6253,2.5658,2.5361,2.5454,2.4249,2.3815,2.487,2.4307,2.3944,2.4222,2.3222,2.2661,2.2742,2.3121,2.4013,2.5419,2.512,2.5799,2.7559,2.6957,2.7448,2.9051,2.9415,2.969,2.9881,3.0428,3.0946,3.1452,3.1645,3.1717,3.1717,3.1717,3.1985,3.2378,3.2368,3.27,3.3213,3.3443,3.3627,3.3767,2.8641,2.7619,2.7124,2.8649,2.832,2.8284,2.955,3.0547,3.1258,3.1604,3.2048,3.2293,3.2024,3.2575,3.2782,3.2369,3.1999,3.1556,3.118,2.9921,2.911,2.8828,2.7678,2.7034,2.6948,2.7125,2.7169,2.7077,2.7172,2.7213,2.7024,2.6737,2.6798,2.7133,2.6764,2.6531,2.6365,2.6157,2.6184,2.6381,2.6838,2.7316,2.7798,2.8277,2.8545,2.861,2.8166,2.7723,2.7281,2.7262,2.7254,2.7267,2.776,2.8002,2.8163,2.8443,2.8403,2.8323,2.8459,2.8403,2.8163,2.7615,2.7857,2.8179,2.7753,2.7777,2.8002,2.8443,2.8163,2.8002,2.8443,2.8522,2.8242,2.7493,2.7987,2.8242,2.7493,2.6699,2.6184,2.6184,2.5075,2.4684,2.5607,2.5321,2.5201,2.5493,2.4137,2.3534,2.4072,2.407,2.4596,2.5745,2.5941,2.6671,2.8131,2.7624,2.8076,2.948,2.9624,3.0129,3.095,3.0932,3.1211,3.1717,3.1717,3.1769,3.1872,3.1872,3.2237,3.2791,3.27,3.3003,3.3445,3.3502,3.3618,3.3767,2.9901,2.977,2.9577,2.9258,2.9105,2.9291,3.0024,3.0526,3.1127,3.1922,3.22,3.2082,3.1318,3.1655,3.1796,3.152,3.2006,3.1884,3.0871,3.0145,2.9291,2.8386,2.7609,2.7117,2.6839,2.7391,2.7544,2.7359,2.7118,2.7179,2.7609,2.7175,2.7175,2.7541,2.6899,2.6592,2.655,2.6115,2.619,2.6584,2.6627,2.7193,2.8008,2.803,2.8299,2.8553,2.8139,2.7717,2.729,2.7295,2.7213,2.7226,2.7743,2.8146,2.8419,2.8459,2.8243,2.8002,2.8403,2.8243,2.7921,2.7921,2.7881,2.8002,2.8403,2.8203,2.8042,2.8419,2.8203,2.8042,2.8443,2.8522,2.8522,2.8522,2.8522,2.8474,2.8362,2.7421,2.6661,2.659,2.5596,2.5181,2.5898,2.6017,2.6041,2.597,2.4874,2.4945,2.6614,2.4663,2.4009,2.5085,2.5169,2.5975,2.7624,2.7451,2.8167,2.9782,2.9801,3.0453,3.1649,3.1144,3.1235,3.1717,3.1741,3.192,3.2124,3.2172,3.2651,3.3311,3.3021,3.3275,3.3691,3.3442,3.3492,3.3717,3.2114,3.0574,2.9759,3.174,3.1079,3.0752,3.2147,3.2156,3.2066,3.2271,3.2009,3.1564,3.1074,3.1268,3.1202,3.0581,3.0528,3.0312,2.9864,2.8617,2.792,2.7878,2.6969,2.6437,2.6353,2.6817,2.7435,2.8121,2.7852,2.7687,2.7609,2.7496,2.7376,2.7291,2.6948,2.6715,2.655,2.6282,2.6317,2.6627,2.7013,2.7495,2.8051,2.8388,2.8589,2.8634,2.8187,2.77,2.7348,2.7693,2.7324,2.6802,2.7644,2.7713,2.7632,2.8299,2.8443,2.8403,2.8459,2.8443,2.8283,2.7962,2.7881,2.8002,2.8403,2.8443,2.8403,2.8483,2.8419,2.8403,2.8459,2.8522,2.8522,2.8522,2.8522,2.8194,2.7263,2.6866,2.6338,2.537,2.5822,2.6314,2.647,2.7349,2.7493,2.6603,2.6411,2.6482,2.6685,2.6783,2.7254,2.8171,2.8618,2.8944,2.9201,2.9498,3.0048,3.0696,3.0849,3.11,3.1383,3.1484,3.1597,3.1741,3.213,3.2325,3.2424,3.2831,3.3336,3.3815,3.3384,3.352,3.3915,3.3492,3.3492,3.3717,3.2878,3.1584,3.0628,3.1784,3.1732,3.1349,3.0924,3.1106,3.1272,3.1429,3.0897,3.0579,3.0723,3.0778,3.0466,2.9598,2.9947,2.9995,2.9536,2.8528,2.8007,2.8033,2.7302,2.6993,2.7214,2.7457,2.7833,2.8386,2.803,2.7822,2.7777,2.768,2.7586,2.7541,2.7372,2.7068,2.6719,2.6488,2.6341,2.6321,2.6797,2.7232,2.7717,2.821,2.8478,2.8632,2.841,2.8032,2.77,2.8137,2.7777,2.7287,2.7983,2.7901,2.7653,2.8332,2.8369,2.8283,2.8443,2.8522,2.8403,2.8002,2.8042,2.8203,2.8203,2.8363,2.8522,2.8522,2.8522,2.8522,2.8522,2.8522,2.8522,2.8522,2.805,2.7469,2.6794,2.6181,2.5775,2.568,2.629,2.6914,2.7469,2.8122,2.8218,2.7565,2.7254,2.727,2.768,2.7921,2.841,2.9087,2.9654,2.991,2.9934,3.0366,3.0634,3.0826,3.1286,3.147,3.1494,3.2163,3.2349,3.2282,3.2685,3.2949,3.305,3.3337,3.372,3.4029,3.364,3.3681,3.3866,3.3442,3.3492,3.3668,3.2437,3.1986,3.125,3.0545,3.118,3.1043,2.8814,2.9282,3.0016,3.0432,2.9941,2.9825,3.0558,3.04,2.9838,2.8989,2.9793,3.0057,2.9449,2.9033,2.8712,2.8454,2.8055,2.8033,2.8432,2.8475,2.8474,2.8451,2.8008,2.7871,2.8076,2.7824,2.7802,2.8008,2.7832,2.7501,2.6994,2.6866,2.654,2.6256,2.654,2.704,2.7542,2.7898,2.8277,2.8627,2.8589,2.8344,2.8031,2.8381,2.8248,2.7985,2.8358,2.8257,2.7973,2.8393,2.828,2.8069,2.8387,2.8522,2.8443,2.8177,2.825,2.8387,2.8137,2.825,2.8443,2.8483,2.8522,2.8522,2.8522,2.8522,2.845,2.8242,2.7358,2.6637,2.6433,2.5656,2.5501,2.6566,2.6938,2.7517,2.8507,2.8691,2.8739,2.8739,2.7949,2.7955,2.9071,2.8855,2.8883,2.9272,2.974,3.0103,3.0399,3.0574,3.0647,3.0623,3.1247,3.1596,3.1736,3.2671,3.3026,3.2911,3.324,3.3528,3.3744,3.3767,3.3931,3.4113,3.3817,3.3668,3.3668,3.3392,3.3492,3.3668,3.0258,2.9774,2.9297,2.9233,2.9005,2.9046,2.9565,2.9775,3.0245,3.1249,3.1286,3.1121,3.0893,3.045,2.9991,2.9423,2.9186,2.9036,2.8924,2.8976,2.8941,2.8679,2.8589,2.8589,2.8656,2.8715,2.8729,2.8751,2.8622,2.8539,2.832,2.8299,2.8166,2.8008,2.7964,2.7832,2.7568,2.7546,2.7591,2.7631,2.7348,2.7742,2.8534,2.8134,2.8335,2.8714,2.8247,2.8072,2.8028,2.8051,2.7788,2.748,2.7941,2.8033,2.7981,2.8068,2.8282,2.8499,2.8497,2.8522,2.8579,2.8994,2.8536,2.8201,2.8913,2.8512,2.8082,2.8443,2.8522,2.8522,2.8522,2.8522,2.817,2.7143,2.6818,2.6338,2.5252,2.5859,2.6494,2.6661,2.7996,2.8963,2.9172,2.9581,2.9845,2.9845,2.9523,2.9611,3.0205,3.0393,3.0662,3.0902,3.1222,3.1316,3.1181,3.1044,3.0836,3.0623,3.0692,3.1108,3.1713,3.1853,3.2274,3.2935,3.3434,3.3744,3.3983,3.4196,3.4313,3.4286,3.3866,3.3668,3.3668,3.3392,3.3492,3.3668,2.9144,2.8509,2.7935,2.7935,2.8083,2.8169,2.8062,2.8595,2.9489,3.0916,3.0669,3.0555,3.1229,3.0406,2.9729,2.951,2.9077,2.8792,2.8792,2.8885,2.8936,2.8944,2.8922,2.8922,2.8922,2.8822,2.8792,2.8792,2.8644,2.8602,2.8624,2.8451,2.8408,2.843,2.843,2.823,2.7854,2.7854,2.7787,2.7654,2.7653,2.796,2.8375,2.8418,2.8571,2.8771,2.8506,2.8418,2.8418,2.8418,2.8265,2.8134,2.8353,2.8227,2.8055,2.8321,2.8494,2.8609,2.857,2.8763,2.9,2.8986,2.9035,2.9148,2.932,2.9035,2.8734,2.8922,2.8729,2.8552,2.8531,2.8522,2.8314,2.7771,2.7143,2.6481,2.5907,2.66,2.7138,2.7138,2.8682,2.9725,2.9725,3.0079,3.0348,3.0348,3.0481,3.066,3.0894,3.1227,3.1437,3.1575,3.1692,3.1692,3.1598,3.1504,3.1204,3.0836,3.1228,3.1391,3.1321,3.1879,3.2418,3.2935,3.3458,3.3815,3.4052,3.4435,3.4384,3.4014,3.3915,3.3717,3.3492,3.3342,3.3392,3.3492,2.8131,2.7564,2.7032,2.7308,2.7573,2.7688,2.7311,2.816,2.9373,3.0914,3.0433,3.0427,3.1658,3.0603,2.9816,2.9816,2.9318,2.8967,2.8967,2.8858,2.8885,2.9093,2.9071,2.9071,2.9046,2.8885,2.8792,2.8792,2.858,2.8602,2.8792,2.858,2.8602,2.8792,2.8792,2.8549,2.82,2.82,2.8003,2.7676,2.7893,2.8067,2.8244,2.8484,2.8705,2.8792,2.8792,2.8792,2.8792,2.8792,2.8792,2.8792,2.8792,2.8506,2.8245,2.8609,2.8701,2.8628,2.8596,2.9001,2.9324,2.912,2.9394,2.973,2.9593,2.9308,2.9075,2.91,2.8852,2.855,2.8545,2.8505,2.8376,2.802,2.7262,2.6688,2.6571,2.7096,2.7672,2.8068,2.9528,3.0494,3.0639,3.0902,3.108,3.108,3.1317,3.153,3.1669,3.1851,3.1986,3.1986,3.1986,3.194,3.1825,3.1917,3.157,3.0836,3.1506,3.1552,3.1019,3.1809,3.237,3.274,3.3313,3.3693,3.3948,3.436,3.4211,3.3717,3.3866,3.3691,3.3292,3.3292,3.3292,3.3292,2.6755,2.6627,2.6899,2.7941,2.7295,2.7311,2.9335,3.0146,3.0935,3.211,3.2202,3.2232,3.2328,3.1411,3.0799,3.0799,2.9947,2.9423,2.9423,2.9055,2.8885,2.9093,2.9071,2.8978,2.8839,2.8792,2.8792,2.8792,2.8771,2.8771,2.8792,2.8771,2.8771,2.8792,2.8792,2.8771,2.8749,2.8749,2.8727,2.8661,2.82,2.8309,2.8705,2.8244,2.8375,2.8792,2.8792,2.8792,2.8792,2.8792,2.8792,2.8792,2.8792,2.8771,2.8749,2.8795,2.8773,2.8761,2.8627,2.9001,2.9503,2.9977,2.9459,2.9054,2.9957,2.9088,2.8218,2.8561,2.863,2.8579,2.8574,2.8584,2.8107,2.6507,2.6558,2.6626,2.6194,2.6921,2.8122,2.9809,3.093,3.1789,3.2274,3.2574,3.2745,3.2745,3.2301,3.2274,3.2785,3.2566,3.2443,3.2443,3.2443,3.2213,3.1825,3.2213,3.1708,3.0285,3.0813,3.1042,3.1019,3.1089,3.1459,3.2204,3.2717,3.3095,3.3358,3.3656,3.3717,3.3691,3.3442,3.3319,3.3292,3.3292,3.3292,3.3292,2.5793,2.5617,2.5915,2.7287,2.6956,2.7276,2.9545,3.0325,3.1221,3.2659,3.2569,3.2503,3.2818,3.1673,3.0777,3.0493,2.986,2.9358,2.9099,2.8902,2.8839,2.8885,2.8885,2.8885,2.8792,2.8792,2.8792,2.8792,2.8792,2.8792,2.8792,2.8792,2.8792,2.8792,2.8792,2.8792,2.8792,2.8792,2.8792,2.8792,2.8596,2.8639,2.8771,2.8549,2.8639,2.8792,2.8792,2.8792,2.8792,2.8792,2.8792,2.8792,2.8792,2.8792,2.8792,2.8792,2.8792,2.8819,2.8765,2.9105,2.9509,2.9715,2.9713,2.9732,3.0118,2.9556,2.9038,2.9454,2.9282,2.9284,2.9916,2.9748,2.9414,2.9144,2.8677,2.8439,2.8553,2.917,2.9983,3.0986,3.2075,3.2755,3.2971,3.3078,3.3149,3.3149,3.295,3.2935,3.3142,3.27,3.2293,3.2022,3.2293,3.2351,3.2213,3.2099,3.1892,3.1616,3.1525,3.1479,3.1479,3.1479,3.1779,3.2358,3.2737,3.3064,3.334,3.3796,3.3717,3.3492,3.3519,3.3442,3.3292,3.3292,3.3292,3.3292,2.6238,2.6077,2.6446,2.818,2.7663,2.7795,3.0089,3.0979,3.1827,3.2974,3.284,3.2721,3.3081,3.1913,3.093,3.0472,2.9991,2.951,2.9055,2.888,2.8792,2.8792,2.8792,2.8792,2.8792,2.8792,2.8773,2.8666,2.8773,2.8773,2.8688,2.8773,2.8792,2.8792,2.8792,2.8792,2.8792,2.8792,2.8792,2.8792,2.8792,2.8792,2.8792,2.8792,2.8792,2.8792,2.8792,2.8792,2.8792,2.8792,2.8792,2.8792,2.8792,2.8792,2.8792,2.8792,2.8792,2.8792,2.8792,2.9024,2.9301,2.9439,2.976,3.0034,3.0194,2.9848,2.9617,3.001,2.989,2.9864,3.0514,3.0353,3.019,3.0445,3.0034,2.9691,2.9894,3.0468,3.1113,3.1622,3.2488,3.3102,3.322,3.3118,3.3036,3.3036,3.2864,3.2869,3.3019,3.2471,3.2029,3.1747,3.2049,3.2198,3.2259,3.2076,3.2007,3.203,3.1846,3.1802,3.1754,3.1802,3.1986,3.2308,3.2614,3.2892,3.3089,3.3621,3.3618,3.3342,3.3492,3.3492,3.3292,3.3292,3.3292,3.3292,2.8169,2.8169,2.8913,3.1197,2.9702,2.8966,3.1249,3.2437,3.3124,3.3124,3.3124,3.3103,3.3103,3.2197,3.1433,3.093,3.0472,2.9991,2.951,2.9077,2.8792,2.8792,2.8792,2.8792,2.8792,2.8792,2.8666,2.8386,2.8666,2.8666,2.8408,2.8688,2.8792,2.8792,2.8792,2.8792,2.8792,2.8792,2.8792,2.8792,2.8792,2.8792,2.8792,2.8792,2.8792,2.8792,2.8792,2.8792,2.8792,2.8792,2.8792,2.8792,2.8792,2.8792,2.8792,2.8814,2.8814,2.8814,2.8814,2.8814,2.8907,2.9393,2.9485,2.962,3.0066,2.9822,2.9632,3.0036,3.0149,3.0202,3.0125,3.0171,3.0057,2.9576,2.9904,3.0057,2.9576,3.0337,3.1117,3.1659,3.2124,3.2623,3.3151,3.2723,3.242,3.242,3.1913,3.1812,3.237,3.1863,3.1645,3.18,3.1724,3.1675,3.1683,3.2236,3.1984,3.1042,3.1525,3.1754,3.1683,3.1754,3.1825,3.1848,3.2282,3.2489,3.2535,3.3063,3.3292,3.3292,3.3292,3.3292,3.3292,3.3292,3.3292,3.3292,2.6844,2.7006,2.7741,3.0037,2.9807,3.0036,3.188,3.2394,3.27,3.3081,3.2787,3.259,3.259,3.2001,3.1302,3.0493,3.0297,2.986,2.9077,2.888,2.8792,2.8792,2.8792,2.8792,2.8792,2.8792,2.8773,2.8688,2.8773,2.8773,2.8688,2.8727,2.8792,2.8792,2.8792,2.8792,2.8792,2.8792,2.8792,2.8792,2.8792,2.8792,2.8792,2.8792,2.8792,2.8792,2.8792,2.8792,2.8792,2.8792,2.8792,2.8792,2.8792,2.8792,2.8858,2.9208,2.9318,2.9336,2.9685,2.9773,2.9755,2.9547,2.9506,2.9639,3.0075,3.0088,3.0127,3.0602,3.068,3.0905,3.1577,3.1434,3.1249,3.1495,3.107,3.0756,3.0952,3.1268,3.1609,3.2152,3.2669,3.3013,3.3174,3.2896,3.2695,3.2695,3.2392,3.2037,3.1578,3.1424,3.1091,3.0634,3.0896,3.0895,3.0577,3.1508,3.2007,3.2053,3.1846,3.1802,3.1754,3.1802,3.2009,3.2282,3.242,3.2695,3.3063,3.3224,3.3292,3.3292,3.3292,3.3292,3.3292,3.3292,3.3292,3.3292,2.706,2.7168,2.7741,2.9597,2.9124,2.9066,3.0537,3.0884,3.1114,3.1419,3.1177,3.1009,3.1009,3.0957,3.064,2.9871,3.0073,2.9882,2.9142,2.9099,2.8989,2.8814,2.8792,2.8792,2.8792,2.8792,2.8751,2.8622,2.8751,2.8751,2.8622,2.8773,2.8792,2.8792,2.8792,2.8792,2.8792,2.8792,2.8792,2.8792,2.8792,2.8792,2.8792,2.8792,2.8792,2.8792,2.8792,2.8792,2.8792,2.8792,2.8792,2.8792,2.8792,2.8946,2.9142,2.9401,2.962,2.9838,3.0122,3.0209,3.0188,3.0078,2.9904,2.9904,3.0362,3.0493,3.0624,3.1083,3.1192,3.1381,3.1971,3.1834,3.1732,3.2015,3.157,3.128,3.1586,3.162,3.1756,3.2044,3.237,3.2594,3.2594,3.2342,3.2139,3.1986,3.1885,3.168,3.1373,3.1189,3.1008,3.0882,3.0914,3.0939,3.0877,3.1547,3.1909,3.2048,3.2045,3.2119,3.2228,3.2144,3.2328,3.2787,3.2581,3.2787,3.3292,3.3292,3.3292,3.3292,3.3292,3.3292,3.3292,3.3292,3.3292,3.3292,2.8009,2.8062,2.8382,2.9545,2.8009,2.7025,2.8121,2.8594,2.8828,2.8867,2.8848,2.8809,2.8809,2.9472,2.9725,2.9219,2.9807,3.0013,2.9576,2.9554,2.9336,2.888,2.8902,2.888,2.8792,2.8792,2.8688,2.8452,2.8688,2.8688,2.8452,2.871,2.8792,2.8792,2.8792,2.8792,2.8792,2.8792,2.8792,2.8792,2.8792,2.8792,2.8792,2.8792,2.8836,2.8858,2.8858,2.8902,2.8924,2.888,2.8902,2.8924,2.888,2.9208,2.9554,2.9598,2.9925,3.0275,3.0319,3.0341,3.0428,3.0865,3.0646,3.045,3.0865,3.0952,3.1105,3.1586,3.1695,3.1695,3.1738,3.176,3.1738,3.1695,3.1695,3.1622,3.1629,3.1629,3.1629,3.1629,3.1629,3.1629,3.1629,3.1416,3.1202,3.0943,3.0934,3.1193,3.1592,3.1129,3.118,3.1856,3.1446,3.1416,3.1922,3.1958,3.1743,3.1329,3.2048,3.2522,3.2733,3.2502,3.2646,3.3178,3.2695,3.2787,3.3292,3.3292,3.3292,3.3292,3.3292,3.3292,3.3292,3.3292,3.3292,3.3292,2.6681,2.6898,2.7222,2.8382,2.8169,2.8018,2.8637,2.8516,2.8496,2.8828,2.8574,2.8359,2.8359,2.929,2.9725,2.9219,2.9807,3.0166,3.0057,3.0057,2.9838,2.9383,2.9685,2.9532,2.8814,2.8792,2.8749,2.8707,2.8749,2.8749,2.8707,2.8749,2.8792,2.8792,2.8792,2.8792,2.8792,2.8792,2.8792,2.8792,2.8792,2.8792,2.8792,2.8792,2.9033,2.9383,2.9383,2.9576,2.9838,2.9445,2.9576,2.9838,2.9445,2.9663,3.0122,3.0493,3.0668,3.0821,3.1214,3.1323,3.1345,3.1433,3.1389,3.1345,3.1455,3.1455,3.1607,3.211,3.2219,3.2328,3.27,3.2743,3.2634,3.2285,3.2219,3.2088,3.1673,3.1629,3.1629,3.1629,3.1629,3.1629,3.1629,3.1927,3.2115,3.2063,3.2124,3.2093,3.1832,3.1496,3.1241,3.1056,3.0931,3.0998,3.1307,3.1568,3.1642,3.1627,3.1577,3.1471,3.1349,3.1285,3.1634,3.2355,3.2437,3.2787,3.3292,3.3292,3.3292,3.3292,3.3292,3.3292,3.3292,3.3292,3.3292,3.3292,2.6373,2.6518,2.6681,2.7276,2.6952,2.6646,2.6921,2.6719,2.6646,2.6921,2.6701,2.6572,2.6572,2.8062,2.9463,3.027,3.0666,3.0777,3.0559,3.0537,3.0319,2.986,3.0078,2.9969,2.9467,2.9274,2.9033,2.8792,2.8792,2.8792,2.8792,2.8792,2.8792,2.8792,2.8792,2.8792,2.8792,2.8792,2.8792,2.8792,2.8792,2.8946,2.9142,2.9142,2.9449,2.9838,2.9838,2.9991,3.0166,2.9925,2.9991,3.0166,2.9904,3.0166,3.0581,3.0821,3.1061,3.1302,3.1564,3.1629,3.1629,3.1629,3.1804,3.1979,3.1979,3.1979,3.211,3.2612,3.27,3.284,3.3081,3.3124,3.3037,3.2743,3.27,3.2612,3.235,3.2306,3.2306,3.2306,3.2306,3.2306,3.2306,3.2547,3.27,3.27,3.2651,3.2512,3.2254,3.1987,3.172,3.1559,3.1275,3.1328,3.1734,3.1593,3.1698,3.1935,3.173,3.1478,3.1213,3.114,3.1381,3.1901,3.1945,3.2323,3.2902,3.2902,3.3063,3.3292,3.3292,3.3292,3.3292,3.3292,3.3292,3.3292,2.6209,2.6209,2.6209,2.6209,2.5404,2.4812,2.4812,2.4812,2.4812,2.4812,2.4812,2.4868,2.509,2.7114,2.923,3.1146,3.1476,3.1455,3.104,3.1018,3.0821,3.0341,3.0406,3.0384,3.0209,2.9882,2.9445,2.8924,2.8836,2.8792,2.8792,2.8792,2.8792,2.8792,2.8792,2.8792,2.8792,2.8792,2.8858,2.8924,2.8924,2.9208,2.962,2.962,2.9904,3.0319,3.0319,3.0384,3.045,3.0362,3.0384,3.045,3.0362,3.0646,3.104,3.1127,3.1433,3.176,3.1848,3.187,3.187,3.187,3.2197,3.2525,3.2612,3.2569,3.2634,3.3093,3.3256,3.3224,3.3289,3.3311,3.3289,3.3202,3.3256,3.3212,3.3124,3.3124,3.3124,3.3124,3.3124,3.3124,3.3124,3.319,3.3256,3.3256,3.2944,3.2782,3.2696,3.2425,3.2247,3.2343,3.1857,3.1878,3.2392,3.1878,3.1816,3.2208,3.2075,3.187,3.1693,3.1352,3.1434,3.1778,3.1581,3.1897,3.2578,3.2627,3.2879,3.3269,3.3178,3.3201,3.3292,3.3292,3.3292,3.3292,2.5034,2.5034,2.5034,2.5034,2.4923,2.4812,2.4812,2.4812,2.4812,2.4812,2.4812,2.52,2.6154,2.8276,2.9807,3.0089,3.1043,3.1534,3.152,3.152,3.1302,3.0821,3.1214,3.1061,3.0231,3.0537,3.0275,2.9427,2.9011,2.8792,2.8792,2.8792,2.8792,2.8792,2.8792,2.8792,2.8792,2.8792,2.9055,2.9427,2.9427,2.9685,3.0122,3.0122,3.0406,3.0799,3.0799,3.1083,3.1367,3.0952,3.1083,3.1367,3.093,3.1127,3.1607,3.2044,3.2219,3.2372,3.2765,3.2874,3.2874,3.2874,3.2971,3.3093,3.3508,3.3268,3.3168,3.3595,3.3704,3.3835,3.425,3.4316,3.4185,3.377,3.3704,3.3551,3.319,3.3124,3.3124,3.3124,3.3124,3.3124,3.3124,3.3442,3.3704,3.3704,3.3544,3.342,3.3212,3.2696,3.2327,3.2208,3.2135,3.2196,3.2413,3.2217,3.2196,3.2364,3.2003,3.1911,3.2105,3.126,3.1327,3.2236,3.224,3.2487,3.2878,3.3078,3.3224,3.3247,3.2764,3.2879,3.3292,3.3292,3.3292,3.3292,2.4812,2.4812,2.4812,2.4812,2.4812,2.4812,2.4812,2.4812,2.4812,2.4812,2.4812,2.4979,2.5514,2.758,2.944,3.0712,3.13,3.1629,3.1629,3.1629,3.152,3.1302,3.152,3.1433,3.1018,3.093,3.069,3.0275,2.9794,2.9576,2.9554,2.9292,2.9208,2.9208,2.8924,2.8792,2.8792,2.8792,2.9077,2.9489,2.9489,2.9925,3.0603,3.0603,3.0887,3.1302,3.1302,3.1433,3.1586,3.1367,3.1455,3.1586,3.1367,3.1651,3.2088,3.2306,3.2569,3.2862,3.3059,3.3124,3.3124,3.3124,3.3321,3.353,3.3748,3.3835,3.3945,3.4163,3.4207,3.4272,3.4491,3.4534,3.4447,3.4229,3.4207,3.4119,3.3901,3.3879,3.3879,3.3879,3.3879,3.3879,3.3879,3.4076,3.4151,3.3985,3.3733,3.3473,3.3282,3.2811,3.2538,3.2462,3.2356,3.2385,3.2586,3.2406,3.2406,3.2586,3.2128,3.1939,3.1972,3.1296,3.1115,3.1395,3.1382,3.1534,3.1784,3.1882,3.2127,3.2469,3.2167,3.2397,3.2879,3.3178,3.3292,3.3292]}]]